<?xml version="1.0" encoding="UTF-8" ?><gpx xmlns="http://www.topografix.com/GPX/1/1" version="1.1" xmlns:xsi="http://www.w3.org/2001/XMLSchema-instance" xsi:schemaLocation="http://www.topografix.com/GPX/1/1 http://www.topografix.com/gpx/1/1/gpx.xsd" creator="doma2rg"><trk><name>TessaP 1258</name><trkseg><trkpt lat="60.311866666667" lon="25.291499722222"><time>2015-10-31T08:17:57Z</time></trkpt><trkpt lat="60.311903888889" lon="25.291528888889"><time>2015-10-31T08:18:07Z</time></trkpt><trkpt lat="60.311980833333" lon="25.291626388889"><time>2015-10-31T08:18:11Z</time></trkpt><trkpt lat="60.312033611111" lon="25.291723888889"><time>2015-10-31T08:18:16Z</time></trkpt><trkpt lat="60.312115277778" lon="25.291909444444"><time>2015-10-31T08:18:21Z</time></trkpt><trkpt lat="60.312196666667" lon="25.292178888889"><time>2015-10-31T08:18:27Z</time></trkpt><trkpt lat="60.312280277778" lon="25.292458888889"><time>2015-10-31T08:18:33Z</time></trkpt><trkpt lat="60.312357222222" lon="25.292736666667"><time>2015-10-31T08:18:39Z</time></trkpt><trkpt lat="60.312427222222" lon="25.293078888889"><time>2015-10-31T08:18:46Z</time></trkpt><trkpt lat="60.312476944444" lon="25.293373055556"><time>2015-10-31T08:18:52Z</time></trkpt><trkpt lat="60.312516388889" lon="25.293628888889"><time>2015-10-31T08:18:57Z</time></trkpt><trkpt lat="60.312503333333" lon="25.293904444444"><time>2015-10-31T08:19:02Z</time></trkpt><trkpt lat="60.312477777778" lon="25.294224166667"><time>2015-10-31T08:19:08Z</time></trkpt><trkpt lat="60.312457777778" lon="25.294543333333"><time>2015-10-31T08:19:14Z</time></trkpt><trkpt lat="60.312401944444" lon="25.294778333333"><time>2015-10-31T08:19:20Z</time></trkpt><trkpt lat="60.312385" lon="25.294796111111"><time>2015-10-31T08:19:21Z</time></trkpt><trkpt lat="60.312339166667" lon="25.294872222222"><time>2015-10-31T08:19:24Z</time></trkpt><trkpt lat="60.312253333333" lon="25.294961111111"><time>2015-10-31T08:19:28Z</time></trkpt><trkpt lat="60.312196666667" lon="25.295059444444"><time>2015-10-31T08:19:32Z</time></trkpt><trkpt lat="60.312178611111" lon="25.295075555556"><time>2015-10-31T08:19:33Z</time></trkpt><trkpt lat="60.312048611111" lon="25.2952125"><time>2015-10-31T08:19:38Z</time></trkpt><trkpt lat="60.31204" lon="25.295240833333"><time>2015-10-31T08:19:39Z</time></trkpt><trkpt lat="60.311993333333" lon="25.295308055556"><time>2015-10-31T08:19:42Z</time></trkpt><trkpt lat="60.311966388889" lon="25.295398888889"><time>2015-10-31T08:19:46Z</time></trkpt><trkpt lat="60.31196" lon="25.295463888889"><time>2015-10-31T08:19:47Z</time></trkpt><trkpt lat="60.311945833333" lon="25.295646388889"><time>2015-10-31T08:19:51Z</time></trkpt><trkpt lat="60.311911388889" lon="25.295826944444"><time>2015-10-31T08:19:55Z</time></trkpt><trkpt lat="60.311875555556" lon="25.296058888889"><time>2015-10-31T08:20:00Z</time></trkpt><trkpt lat="60.311821111111" lon="25.296306111111"><time>2015-10-31T08:20:05Z</time></trkpt><trkpt lat="60.311809166667" lon="25.296351666667"><time>2015-10-31T08:20:06Z</time></trkpt><trkpt lat="60.311768888889" lon="25.2964575"><time>2015-10-31T08:20:09Z</time></trkpt><trkpt lat="60.311723333333" lon="25.296569166667"><time>2015-10-31T08:20:12Z</time></trkpt><trkpt lat="60.311662777778" lon="25.296764166667"><time>2015-10-31T08:20:17Z</time></trkpt><trkpt lat="60.311597777778" lon="25.296955277778"><time>2015-10-31T08:20:21Z</time></trkpt><trkpt lat="60.311579166667" lon="25.297005"><time>2015-10-31T08:20:22Z</time></trkpt><trkpt lat="60.311538611111" lon="25.297048333333"><time>2015-10-31T08:20:24Z</time></trkpt><trkpt lat="60.311513333333" lon="25.297075555556"><time>2015-10-31T08:20:26Z</time></trkpt><trkpt lat="60.311451111111" lon="25.297181944444"><time>2015-10-31T08:20:30Z</time></trkpt><trkpt lat="60.311423055556" lon="25.297225277778"><time>2015-10-31T08:20:32Z</time></trkpt><trkpt lat="60.3113525" lon="25.297393888889"><time>2015-10-31T08:20:38Z</time></trkpt><trkpt lat="60.3113425" lon="25.297413888889"><time>2015-10-31T08:20:39Z</time></trkpt><trkpt lat="60.311292222222" lon="25.297516388889"><time>2015-10-31T08:20:42Z</time></trkpt><trkpt lat="60.311271111111" lon="25.297570833333"><time>2015-10-31T08:20:44Z</time></trkpt><trkpt lat="60.311244722222" lon="25.297632222222"><time>2015-10-31T08:20:47Z</time></trkpt><trkpt lat="60.311197222222" lon="25.297713611111"><time>2015-10-31T08:20:52Z</time></trkpt><trkpt lat="60.311145833333" lon="25.297798888889"><time>2015-10-31T08:20:57Z</time></trkpt><trkpt lat="60.311128888889" lon="25.297825555556"><time>2015-10-31T08:20:58Z</time></trkpt><trkpt lat="60.311088055556" lon="25.2979175"><time>2015-10-31T08:21:02Z</time></trkpt><trkpt lat="60.311051666667" lon="25.298"><time>2015-10-31T08:21:05Z</time></trkpt><trkpt lat="60.311045833333" lon="25.298078333333"><time>2015-10-31T08:21:07Z</time></trkpt><trkpt lat="60.3110275" lon="25.298151388889"><time>2015-10-31T08:21:09Z</time></trkpt><trkpt lat="60.310997222222" lon="25.298188055556"><time>2015-10-31T08:21:10Z</time></trkpt><trkpt lat="60.310951666667" lon="25.298243611111"><time>2015-10-31T08:21:13Z</time></trkpt><trkpt lat="60.310919722222" lon="25.298279166667"><time>2015-10-31T08:21:16Z</time></trkpt><trkpt lat="60.310911111111" lon="25.298342222222"><time>2015-10-31T08:21:18Z</time></trkpt><trkpt lat="60.310866666667" lon="25.298500833333"><time>2015-10-31T08:21:22Z</time></trkpt><trkpt lat="60.310825555556" lon="25.298573333333"><time>2015-10-31T08:21:25Z</time></trkpt><trkpt lat="60.310806944444" lon="25.298610555556"><time>2015-10-31T08:21:27Z</time></trkpt><trkpt lat="60.310745" lon="25.298771666667"><time>2015-10-31T08:21:32Z</time></trkpt><trkpt lat="60.310712777778" lon="25.298919444444"><time>2015-10-31T08:21:36Z</time></trkpt><trkpt lat="60.310675833333" lon="25.299061666667"><time>2015-10-31T08:21:40Z</time></trkpt><trkpt lat="60.310652777778" lon="25.299128611111"><time>2015-10-31T08:21:42Z</time></trkpt><trkpt lat="60.310650833333" lon="25.299201666667"><time>2015-10-31T08:21:44Z</time></trkpt><trkpt lat="60.310608888889" lon="25.299330833333"><time>2015-10-31T08:21:50Z</time></trkpt><trkpt lat="60.31055" lon="25.299465277778"><time>2015-10-31T08:21:55Z</time></trkpt><trkpt lat="60.31054" lon="25.299595"><time>2015-10-31T08:21:59Z</time></trkpt><trkpt lat="60.310503333333" lon="25.299758055556"><time>2015-10-31T08:22:04Z</time></trkpt><trkpt lat="60.310511388889" lon="25.299919444444"><time>2015-10-31T08:22:09Z</time></trkpt><trkpt lat="60.310563611111" lon="25.3001"><time>2015-10-31T08:22:14Z</time></trkpt><trkpt lat="60.310584444444" lon="25.300272222222"><time>2015-10-31T08:22:19Z</time></trkpt><trkpt lat="60.310575833333" lon="25.300439444444"><time>2015-10-31T08:22:24Z</time></trkpt><trkpt lat="60.31059" lon="25.300483333333"><time>2015-10-31T08:22:26Z</time></trkpt><trkpt lat="60.310604444444" lon="25.300562222222"><time>2015-10-31T08:22:28Z</time></trkpt><trkpt lat="60.310621666667" lon="25.300779444444"><time>2015-10-31T08:22:33Z</time></trkpt><trkpt lat="60.310596666667" lon="25.300940555556"><time>2015-10-31T08:22:38Z</time></trkpt><trkpt lat="60.310593055556" lon="25.300975555556"><time>2015-10-31T08:22:40Z</time></trkpt><trkpt lat="60.31061" lon="25.301045555556"><time>2015-10-31T08:22:43Z</time></trkpt><trkpt lat="60.310569166667" lon="25.301148888889"><time>2015-10-31T08:22:47Z</time></trkpt><trkpt lat="60.310519444444" lon="25.301314722222"><time>2015-10-31T08:22:53Z</time></trkpt><trkpt lat="60.310506111111" lon="25.301341666667"><time>2015-10-31T08:22:54Z</time></trkpt><trkpt lat="60.310477777778" lon="25.301433333333"><time>2015-10-31T08:22:58Z</time></trkpt><trkpt lat="60.310433611111" lon="25.301551666667"><time>2015-10-31T08:23:02Z</time></trkpt><trkpt lat="60.310425" lon="25.301608888889"><time>2015-10-31T08:23:04Z</time></trkpt><trkpt lat="60.310426666667" lon="25.301736666667"><time>2015-10-31T08:23:07Z</time></trkpt><trkpt lat="60.310431944444" lon="25.301752777778"><time>2015-10-31T08:23:08Z</time></trkpt><trkpt lat="60.310420833333" lon="25.301835"><time>2015-10-31T08:23:11Z</time></trkpt><trkpt lat="60.310391111111" lon="25.301998333333"><time>2015-10-31T08:23:16Z</time></trkpt><trkpt lat="60.31035" lon="25.302120555556"><time>2015-10-31T08:23:20Z</time></trkpt><trkpt lat="60.310348333333" lon="25.302165833333"><time>2015-10-31T08:23:21Z</time></trkpt><trkpt lat="60.31033" lon="25.302214166667"><time>2015-10-31T08:23:22Z</time></trkpt><trkpt lat="60.310306666667" lon="25.302281944444"><time>2015-10-31T08:23:24Z</time></trkpt><trkpt lat="60.310247777778" lon="25.302433611111"><time>2015-10-31T08:23:29Z</time></trkpt><trkpt lat="60.310186388889" lon="25.302558888889"><time>2015-10-31T08:23:34Z</time></trkpt><trkpt lat="60.310180555556" lon="25.302595277778"><time>2015-10-31T08:23:35Z</time></trkpt><trkpt lat="60.310137222222" lon="25.302721388889"><time>2015-10-31T08:23:39Z</time></trkpt><trkpt lat="60.310079166667" lon="25.302826111111"><time>2015-10-31T08:23:44Z</time></trkpt><trkpt lat="60.310010833333" lon="25.303031111111"><time>2015-10-31T08:23:51Z</time></trkpt><trkpt lat="60.309981388889" lon="25.303120833333"><time>2015-10-31T08:23:54Z</time></trkpt><trkpt lat="60.309947777778" lon="25.3031675"><time>2015-10-31T08:23:56Z</time></trkpt><trkpt lat="60.309918888889" lon="25.303224166667"><time>2015-10-31T08:23:59Z</time></trkpt><trkpt lat="60.309903611111" lon="25.303281666667"><time>2015-10-31T08:24:01Z</time></trkpt><trkpt lat="60.309838333333" lon="25.303441388889"><time>2015-10-31T08:24:06Z</time></trkpt><trkpt lat="60.309753333333" lon="25.303618611111"><time>2015-10-31T08:24:12Z</time></trkpt><trkpt lat="60.309743333333" lon="25.303621111111"><time>2015-10-31T08:24:13Z</time></trkpt><trkpt lat="60.309713888889" lon="25.303678055556"><time>2015-10-31T08:24:17Z</time></trkpt><trkpt lat="60.309666388889" lon="25.303807222222"><time>2015-10-31T08:24:21Z</time></trkpt><trkpt lat="60.3095975" lon="25.303877222222"><time>2015-10-31T08:24:26Z</time></trkpt><trkpt lat="60.309593333333" lon="25.303909722222"><time>2015-10-31T08:24:27Z</time></trkpt><trkpt lat="60.309574444444" lon="25.303979166667"><time>2015-10-31T08:24:30Z</time></trkpt><trkpt lat="60.309534722222" lon="25.304102777778"><time>2015-10-31T08:24:33Z</time></trkpt><trkpt lat="60.30951" lon="25.304126666667"><time>2015-10-31T08:24:34Z</time></trkpt><trkpt lat="60.309449166667" lon="25.304179444444"><time>2015-10-31T08:24:38Z</time></trkpt><trkpt lat="60.309406666667" lon="25.304282222222"><time>2015-10-31T08:24:42Z</time></trkpt><trkpt lat="60.309394444444" lon="25.30432"><time>2015-10-31T08:24:43Z</time></trkpt><trkpt lat="60.309345833333" lon="25.304465555556"><time>2015-10-31T08:24:48Z</time></trkpt><trkpt lat="60.309316666667" lon="25.304504166667"><time>2015-10-31T08:24:51Z</time></trkpt><trkpt lat="60.309297777778" lon="25.304563055556"><time>2015-10-31T08:24:53Z</time></trkpt><trkpt lat="60.30928" lon="25.304686111111"><time>2015-10-31T08:24:57Z</time></trkpt><trkpt lat="60.309279166667" lon="25.304834166667"><time>2015-10-31T08:25:01Z</time></trkpt><trkpt lat="60.3092275" lon="25.304958611111"><time>2015-10-31T08:25:06Z</time></trkpt><trkpt lat="60.309163888889" lon="25.305052777778"><time>2015-10-31T08:25:12Z</time></trkpt><trkpt lat="60.3091225" lon="25.305144166667"><time>2015-10-31T08:25:18Z</time></trkpt><trkpt lat="60.309108611111" lon="25.305234444444"><time>2015-10-31T08:25:23Z</time></trkpt><trkpt lat="60.309107222222" lon="25.305246111111"><time>2015-10-31T08:25:24Z</time></trkpt><trkpt lat="60.309100833333" lon="25.305256388889"><time>2015-10-31T08:25:25Z</time></trkpt><trkpt lat="60.309091666667" lon="25.305299166667"><time>2015-10-31T08:25:28Z</time></trkpt><trkpt lat="60.309085277778" lon="25.305346666667"><time>2015-10-31T08:25:30Z</time></trkpt><trkpt lat="60.309064444444" lon="25.305435555556"><time>2015-10-31T08:25:33Z</time></trkpt><trkpt lat="60.309044444444" lon="25.305485833333"><time>2015-10-31T08:25:36Z</time></trkpt><trkpt lat="60.309046944444" lon="25.305519444444"><time>2015-10-31T08:25:37Z</time></trkpt><trkpt lat="60.309025" lon="25.305605833333"><time>2015-10-31T08:25:40Z</time></trkpt><trkpt lat="60.309026388889" lon="25.305636666667"><time>2015-10-31T08:25:42Z</time></trkpt><trkpt lat="60.309019166667" lon="25.305691388889"><time>2015-10-31T08:25:44Z</time></trkpt><trkpt lat="60.309001666667" lon="25.30576"><time>2015-10-31T08:25:48Z</time></trkpt><trkpt lat="60.308997777778" lon="25.305781111111"><time>2015-10-31T08:25:49Z</time></trkpt><trkpt lat="60.309000833333" lon="25.305810277778"><time>2015-10-31T08:25:50Z</time></trkpt><trkpt lat="60.308988611111" lon="25.305935277778"><time>2015-10-31T08:25:54Z</time></trkpt><trkpt lat="60.308978333333" lon="25.305961388889"><time>2015-10-31T08:25:56Z</time></trkpt><trkpt lat="60.308976111111" lon="25.305978333333"><time>2015-10-31T08:25:57Z</time></trkpt><trkpt lat="60.30896" lon="25.305997777778"><time>2015-10-31T08:25:59Z</time></trkpt><trkpt lat="60.308954722222" lon="25.306015"><time>2015-10-31T08:26:00Z</time></trkpt><trkpt lat="60.308914166667" lon="25.306110277778"><time>2015-10-31T08:26:05Z</time></trkpt><trkpt lat="60.308896111111" lon="25.30616"><time>2015-10-31T08:26:08Z</time></trkpt><trkpt lat="60.308887777778" lon="25.306193055556"><time>2015-10-31T08:26:09Z</time></trkpt><trkpt lat="60.308870277778" lon="25.306224444444"><time>2015-10-31T08:26:11Z</time></trkpt><trkpt lat="60.308847222222" lon="25.306298611111"><time>2015-10-31T08:26:14Z</time></trkpt><trkpt lat="60.3088125" lon="25.306398333333"><time>2015-10-31T08:26:18Z</time></trkpt><trkpt lat="60.308807777778" lon="25.306406666667"><time>2015-10-31T08:26:19Z</time></trkpt><trkpt lat="60.308794722222" lon="25.306413888889"><time>2015-10-31T08:26:20Z</time></trkpt><trkpt lat="60.308774722222" lon="25.306436666667"><time>2015-10-31T08:26:22Z</time></trkpt><trkpt lat="60.308744166667" lon="25.306536388889"><time>2015-10-31T08:26:25Z</time></trkpt><trkpt lat="60.308733611111" lon="25.306557222222"><time>2015-10-31T08:26:26Z</time></trkpt><trkpt lat="60.308700277778" lon="25.306610555556"><time>2015-10-31T08:26:29Z</time></trkpt><trkpt lat="60.308682777778" lon="25.306605555556"><time>2015-10-31T08:26:30Z</time></trkpt><trkpt lat="60.308633611111" lon="25.306658333333"><time>2015-10-31T08:26:34Z</time></trkpt><trkpt lat="60.308575277778" lon="25.306718611111"><time>2015-10-31T08:26:38Z</time></trkpt><trkpt lat="60.308462777778" lon="25.306843333333"><time>2015-10-31T08:26:44Z</time></trkpt><trkpt lat="60.308431111111" lon="25.306899722222"><time>2015-10-31T08:26:47Z</time></trkpt><trkpt lat="60.308413055556" lon="25.306921666667"><time>2015-10-31T08:26:48Z</time></trkpt><trkpt lat="60.308342222222" lon="25.307076388889"><time>2015-10-31T08:26:54Z</time></trkpt><trkpt lat="60.308337222222" lon="25.307095555556"><time>2015-10-31T08:26:55Z</time></trkpt><trkpt lat="60.30832" lon="25.307144444444"><time>2015-10-31T08:26:57Z</time></trkpt><trkpt lat="60.308319722222" lon="25.3072075"><time>2015-10-31T08:26:59Z</time></trkpt><trkpt lat="60.308306388889" lon="25.307380833333"><time>2015-10-31T08:27:04Z</time></trkpt><trkpt lat="60.308248611111" lon="25.3075275"><time>2015-10-31T08:27:08Z</time></trkpt><trkpt lat="60.308177777778" lon="25.307675555556"><time>2015-10-31T08:27:12Z</time></trkpt><trkpt lat="60.308163333333" lon="25.307702222222"><time>2015-10-31T08:27:13Z</time></trkpt><trkpt lat="60.308128333333" lon="25.307814722222"><time>2015-10-31T08:27:17Z</time></trkpt><trkpt lat="60.308078611111" lon="25.307955833333"><time>2015-10-31T08:27:21Z</time></trkpt><trkpt lat="60.308065" lon="25.307991944444"><time>2015-10-31T08:27:22Z</time></trkpt><trkpt lat="60.308026666667" lon="25.308123055556"><time>2015-10-31T08:27:25Z</time></trkpt><trkpt lat="60.308003611111" lon="25.308176111111"><time>2015-10-31T08:27:26Z</time></trkpt><trkpt lat="60.307971944444" lon="25.308341111111"><time>2015-10-31T08:27:30Z</time></trkpt><trkpt lat="60.307975" lon="25.308373888889"><time>2015-10-31T08:27:31Z</time></trkpt><trkpt lat="60.307980555556" lon="25.308442777778"><time>2015-10-31T08:27:34Z</time></trkpt><trkpt lat="60.307995" lon="25.308461388889"><time>2015-10-31T08:27:35Z</time></trkpt><trkpt lat="60.308017777778" lon="25.308541666667"><time>2015-10-31T08:27:38Z</time></trkpt><trkpt lat="60.308035555556" lon="25.308703333333"><time>2015-10-31T08:27:43Z</time></trkpt><trkpt lat="60.308059722222" lon="25.308800833333"><time>2015-10-31T08:27:46Z</time></trkpt><trkpt lat="60.308080555556" lon="25.308837777778"><time>2015-10-31T08:27:48Z</time></trkpt><trkpt lat="60.308080277778" lon="25.308857777778"><time>2015-10-31T08:27:49Z</time></trkpt><trkpt lat="60.308110277778" lon="25.308920277778"><time>2015-10-31T08:27:52Z</time></trkpt><trkpt lat="60.3081125" lon="25.309008333333"><time>2015-10-31T08:27:56Z</time></trkpt><trkpt lat="60.308113055556" lon="25.309153888889"><time>2015-10-31T08:28:01Z</time></trkpt><trkpt lat="60.308115833333" lon="25.309161388889"><time>2015-10-31T08:28:02Z</time></trkpt><trkpt lat="60.308091666667" lon="25.309278888889"><time>2015-10-31T08:28:05Z</time></trkpt><trkpt lat="60.308097222222" lon="25.309329722222"><time>2015-10-31T08:28:06Z</time></trkpt><trkpt lat="60.308097777778" lon="25.309440277778"><time>2015-10-31T08:28:09Z</time></trkpt><trkpt lat="60.308119722222" lon="25.309544444444"><time>2015-10-31T08:28:11Z</time></trkpt><trkpt lat="60.308126111111" lon="25.3095825"><time>2015-10-31T08:28:12Z</time></trkpt><trkpt lat="60.308181666667" lon="25.309730555556"><time>2015-10-31T08:28:17Z</time></trkpt><trkpt lat="60.308166666667" lon="25.3098475"><time>2015-10-31T08:28:21Z</time></trkpt><trkpt lat="60.308150277778" lon="25.309964166667"><time>2015-10-31T08:28:25Z</time></trkpt><trkpt lat="60.308170833333" lon="25.310080833333"><time>2015-10-31T08:28:31Z</time></trkpt><trkpt lat="60.308163888889" lon="25.310096111111"><time>2015-10-31T08:28:32Z</time></trkpt><trkpt lat="60.308131666667" lon="25.310188888889"><time>2015-10-31T08:28:36Z</time></trkpt><trkpt lat="60.308117777778" lon="25.310261111111"><time>2015-10-31T08:28:38Z</time></trkpt><trkpt lat="60.3081025" lon="25.310350833333"><time>2015-10-31T08:28:41Z</time></trkpt><trkpt lat="60.308100833333" lon="25.310448888889"><time>2015-10-31T08:28:46Z</time></trkpt><trkpt lat="60.308145555556" lon="25.310631944444"><time>2015-10-31T08:28:50Z</time></trkpt><trkpt lat="60.308215833333" lon="25.3107675"><time>2015-10-31T08:28:54Z</time></trkpt><trkpt lat="60.308246666667" lon="25.310861388889"><time>2015-10-31T08:28:56Z</time></trkpt><trkpt lat="60.308306111111" lon="25.3110275"><time>2015-10-31T08:29:00Z</time></trkpt><trkpt lat="60.3084025" lon="25.311279722222"><time>2015-10-31T08:29:06Z</time></trkpt><trkpt lat="60.308489444444" lon="25.311490277778"><time>2015-10-31T08:29:11Z</time></trkpt><trkpt lat="60.308545277778" lon="25.311622777778"><time>2015-10-31T08:29:15Z</time></trkpt><trkpt lat="60.308560833333" lon="25.311643611111"><time>2015-10-31T08:29:16Z</time></trkpt><trkpt lat="60.308563055556" lon="25.311643611111"><time>2015-10-31T08:29:17Z</time></trkpt><trkpt lat="60.308627777778" lon="25.311622222222"><time>2015-10-31T08:29:20Z</time></trkpt><trkpt lat="60.308701666667" lon="25.311651111111"><time>2015-10-31T08:29:24Z</time></trkpt><trkpt lat="60.308820833333" lon="25.311667222222"><time>2015-10-31T08:29:30Z</time></trkpt><trkpt lat="60.308921388889" lon="25.311685277778"><time>2015-10-31T08:29:36Z</time></trkpt><trkpt lat="60.309004166667" lon="25.311689444444"><time>2015-10-31T08:29:40Z</time></trkpt><trkpt lat="60.309060277778" lon="25.311681388889"><time>2015-10-31T08:29:43Z</time></trkpt><trkpt lat="60.309077777778" lon="25.311698888889"><time>2015-10-31T08:29:44Z</time></trkpt><trkpt lat="60.309093611111" lon="25.311702222222"><time>2015-10-31T08:29:45Z</time></trkpt><trkpt lat="60.309198333333" lon="25.311716388889"><time>2015-10-31T08:29:50Z</time></trkpt><trkpt lat="60.309272222222" lon="25.311695277778"><time>2015-10-31T08:29:54Z</time></trkpt><trkpt lat="60.309368888889" lon="25.311648611111"><time>2015-10-31T08:29:59Z</time></trkpt><trkpt lat="60.309474722222" lon="25.311580833333"><time>2015-10-31T08:30:05Z</time></trkpt><trkpt lat="60.3095525" lon="25.311576111111"><time>2015-10-31T08:30:09Z</time></trkpt><trkpt lat="60.309673333333" lon="25.311604722222"><time>2015-10-31T08:30:16Z</time></trkpt><trkpt lat="60.309685" lon="25.311580555556"><time>2015-10-31T08:30:17Z</time></trkpt><trkpt lat="60.309725833333" lon="25.311557777778"><time>2015-10-31T08:30:19Z</time></trkpt><trkpt lat="60.309784722222" lon="25.311611388889"><time>2015-10-31T08:30:22Z</time></trkpt><trkpt lat="60.309882777778" lon="25.311717777778"><time>2015-10-31T08:30:28Z</time></trkpt><trkpt lat="60.309893888889" lon="25.311731111111"><time>2015-10-31T08:30:29Z</time></trkpt><trkpt lat="60.309938611111" lon="25.311762222222"><time>2015-10-31T08:30:32Z</time></trkpt><trkpt lat="60.3100275" lon="25.311698611111"><time>2015-10-31T08:30:36Z</time></trkpt><trkpt lat="60.310083333333" lon="25.31165"><time>2015-10-31T08:30:39Z</time></trkpt><trkpt lat="60.310101666667" lon="25.311644444444"><time>2015-10-31T08:30:40Z</time></trkpt><trkpt lat="60.310146388889" lon="25.31165"><time>2015-10-31T08:30:42Z</time></trkpt><trkpt lat="60.3102025" lon="25.311667777778"><time>2015-10-31T08:30:45Z</time></trkpt><trkpt lat="60.310262222222" lon="25.311731388889"><time>2015-10-31T08:30:48Z</time></trkpt><trkpt lat="60.310286111111" lon="25.311736388889"><time>2015-10-31T08:30:49Z</time></trkpt><trkpt lat="60.310395833333" lon="25.311749722222"><time>2015-10-31T08:30:54Z</time></trkpt><trkpt lat="60.310487777778" lon="25.311783611111"><time>2015-10-31T08:31:00Z</time></trkpt><trkpt lat="60.310586388889" lon="25.311806111111"><time>2015-10-31T08:31:04Z</time></trkpt><trkpt lat="60.3106025" lon="25.3118025"><time>2015-10-31T08:31:05Z</time></trkpt><trkpt lat="60.310639166667" lon="25.311824166667"><time>2015-10-31T08:31:07Z</time></trkpt><trkpt lat="60.310673611111" lon="25.311840833333"><time>2015-10-31T08:31:09Z</time></trkpt><trkpt lat="60.310744722222" lon="25.311889166667"><time>2015-10-31T08:31:13Z</time></trkpt><trkpt lat="60.310809722222" lon="25.31186"><time>2015-10-31T08:31:16Z</time></trkpt><trkpt lat="60.310836666667" lon="25.311870555556"><time>2015-10-31T08:31:17Z</time></trkpt><trkpt lat="60.310906666667" lon="25.311862222222"><time>2015-10-31T08:31:20Z</time></trkpt><trkpt lat="60.310951111111" lon="25.311859722222"><time>2015-10-31T08:31:22Z</time></trkpt><trkpt lat="60.311029166667" lon="25.311853611111"><time>2015-10-31T08:31:26Z</time></trkpt><trkpt lat="60.311072222222" lon="25.311853611111"><time>2015-10-31T08:31:28Z</time></trkpt><trkpt lat="60.311148055556" lon="25.311882777778"><time>2015-10-31T08:31:33Z</time></trkpt><trkpt lat="60.311178888889" lon="25.311920555556"><time>2015-10-31T08:31:35Z</time></trkpt><trkpt lat="60.311193888889" lon="25.311920277778"><time>2015-10-31T08:31:36Z</time></trkpt><trkpt lat="60.311290277778" lon="25.311959444444"><time>2015-10-31T08:31:41Z</time></trkpt><trkpt lat="60.311343055556" lon="25.311981388889"><time>2015-10-31T08:31:44Z</time></trkpt><trkpt lat="60.311360277778" lon="25.311991111111"><time>2015-10-31T08:31:45Z</time></trkpt><trkpt lat="60.311442222222" lon="25.312072777778"><time>2015-10-31T08:31:51Z</time></trkpt><trkpt lat="60.311508055556" lon="25.312115"><time>2015-10-31T08:31:55Z</time></trkpt><trkpt lat="60.311538333333" lon="25.312095833333"><time>2015-10-31T08:31:56Z</time></trkpt><trkpt lat="60.3115825" lon="25.312047777778"><time>2015-10-31T08:31:59Z</time></trkpt><trkpt lat="60.311598611111" lon="25.312046111111"><time>2015-10-31T08:32:00Z</time></trkpt><trkpt lat="60.311606111111" lon="25.311994722222"><time>2015-10-31T08:32:01Z</time></trkpt><trkpt lat="60.311674444444" lon="25.311972777778"><time>2015-10-31T08:32:04Z</time></trkpt><trkpt lat="60.311758333333" lon="25.311937777778"><time>2015-10-31T08:32:09Z</time></trkpt><trkpt lat="60.311881666667" lon="25.311888333333"><time>2015-10-31T08:32:15Z</time></trkpt><trkpt lat="60.312001111111" lon="25.311826111111"><time>2015-10-31T08:32:21Z</time></trkpt><trkpt lat="60.3120975" lon="25.311790555556"><time>2015-10-31T08:32:26Z</time></trkpt><trkpt lat="60.312125833333" lon="25.311796388889"><time>2015-10-31T08:32:28Z</time></trkpt><trkpt lat="60.312171111111" lon="25.311793611111"><time>2015-10-31T08:32:31Z</time></trkpt><trkpt lat="60.312220277778" lon="25.311723333333"><time>2015-10-31T08:32:34Z</time></trkpt><trkpt lat="60.312240277778" lon="25.31171"><time>2015-10-31T08:32:35Z</time></trkpt><trkpt lat="60.312342777778" lon="25.311667777778"><time>2015-10-31T08:32:40Z</time></trkpt><trkpt lat="60.312368888889" lon="25.311645"><time>2015-10-31T08:32:41Z</time></trkpt><trkpt lat="60.312475833333" lon="25.311532777778"><time>2015-10-31T08:32:46Z</time></trkpt><trkpt lat="60.312506388889" lon="25.311491111111"><time>2015-10-31T08:32:48Z</time></trkpt><trkpt lat="60.312537777778" lon="25.311411388889"><time>2015-10-31T08:32:51Z</time></trkpt><trkpt lat="60.312545" lon="25.311358888889"><time>2015-10-31T08:32:53Z</time></trkpt><trkpt lat="60.312563055556" lon="25.311301111111"><time>2015-10-31T08:32:55Z</time></trkpt><trkpt lat="60.312637222222" lon="25.311146944444"><time>2015-10-31T08:33:00Z</time></trkpt><trkpt lat="60.3126625" lon="25.311195277778"><time>2015-10-31T08:33:01Z</time></trkpt><trkpt lat="60.312685277778" lon="25.311171944444"><time>2015-10-31T08:33:03Z</time></trkpt><trkpt lat="60.312703333333" lon="25.311165277778"><time>2015-10-31T08:33:06Z</time></trkpt><trkpt lat="60.3127125" lon="25.31117"><time>2015-10-31T08:33:07Z</time></trkpt><trkpt lat="60.312723611111" lon="25.311180833333"><time>2015-10-31T08:33:08Z</time></trkpt><trkpt lat="60.312814166667" lon="25.311266944444"><time>2015-10-31T08:33:14Z</time></trkpt><trkpt lat="60.312871388889" lon="25.311291388889"><time>2015-10-31T08:33:17Z</time></trkpt><trkpt lat="60.312890555556" lon="25.311286111111"><time>2015-10-31T08:33:19Z</time></trkpt><trkpt lat="60.312960555556" lon="25.311273888889"><time>2015-10-31T08:33:23Z</time></trkpt><trkpt lat="60.312995" lon="25.311370555556"><time>2015-10-31T08:33:26Z</time></trkpt><trkpt lat="60.313050555556" lon="25.311407222222"><time>2015-10-31T08:33:29Z</time></trkpt><trkpt lat="60.313089722222" lon="25.311442222222"><time>2015-10-31T08:33:31Z</time></trkpt><trkpt lat="60.313168055556" lon="25.311589722222"><time>2015-10-31T08:33:36Z</time></trkpt><trkpt lat="60.313249166667" lon="25.311697222222"><time>2015-10-31T08:33:42Z</time></trkpt><trkpt lat="60.313268888889" lon="25.311695833333"><time>2015-10-31T08:33:43Z</time></trkpt><trkpt lat="60.313315277778" lon="25.3117375"><time>2015-10-31T08:33:47Z</time></trkpt><trkpt lat="60.313361944444" lon="25.311833333333"><time>2015-10-31T08:33:52Z</time></trkpt><trkpt lat="60.313426111111" lon="25.311899722222"><time>2015-10-31T08:33:56Z</time></trkpt><trkpt lat="60.313435" lon="25.31191"><time>2015-10-31T08:33:57Z</time></trkpt><trkpt lat="60.313435" lon="25.31191"><time>2015-10-31T08:33:57Z</time></trkpt><trkpt lat="60.313480833333" lon="25.311919166667"><time>2015-10-31T08:34:00Z</time></trkpt><trkpt lat="60.3135425" lon="25.311907222222"><time>2015-10-31T08:34:03Z</time></trkpt><trkpt lat="60.313596944444" lon="25.311991388889"><time>2015-10-31T08:34:07Z</time></trkpt><trkpt lat="60.313610555556" lon="25.312011666667"><time>2015-10-31T08:34:08Z</time></trkpt><trkpt lat="60.313701944444" lon="25.312061944444"><time>2015-10-31T08:34:13Z</time></trkpt><trkpt lat="60.313766666667" lon="25.312044166667"><time>2015-10-31T08:34:17Z</time></trkpt><trkpt lat="60.313790277778" lon="25.312049722222"><time>2015-10-31T08:34:18Z</time></trkpt><trkpt lat="60.3139025" lon="25.312115833333"><time>2015-10-31T08:34:24Z</time></trkpt><trkpt lat="60.313955833333" lon="25.312236944444"><time>2015-10-31T08:34:28Z</time></trkpt><trkpt lat="60.313982222222" lon="25.3122925"><time>2015-10-31T08:34:30Z</time></trkpt><trkpt lat="60.313994722222" lon="25.3123525"><time>2015-10-31T08:34:32Z</time></trkpt><trkpt lat="60.314065" lon="25.312448055556"><time>2015-10-31T08:34:37Z</time></trkpt><trkpt lat="60.314095277778" lon="25.312493055556"><time>2015-10-31T08:34:39Z</time></trkpt><trkpt lat="60.314139722222" lon="25.312502777778"><time>2015-10-31T08:34:42Z</time></trkpt><trkpt lat="60.314151111111" lon="25.312493055556"><time>2015-10-31T08:34:43Z</time></trkpt><trkpt lat="60.314215833333" lon="25.312560833333"><time>2015-10-31T08:34:47Z</time></trkpt><trkpt lat="60.314252222222" lon="25.312692777778"><time>2015-10-31T08:34:51Z</time></trkpt><trkpt lat="60.314266944444" lon="25.312709166667"><time>2015-10-31T08:34:52Z</time></trkpt><trkpt lat="60.314286666667" lon="25.3127925"><time>2015-10-31T08:34:56Z</time></trkpt><trkpt lat="60.314303333333" lon="25.312810277778"><time>2015-10-31T08:34:57Z</time></trkpt><trkpt lat="60.314335277778" lon="25.312814166667"><time>2015-10-31T08:35:00Z</time></trkpt><trkpt lat="60.314376111111" lon="25.312774166667"><time>2015-10-31T08:35:06Z</time></trkpt><trkpt lat="60.31438" lon="25.312684444444"><time>2015-10-31T08:35:12Z</time></trkpt><trkpt lat="60.314421666667" lon="25.31258"><time>2015-10-31T08:35:20Z</time></trkpt><trkpt lat="60.314461388889" lon="25.312501388889"><time>2015-10-31T08:35:27Z</time></trkpt><trkpt lat="60.314466944444" lon="25.312481388889"><time>2015-10-31T08:35:28Z</time></trkpt><trkpt lat="60.314483888889" lon="25.312438055556"><time>2015-10-31T08:35:31Z</time></trkpt><trkpt lat="60.3145075" lon="25.312365"><time>2015-10-31T08:35:35Z</time></trkpt><trkpt lat="60.314521388889" lon="25.312295277778"><time>2015-10-31T08:35:37Z</time></trkpt><trkpt lat="60.314543888889" lon="25.312219166667"><time>2015-10-31T08:35:39Z</time></trkpt><trkpt lat="60.314611111111" lon="25.312123611111"><time>2015-10-31T08:35:45Z</time></trkpt><trkpt lat="60.314703333333" lon="25.312069444444"><time>2015-10-31T08:35:50Z</time></trkpt><trkpt lat="60.314720555556" lon="25.312045555556"><time>2015-10-31T08:35:51Z</time></trkpt><trkpt lat="60.314781111111" lon="25.311935833333"><time>2015-10-31T08:35:56Z</time></trkpt><trkpt lat="60.314822777778" lon="25.311763333333"><time>2015-10-31T08:36:02Z</time></trkpt><trkpt lat="60.314823055556" lon="25.311724722222"><time>2015-10-31T08:36:03Z</time></trkpt><trkpt lat="60.314838333333" lon="25.311588611111"><time>2015-10-31T08:36:06Z</time></trkpt><trkpt lat="60.314896388889" lon="25.311455833333"><time>2015-10-31T08:36:11Z</time></trkpt><trkpt lat="60.314927777778" lon="25.311340555556"><time>2015-10-31T08:36:15Z</time></trkpt><trkpt lat="60.314947222222" lon="25.311290833333"><time>2015-10-31T08:36:17Z</time></trkpt><trkpt lat="60.315017777778" lon="25.311083888889"><time>2015-10-31T08:36:23Z</time></trkpt><trkpt lat="60.315042222222" lon="25.311028055556"><time>2015-10-31T08:36:25Z</time></trkpt><trkpt lat="60.315060833333" lon="25.310914444444"><time>2015-10-31T08:36:28Z</time></trkpt><trkpt lat="60.315061666667" lon="25.310833888889"><time>2015-10-31T08:36:30Z</time></trkpt><trkpt lat="60.315085" lon="25.310781388889"><time>2015-10-31T08:36:32Z</time></trkpt><trkpt lat="60.3150925" lon="25.310765"><time>2015-10-31T08:36:33Z</time></trkpt><trkpt lat="60.315150555556" lon="25.310732777778"><time>2015-10-31T08:36:36Z</time></trkpt><trkpt lat="60.315183055556" lon="25.310693333333"><time>2015-10-31T08:36:38Z</time></trkpt><trkpt lat="60.3151925" lon="25.310666666667"><time>2015-10-31T08:36:39Z</time></trkpt><trkpt lat="60.315224166667" lon="25.310606666667"><time>2015-10-31T08:36:42Z</time></trkpt><trkpt lat="60.31524" lon="25.310576111111"><time>2015-10-31T08:36:44Z</time></trkpt><trkpt lat="60.315254722222" lon="25.310535555556"><time>2015-10-31T08:36:47Z</time></trkpt><trkpt lat="60.31525" lon="25.310506944444"><time>2015-10-31T08:36:49Z</time></trkpt><trkpt lat="60.315218055556" lon="25.310343888889"><time>2015-10-31T08:36:54Z</time></trkpt><trkpt lat="60.315238611111" lon="25.31024"><time>2015-10-31T08:36:58Z</time></trkpt><trkpt lat="60.31524" lon="25.310196666667"><time>2015-10-31T08:36:59Z</time></trkpt><trkpt lat="60.315243611111" lon="25.310075555556"><time>2015-10-31T08:37:02Z</time></trkpt><trkpt lat="60.315243333333" lon="25.309988333333"><time>2015-10-31T08:37:04Z</time></trkpt><trkpt lat="60.315253888889" lon="25.309875833333"><time>2015-10-31T08:37:07Z</time></trkpt><trkpt lat="60.315258611111" lon="25.309814722222"><time>2015-10-31T08:37:09Z</time></trkpt><trkpt lat="60.3153075" lon="25.309745277778"><time>2015-10-31T08:37:12Z</time></trkpt><trkpt lat="60.315315277778" lon="25.30972"><time>2015-10-31T08:37:13Z</time></trkpt><trkpt lat="60.3153575" lon="25.309540277778"><time>2015-10-31T08:37:18Z</time></trkpt><trkpt lat="60.315361666667" lon="25.309505"><time>2015-10-31T08:37:19Z</time></trkpt><trkpt lat="60.315371111111" lon="25.309333611111"><time>2015-10-31T08:37:23Z</time></trkpt><trkpt lat="60.315429166667" lon="25.309132777778"><time>2015-10-31T08:37:29Z</time></trkpt><trkpt lat="60.315445555556" lon="25.309067777778"><time>2015-10-31T08:37:32Z</time></trkpt><trkpt lat="60.315448888889" lon="25.309045"><time>2015-10-31T08:37:33Z</time></trkpt><trkpt lat="60.315459722222" lon="25.308962222222"><time>2015-10-31T08:37:37Z</time></trkpt><trkpt lat="60.3154725" lon="25.308934166667"><time>2015-10-31T08:37:39Z</time></trkpt><trkpt lat="60.315479166667" lon="25.308915"><time>2015-10-31T08:37:40Z</time></trkpt><trkpt lat="60.315488611111" lon="25.308870277778"><time>2015-10-31T08:37:42Z</time></trkpt><trkpt lat="60.315484722222" lon="25.308745277778"><time>2015-10-31T08:37:46Z</time></trkpt><trkpt lat="60.315488333333" lon="25.308707222222"><time>2015-10-31T08:37:47Z</time></trkpt><trkpt lat="60.315486111111" lon="25.308595"><time>2015-10-31T08:37:50Z</time></trkpt><trkpt lat="60.315498055556" lon="25.308587777778"><time>2015-10-31T08:37:51Z</time></trkpt><trkpt lat="60.315531388889" lon="25.308516944444"><time>2015-10-31T08:37:53Z</time></trkpt><trkpt lat="60.315564722222" lon="25.308446944444"><time>2015-10-31T08:37:56Z</time></trkpt><trkpt lat="60.315578333333" lon="25.308399166667"><time>2015-10-31T08:37:57Z</time></trkpt><trkpt lat="60.315591666667" lon="25.308363055556"><time>2015-10-31T08:37:59Z</time></trkpt><trkpt lat="60.315620277778" lon="25.308328055556"><time>2015-10-31T08:38:02Z</time></trkpt><trkpt lat="60.315624444444" lon="25.308288055556"><time>2015-10-31T08:38:03Z</time></trkpt><trkpt lat="60.315623333333" lon="25.308246388889"><time>2015-10-31T08:38:05Z</time></trkpt><trkpt lat="60.315624166667" lon="25.308236388889"><time>2015-10-31T08:38:06Z</time></trkpt><trkpt lat="60.315641944444" lon="25.30806"><time>2015-10-31T08:38:12Z</time></trkpt><trkpt lat="60.315648888889" lon="25.308035"><time>2015-10-31T08:38:13Z</time></trkpt><trkpt lat="60.315692222222" lon="25.307936388889"><time>2015-10-31T08:38:17Z</time></trkpt><trkpt lat="60.315704722222" lon="25.307918611111"><time>2015-10-31T08:38:18Z</time></trkpt><trkpt lat="60.315744722222" lon="25.30789"><time>2015-10-31T08:38:21Z</time></trkpt><trkpt lat="60.315765" lon="25.307855833333"><time>2015-10-31T08:38:22Z</time></trkpt><trkpt lat="60.315800277778" lon="25.307834722222"><time>2015-10-31T08:38:24Z</time></trkpt><trkpt lat="60.315828055556" lon="25.307829166667"><time>2015-10-31T08:38:26Z</time></trkpt><trkpt lat="60.315839444444" lon="25.307780833333"><time>2015-10-31T08:38:27Z</time></trkpt><trkpt lat="60.315841111111" lon="25.30774"><time>2015-10-31T08:38:28Z</time></trkpt><trkpt lat="60.315840555556" lon="25.307583333333"><time>2015-10-31T08:38:32Z</time></trkpt><trkpt lat="60.315844166667" lon="25.307546388889"><time>2015-10-31T08:38:33Z</time></trkpt><trkpt lat="60.315853055556" lon="25.307430833333"><time>2015-10-31T08:38:36Z</time></trkpt><trkpt lat="60.315863611111" lon="25.307346111111"><time>2015-10-31T08:38:38Z</time></trkpt><trkpt lat="60.315873611111" lon="25.307156111111"><time>2015-10-31T08:38:44Z</time></trkpt><trkpt lat="60.315882777778" lon="25.306989444444"><time>2015-10-31T08:38:48Z</time></trkpt><trkpt lat="60.315884166667" lon="25.306966944444"><time>2015-10-31T08:38:49Z</time></trkpt><trkpt lat="60.315861666667" lon="25.306807222222"><time>2015-10-31T08:38:55Z</time></trkpt><trkpt lat="60.315863055556" lon="25.3067925"><time>2015-10-31T08:38:56Z</time></trkpt><trkpt lat="60.315861111111" lon="25.30671"><time>2015-10-31T08:39:00Z</time></trkpt><trkpt lat="60.315845277778" lon="25.306665833333"><time>2015-10-31T08:39:02Z</time></trkpt><trkpt lat="60.3158275" lon="25.306612777778"><time>2015-10-31T08:39:04Z</time></trkpt><trkpt lat="60.315813611111" lon="25.306585555556"><time>2015-10-31T08:39:05Z</time></trkpt><trkpt lat="60.315796666667" lon="25.306513611111"><time>2015-10-31T08:39:07Z</time></trkpt><trkpt lat="60.315811111111" lon="25.306420277778"><time>2015-10-31T08:39:10Z</time></trkpt><trkpt lat="60.315823888889" lon="25.306356111111"><time>2015-10-31T08:39:12Z</time></trkpt><trkpt lat="60.315815277778" lon="25.306270277778"><time>2015-10-31T08:39:15Z</time></trkpt><trkpt lat="60.315809166667" lon="25.306186666667"><time>2015-10-31T08:39:17Z</time></trkpt><trkpt lat="60.315815" lon="25.3061"><time>2015-10-31T08:39:20Z</time></trkpt><trkpt lat="60.315820833333" lon="25.306083333333"><time>2015-10-31T08:39:21Z</time></trkpt><trkpt lat="60.315865" lon="25.305948888889"><time>2015-10-31T08:39:26Z</time></trkpt><trkpt lat="60.315870277778" lon="25.305917777778"><time>2015-10-31T08:39:27Z</time></trkpt><trkpt lat="60.315887222222" lon="25.305849722222"><time>2015-10-31T08:39:30Z</time></trkpt><trkpt lat="60.315907222222" lon="25.305725833333"><time>2015-10-31T08:39:35Z</time></trkpt><trkpt lat="60.315920555556" lon="25.305647777778"><time>2015-10-31T08:39:38Z</time></trkpt><trkpt lat="60.315929166667" lon="25.305594722222"><time>2015-10-31T08:39:40Z</time></trkpt><trkpt lat="60.315945" lon="25.305536388889"><time>2015-10-31T08:39:42Z</time></trkpt><trkpt lat="60.315954444444" lon="25.305497222222"><time>2015-10-31T08:39:44Z</time></trkpt><trkpt lat="60.315965" lon="25.305462777778"><time>2015-10-31T08:39:46Z</time></trkpt><trkpt lat="60.315979444444" lon="25.305418611111"><time>2015-10-31T08:39:48Z</time></trkpt><trkpt lat="60.316" lon="25.305336666667"><time>2015-10-31T08:39:52Z</time></trkpt><trkpt lat="60.316036111111" lon="25.305228333333"><time>2015-10-31T08:39:57Z</time></trkpt><trkpt lat="60.316053888889" lon="25.305139722222"><time>2015-10-31T08:40:01Z</time></trkpt><trkpt lat="60.316055" lon="25.305035833333"><time>2015-10-31T08:40:04Z</time></trkpt><trkpt lat="60.316058055556" lon="25.304928611111"><time>2015-10-31T08:40:08Z</time></trkpt><trkpt lat="60.316059722222" lon="25.304838611111"><time>2015-10-31T08:40:12Z</time></trkpt><trkpt lat="60.316064166667" lon="25.304823333333"><time>2015-10-31T08:40:13Z</time></trkpt><trkpt lat="60.316068888889" lon="25.304805"><time>2015-10-31T08:40:14Z</time></trkpt><trkpt lat="60.31605" lon="25.304686666667"><time>2015-10-31T08:40:18Z</time></trkpt><trkpt lat="60.316041944444" lon="25.304659166667"><time>2015-10-31T08:40:19Z</time></trkpt><trkpt lat="60.316033611111" lon="25.304608888889"><time>2015-10-31T08:40:21Z</time></trkpt><trkpt lat="60.316033888889" lon="25.304543333333"><time>2015-10-31T08:40:23Z</time></trkpt><trkpt lat="60.316063055556" lon="25.3043475"><time>2015-10-31T08:40:30Z</time></trkpt><trkpt lat="60.316118333333" lon="25.304184444444"><time>2015-10-31T08:40:36Z</time></trkpt><trkpt lat="60.316128611111" lon="25.304161388889"><time>2015-10-31T08:40:37Z</time></trkpt><trkpt lat="60.3161575" lon="25.30406"><time>2015-10-31T08:40:41Z</time></trkpt><trkpt lat="60.316174722222" lon="25.304016111111"><time>2015-10-31T08:40:43Z</time></trkpt><trkpt lat="60.316238055556" lon="25.303821666667"><time>2015-10-31T08:40:51Z</time></trkpt><trkpt lat="60.31628" lon="25.303790833333"><time>2015-10-31T08:40:55Z</time></trkpt><trkpt lat="60.316294722222" lon="25.303706388889"><time>2015-10-31T08:40:58Z</time></trkpt><trkpt lat="60.316300833333" lon="25.30366"><time>2015-10-31T08:40:59Z</time></trkpt><trkpt lat="60.31632" lon="25.303548888889"><time>2015-10-31T08:41:03Z</time></trkpt><trkpt lat="60.316320277778" lon="25.303493333333"><time>2015-10-31T08:41:05Z</time></trkpt><trkpt lat="60.316343055556" lon="25.303415555556"><time>2015-10-31T08:41:08Z</time></trkpt><trkpt lat="60.316347777778" lon="25.303393333333"><time>2015-10-31T08:41:09Z</time></trkpt><trkpt lat="60.316359444444" lon="25.303328611111"><time>2015-10-31T08:41:11Z</time></trkpt><trkpt lat="60.316371111111" lon="25.303252777778"><time>2015-10-31T08:41:13Z</time></trkpt><trkpt lat="60.316379722222" lon="25.303093333333"><time>2015-10-31T08:41:18Z</time></trkpt><trkpt lat="60.316361666667" lon="25.302958888889"><time>2015-10-31T08:41:22Z</time></trkpt><trkpt lat="60.316359722222" lon="25.302895277778"><time>2015-10-31T08:41:24Z</time></trkpt><trkpt lat="60.316396666667" lon="25.302781111111"><time>2015-10-31T08:41:27Z</time></trkpt><trkpt lat="60.316425555556" lon="25.30273"><time>2015-10-31T08:41:29Z</time></trkpt><trkpt lat="60.31645" lon="25.302706666667"><time>2015-10-31T08:41:31Z</time></trkpt><trkpt lat="60.316504444444" lon="25.302664722222"><time>2015-10-31T08:41:35Z</time></trkpt><trkpt lat="60.316533888889" lon="25.302577222222"><time>2015-10-31T08:41:39Z</time></trkpt><trkpt lat="60.316540277778" lon="25.302466944444"><time>2015-10-31T08:41:43Z</time></trkpt><trkpt lat="60.316543055556" lon="25.3023575"><time>2015-10-31T08:41:47Z</time></trkpt><trkpt lat="60.316571944444" lon="25.3022925"><time>2015-10-31T08:41:51Z</time></trkpt><trkpt lat="60.316600277778" lon="25.302231388889"><time>2015-10-31T08:41:57Z</time></trkpt><trkpt lat="60.316606666667" lon="25.302200277778"><time>2015-10-31T08:41:58Z</time></trkpt><trkpt lat="60.316620555556" lon="25.302166944444"><time>2015-10-31T08:42:01Z</time></trkpt><trkpt lat="60.316645" lon="25.302149166667"><time>2015-10-31T08:42:05Z</time></trkpt><trkpt lat="60.316649444444" lon="25.302138333333"><time>2015-10-31T08:42:06Z</time></trkpt><trkpt lat="60.316658333333" lon="25.302125555556"><time>2015-10-31T08:42:07Z</time></trkpt><trkpt lat="60.316694166667" lon="25.302093888889"><time>2015-10-31T08:42:10Z</time></trkpt><trkpt lat="60.316725277778" lon="25.302043333333"><time>2015-10-31T08:42:13Z</time></trkpt><trkpt lat="60.316777777778" lon="25.301910277778"><time>2015-10-31T08:42:18Z</time></trkpt><trkpt lat="60.316805277778" lon="25.301786944444"><time>2015-10-31T08:42:21Z</time></trkpt><trkpt lat="60.316841666667" lon="25.301710833333"><time>2015-10-31T08:42:23Z</time></trkpt><trkpt lat="60.316873888889" lon="25.301631388889"><time>2015-10-31T08:42:25Z</time></trkpt><trkpt lat="60.316945" lon="25.301543611111"><time>2015-10-31T08:42:28Z</time></trkpt><trkpt lat="60.316965" lon="25.301500277778"><time>2015-10-31T08:42:29Z</time></trkpt><trkpt lat="60.317060833333" lon="25.301303611111"><time>2015-10-31T08:42:34Z</time></trkpt><trkpt lat="60.317137777778" lon="25.301109444444"><time>2015-10-31T08:42:39Z</time></trkpt><trkpt lat="60.31719" lon="25.300991666667"><time>2015-10-31T08:42:43Z</time></trkpt><trkpt lat="60.317227777778" lon="25.300865"><time>2015-10-31T08:42:47Z</time></trkpt><trkpt lat="60.317242222222" lon="25.300835833333"><time>2015-10-31T08:42:48Z</time></trkpt><trkpt lat="60.317341388889" lon="25.300705"><time>2015-10-31T08:42:54Z</time></trkpt><trkpt lat="60.317405" lon="25.300605277778"><time>2015-10-31T08:42:58Z</time></trkpt><trkpt lat="60.317484444444" lon="25.300388611111"><time>2015-10-31T08:43:04Z</time></trkpt><trkpt lat="60.317498333333" lon="25.300155277778"><time>2015-10-31T08:43:09Z</time></trkpt><trkpt lat="60.317488333333" lon="25.300053611111"><time>2015-10-31T08:43:11Z</time></trkpt><trkpt lat="60.317482222222" lon="25.299952222222"><time>2015-10-31T08:43:13Z</time></trkpt><trkpt lat="60.317534166667" lon="25.299832777778"><time>2015-10-31T08:43:17Z</time></trkpt><trkpt lat="60.317546944444" lon="25.299822222222"><time>2015-10-31T08:43:18Z</time></trkpt><trkpt lat="60.317546944444" lon="25.299822222222"><time>2015-10-31T08:43:18Z</time></trkpt><trkpt lat="60.317568055556" lon="25.299788333333"><time>2015-10-31T08:43:22Z</time></trkpt><trkpt lat="60.317611111111" lon="25.299738055556"><time>2015-10-31T08:43:26Z</time></trkpt><trkpt lat="60.317699444444" lon="25.299679166667"><time>2015-10-31T08:43:31Z</time></trkpt><trkpt lat="60.317717222222" lon="25.299593333333"><time>2015-10-31T08:43:33Z</time></trkpt><trkpt lat="60.317720833333" lon="25.299412777778"><time>2015-10-31T08:43:37Z</time></trkpt><trkpt lat="60.317721388889" lon="25.299371666667"><time>2015-10-31T08:43:38Z</time></trkpt><trkpt lat="60.317749722222" lon="25.299277777778"><time>2015-10-31T08:43:41Z</time></trkpt><trkpt lat="60.317813611111" lon="25.299227777778"><time>2015-10-31T08:43:46Z</time></trkpt><trkpt lat="60.31787" lon="25.299161111111"><time>2015-10-31T08:43:50Z</time></trkpt><trkpt lat="60.317919444444" lon="25.299083611111"><time>2015-10-31T08:43:55Z</time></trkpt><trkpt lat="60.317932777778" lon="25.299064166667"><time>2015-10-31T08:43:56Z</time></trkpt><trkpt lat="60.318019166667" lon="25.298963055556"><time>2015-10-31T08:44:01Z</time></trkpt><trkpt lat="60.318030833333" lon="25.298942222222"><time>2015-10-31T08:44:02Z</time></trkpt><trkpt lat="60.318051111111" lon="25.298848611111"><time>2015-10-31T08:44:05Z</time></trkpt><trkpt lat="60.318057777778" lon="25.298773611111"><time>2015-10-31T08:44:07Z</time></trkpt><trkpt lat="60.3180675" lon="25.298669166667"><time>2015-10-31T08:44:10Z</time></trkpt><trkpt lat="60.318066944444" lon="25.298573611111"><time>2015-10-31T08:44:13Z</time></trkpt><trkpt lat="60.318079166667" lon="25.298423333333"><time>2015-10-31T08:44:17Z</time></trkpt><trkpt lat="60.318108611111" lon="25.2983"><time>2015-10-31T08:44:22Z</time></trkpt><trkpt lat="60.318118611111" lon="25.2982825"><time>2015-10-31T08:44:23Z</time></trkpt><trkpt lat="60.31816" lon="25.298190277778"><time>2015-10-31T08:44:28Z</time></trkpt><trkpt lat="60.31817" lon="25.298172777778"><time>2015-10-31T08:44:29Z</time></trkpt><trkpt lat="60.318176666667" lon="25.298150833333"><time>2015-10-31T08:44:30Z</time></trkpt><trkpt lat="60.3181975" lon="25.298044166667"><time>2015-10-31T08:44:34Z</time></trkpt><trkpt lat="60.31822" lon="25.297971388889"><time>2015-10-31T08:44:36Z</time></trkpt><trkpt lat="60.318265277778" lon="25.29786"><time>2015-10-31T08:44:39Z</time></trkpt><trkpt lat="60.318334444444" lon="25.297722777778"><time>2015-10-31T08:44:44Z</time></trkpt><trkpt lat="60.318373611111" lon="25.297653888889"><time>2015-10-31T08:44:47Z</time></trkpt><trkpt lat="60.318399444444" lon="25.297610277778"><time>2015-10-31T08:44:49Z</time></trkpt><trkpt lat="60.318416388889" lon="25.297566111111"><time>2015-10-31T08:44:51Z</time></trkpt><trkpt lat="60.318422777778" lon="25.297535555556"><time>2015-10-31T08:44:52Z</time></trkpt><trkpt lat="60.318428888889" lon="25.297469722222"><time>2015-10-31T08:44:54Z</time></trkpt><trkpt lat="60.318444722222" lon="25.2974175"><time>2015-10-31T08:44:56Z</time></trkpt><trkpt lat="60.318469166667" lon="25.2973575"><time>2015-10-31T08:44:58Z</time></trkpt><trkpt lat="60.318484722222" lon="25.297297777778"><time>2015-10-31T08:45:00Z</time></trkpt><trkpt lat="60.318476388889" lon="25.297215833333"><time>2015-10-31T08:45:02Z</time></trkpt><trkpt lat="60.318451666667" lon="25.296845555556"><time>2015-10-31T08:45:10Z</time></trkpt><trkpt lat="60.318437777778" lon="25.296598333333"><time>2015-10-31T08:45:16Z</time></trkpt><trkpt lat="60.318436388889" lon="25.296561944444"><time>2015-10-31T08:45:17Z</time></trkpt><trkpt lat="60.318436111111" lon="25.296406388889"><time>2015-10-31T08:45:21Z</time></trkpt><trkpt lat="60.318426666667" lon="25.296306111111"><time>2015-10-31T08:45:24Z</time></trkpt><trkpt lat="60.318424166667" lon="25.296253888889"><time>2015-10-31T08:45:26Z</time></trkpt><trkpt lat="60.318426944444" lon="25.296087777778"><time>2015-10-31T08:45:31Z</time></trkpt><trkpt lat="60.318420833333" lon="25.296027222222"><time>2015-10-31T08:45:33Z</time></trkpt><trkpt lat="60.318413333333" lon="25.295882222222"><time>2015-10-31T08:45:37Z</time></trkpt><trkpt lat="60.318412222222" lon="25.295699444444"><time>2015-10-31T08:45:42Z</time></trkpt><trkpt lat="60.318411111111" lon="25.295629166667"><time>2015-10-31T08:45:44Z</time></trkpt><trkpt lat="60.318390833333" lon="25.295505555556"><time>2015-10-31T08:45:47Z</time></trkpt><trkpt lat="60.318358055556" lon="25.295333888889"><time>2015-10-31T08:45:52Z</time></trkpt><trkpt lat="60.318319722222" lon="25.2950925"><time>2015-10-31T08:45:59Z</time></trkpt><trkpt lat="60.318303888889" lon="25.295021111111"><time>2015-10-31T08:46:01Z</time></trkpt><trkpt lat="60.3182875" lon="25.294968888889"><time>2015-10-31T08:46:03Z</time></trkpt><trkpt lat="60.318282777778" lon="25.29495"><time>2015-10-31T08:46:04Z</time></trkpt><trkpt lat="60.318270833333" lon="25.294927222222"><time>2015-10-31T08:46:06Z</time></trkpt><trkpt lat="60.318257777778" lon="25.294911388889"><time>2015-10-31T08:46:08Z</time></trkpt><trkpt lat="60.318247222222" lon="25.294866666667"><time>2015-10-31T08:46:11Z</time></trkpt><trkpt lat="60.318231111111" lon="25.294832777778"><time>2015-10-31T08:46:13Z</time></trkpt><trkpt lat="60.318229722222" lon="25.294755555556"><time>2015-10-31T08:46:17Z</time></trkpt><trkpt lat="60.318228888889" lon="25.294674722222"><time>2015-10-31T08:46:21Z</time></trkpt><trkpt lat="60.318225833333" lon="25.294652777778"><time>2015-10-31T08:46:22Z</time></trkpt><trkpt lat="60.318206111111" lon="25.294501666667"><time>2015-10-31T08:46:25Z</time></trkpt><trkpt lat="60.318202777778" lon="25.294315555556"><time>2015-10-31T08:46:29Z</time></trkpt><trkpt lat="60.3182025" lon="25.294121388889"><time>2015-10-31T08:46:33Z</time></trkpt><trkpt lat="60.318207222222" lon="25.293959722222"><time>2015-10-31T08:46:37Z</time></trkpt><trkpt lat="60.318215555556" lon="25.293928611111"><time>2015-10-31T08:46:38Z</time></trkpt><trkpt lat="60.318305555556" lon="25.293769166667"><time>2015-10-31T08:46:44Z</time></trkpt><trkpt lat="60.318338333333" lon="25.293727222222"><time>2015-10-31T08:46:46Z</time></trkpt><trkpt lat="60.318380277778" lon="25.293632222222"><time>2015-10-31T08:46:49Z</time></trkpt><trkpt lat="60.318476111111" lon="25.293463888889"><time>2015-10-31T08:46:55Z</time></trkpt><trkpt lat="60.318542222222" lon="25.293303055556"><time>2015-10-31T08:47:00Z</time></trkpt><trkpt lat="60.318555833333" lon="25.293282222222"><time>2015-10-31T08:47:01Z</time></trkpt><trkpt lat="60.318614722222" lon="25.293161388889"><time>2015-10-31T08:47:06Z</time></trkpt><trkpt lat="60.318615833333" lon="25.293125"><time>2015-10-31T08:47:07Z</time></trkpt><trkpt lat="60.318619166667" lon="25.292988611111"><time>2015-10-31T08:47:10Z</time></trkpt><trkpt lat="60.318635" lon="25.292904166667"><time>2015-10-31T08:47:12Z</time></trkpt><trkpt lat="60.318689166667" lon="25.2928225"><time>2015-10-31T08:47:16Z</time></trkpt><trkpt lat="60.318720833333" lon="25.292771111111"><time>2015-10-31T08:47:18Z</time></trkpt><trkpt lat="60.318791388889" lon="25.292638333333"><time>2015-10-31T08:47:23Z</time></trkpt><trkpt lat="60.318818333333" lon="25.292529444444"><time>2015-10-31T08:47:28Z</time></trkpt><trkpt lat="60.318813888889" lon="25.292516388889"><time>2015-10-31T08:47:29Z</time></trkpt><trkpt lat="60.318780555556" lon="25.292433333333"><time>2015-10-31T08:47:33Z</time></trkpt><trkpt lat="60.318782222222" lon="25.292275555556"><time>2015-10-31T08:47:37Z</time></trkpt><trkpt lat="60.318783333333" lon="25.292194166667"><time>2015-10-31T08:47:39Z</time></trkpt><trkpt lat="60.318778611111" lon="25.292166666667"><time>2015-10-31T08:47:40Z</time></trkpt><trkpt lat="60.318778333333" lon="25.2920775"><time>2015-10-31T08:47:44Z</time></trkpt><trkpt lat="60.318811111111" lon="25.291912777778"><time>2015-10-31T08:47:50Z</time></trkpt><trkpt lat="60.318827777778" lon="25.291851388889"><time>2015-10-31T08:47:52Z</time></trkpt><trkpt lat="60.318842222222" lon="25.291778611111"><time>2015-10-31T08:47:55Z</time></trkpt><trkpt lat="60.318845277778" lon="25.291717222222"><time>2015-10-31T08:47:57Z</time></trkpt><trkpt lat="60.318849722222" lon="25.291688333333"><time>2015-10-31T08:47:58Z</time></trkpt><trkpt lat="60.318855833333" lon="25.291581666667"><time>2015-10-31T08:48:01Z</time></trkpt><trkpt lat="60.318866666667" lon="25.291469166667"><time>2015-10-31T08:48:04Z</time></trkpt><trkpt lat="60.318895" lon="25.291385277778"><time>2015-10-31T08:48:06Z</time></trkpt><trkpt lat="60.318925277778" lon="25.291289722222"><time>2015-10-31T08:48:09Z</time></trkpt><trkpt lat="60.318935555556" lon="25.291226666667"><time>2015-10-31T08:48:11Z</time></trkpt><trkpt lat="60.318968611111" lon="25.2911175"><time>2015-10-31T08:48:15Z</time></trkpt><trkpt lat="60.318994722222" lon="25.291011388889"><time>2015-10-31T08:48:21Z</time></trkpt><trkpt lat="60.318999166667" lon="25.291001666667"><time>2015-10-31T08:48:22Z</time></trkpt><trkpt lat="60.319025833333" lon="25.290959166667"><time>2015-10-31T08:48:25Z</time></trkpt><trkpt lat="60.319032222222" lon="25.2908975"><time>2015-10-31T08:48:28Z</time></trkpt><trkpt lat="60.319041111111" lon="25.290872222222"><time>2015-10-31T08:48:29Z</time></trkpt><trkpt lat="60.319083333333" lon="25.290772777778"><time>2015-10-31T08:48:34Z</time></trkpt><trkpt lat="60.319137777778" lon="25.290719166667"><time>2015-10-31T08:48:39Z</time></trkpt><trkpt lat="60.319182222222" lon="25.290638333333"><time>2015-10-31T08:48:44Z</time></trkpt><trkpt lat="60.319202222222" lon="25.290600833333"><time>2015-10-31T08:48:46Z</time></trkpt><trkpt lat="60.319204166667" lon="25.2905225"><time>2015-10-31T08:48:49Z</time></trkpt><trkpt lat="60.319207222222" lon="25.290336388889"><time>2015-10-31T08:48:54Z</time></trkpt><trkpt lat="60.319227777778" lon="25.290210833333"><time>2015-10-31T08:48:58Z</time></trkpt><trkpt lat="60.319221111111" lon="25.290128888889"><time>2015-10-31T08:49:00Z</time></trkpt><trkpt lat="60.319229722222" lon="25.2900375"><time>2015-10-31T08:49:03Z</time></trkpt><trkpt lat="60.3192225" lon="25.289943055556"><time>2015-10-31T08:49:05Z</time></trkpt><trkpt lat="60.319230277778" lon="25.289855555556"><time>2015-10-31T08:49:08Z</time></trkpt><trkpt lat="60.319220555556" lon="25.289790833333"><time>2015-10-31T08:49:10Z</time></trkpt><trkpt lat="60.319226666667" lon="25.2896525"><time>2015-10-31T08:49:14Z</time></trkpt><trkpt lat="60.319224166667" lon="25.289586111111"><time>2015-10-31T08:49:16Z</time></trkpt><trkpt lat="60.319223611111" lon="25.2895025"><time>2015-10-31T08:49:19Z</time></trkpt><trkpt lat="60.319222777778" lon="25.289436666667"><time>2015-10-31T08:49:21Z</time></trkpt><trkpt lat="60.319225" lon="25.289305555556"><time>2015-10-31T08:49:24Z</time></trkpt><trkpt lat="60.319235555556" lon="25.289172222222"><time>2015-10-31T08:49:28Z</time></trkpt><trkpt lat="60.319266944444" lon="25.288998611111"><time>2015-10-31T08:49:33Z</time></trkpt><trkpt lat="60.319269166667" lon="25.288917222222"><time>2015-10-31T08:49:35Z</time></trkpt><trkpt lat="60.319276111111" lon="25.288818888889"><time>2015-10-31T08:49:38Z</time></trkpt><trkpt lat="60.319301944444" lon="25.288715"><time>2015-10-31T08:49:42Z</time></trkpt><trkpt lat="60.319304444444" lon="25.288688333333"><time>2015-10-31T08:49:43Z</time></trkpt><trkpt lat="60.319305" lon="25.288539444444"><time>2015-10-31T08:49:47Z</time></trkpt><trkpt lat="60.319280277778" lon="25.2883325"><time>2015-10-31T08:49:52Z</time></trkpt><trkpt lat="60.319265555556" lon="25.288204444444"><time>2015-10-31T08:49:55Z</time></trkpt><trkpt lat="60.319253611111" lon="25.288106666667"><time>2015-10-31T08:49:58Z</time></trkpt><trkpt lat="60.319246111111" lon="25.288043888889"><time>2015-10-31T08:50:00Z</time></trkpt><trkpt lat="60.319250555556" lon="25.2879525"><time>2015-10-31T08:50:03Z</time></trkpt><trkpt lat="60.319264166667" lon="25.287916388889"><time>2015-10-31T08:50:04Z</time></trkpt><trkpt lat="60.319272222222" lon="25.287873055556"><time>2015-10-31T08:50:05Z</time></trkpt><trkpt lat="60.319289444444" lon="25.287799722222"><time>2015-10-31T08:50:07Z</time></trkpt><trkpt lat="60.319301944444" lon="25.287706388889"><time>2015-10-31T08:50:09Z</time></trkpt><trkpt lat="60.319320277778" lon="25.287631666667"><time>2015-10-31T08:50:11Z</time></trkpt><trkpt lat="60.319309166667" lon="25.287422777778"><time>2015-10-31T08:50:16Z</time></trkpt><trkpt lat="60.319295833333" lon="25.287288611111"><time>2015-10-31T08:50:19Z</time></trkpt><trkpt lat="60.3192975" lon="25.287162777778"><time>2015-10-31T08:50:22Z</time></trkpt><trkpt lat="60.319303333333" lon="25.286952222222"><time>2015-10-31T08:50:27Z</time></trkpt><trkpt lat="60.319317222222" lon="25.286765277778"><time>2015-10-31T08:50:32Z</time></trkpt><trkpt lat="60.319360555556" lon="25.286552777778"><time>2015-10-31T08:50:38Z</time></trkpt><trkpt lat="60.319385277778" lon="25.286308888889"><time>2015-10-31T08:50:44Z</time></trkpt><trkpt lat="60.3194325" lon="25.286113888889"><time>2015-10-31T08:50:49Z</time></trkpt><trkpt lat="60.319441388889" lon="25.286090833333"><time>2015-10-31T08:50:50Z</time></trkpt><trkpt lat="60.319473333333" lon="25.285990277778"><time>2015-10-31T08:50:53Z</time></trkpt><trkpt lat="60.319509166667" lon="25.285855"><time>2015-10-31T08:50:57Z</time></trkpt><trkpt lat="60.319522222222" lon="25.2856975"><time>2015-10-31T08:51:02Z</time></trkpt><trkpt lat="60.319518888889" lon="25.285653888889"><time>2015-10-31T08:51:03Z</time></trkpt><trkpt lat="60.319502222222" lon="25.285427777778"><time>2015-10-31T08:51:08Z</time></trkpt><trkpt lat="60.319500833333" lon="25.2852425"><time>2015-10-31T08:51:12Z</time></trkpt><trkpt lat="60.3195425" lon="25.284988611111"><time>2015-10-31T08:51:17Z</time></trkpt><trkpt lat="60.319628611111" lon="25.284716388889"><time>2015-10-31T08:51:23Z</time></trkpt><trkpt lat="60.319687777778" lon="25.284516111111"><time>2015-10-31T08:51:28Z</time></trkpt><trkpt lat="60.319727777778" lon="25.284243055556"><time>2015-10-31T08:51:34Z</time></trkpt><trkpt lat="60.319714166667" lon="25.2839375"><time>2015-10-31T08:51:41Z</time></trkpt><trkpt lat="60.319711666667" lon="25.2838425"><time>2015-10-31T08:51:43Z</time></trkpt><trkpt lat="60.319722222222" lon="25.283649722222"><time>2015-10-31T08:51:47Z</time></trkpt><trkpt lat="60.319688333333" lon="25.2833525"><time>2015-10-31T08:51:53Z</time></trkpt><trkpt lat="60.319642222222" lon="25.283111111111"><time>2015-10-31T08:51:58Z</time></trkpt><trkpt lat="60.319597222222" lon="25.282821944444"><time>2015-10-31T08:52:04Z</time></trkpt><trkpt lat="60.319544444444" lon="25.282506666667"><time>2015-10-31T08:52:11Z</time></trkpt><trkpt lat="60.319498888889" lon="25.282182222222"><time>2015-10-31T08:52:18Z</time></trkpt><trkpt lat="60.319477777778" lon="25.281955"><time>2015-10-31T08:52:23Z</time></trkpt><trkpt lat="60.319442222222" lon="25.281743611111"><time>2015-10-31T08:52:28Z</time></trkpt><trkpt lat="60.319445277778" lon="25.281536666667"><time>2015-10-31T08:52:34Z</time></trkpt><trkpt lat="60.319455" lon="25.281475"><time>2015-10-31T08:52:38Z</time></trkpt><trkpt lat="60.319441388889" lon="25.281462222222"><time>2015-10-31T08:52:39Z</time></trkpt><trkpt lat="60.319363611111" lon="25.281326111111"><time>2015-10-31T08:52:43Z</time></trkpt><trkpt lat="60.319249722222" lon="25.281134722222"><time>2015-10-31T08:52:49Z</time></trkpt><trkpt lat="60.319153611111" lon="25.280933333333"><time>2015-10-31T08:52:55Z</time></trkpt><trkpt lat="60.319063055556" lon="25.280709722222"><time>2015-10-31T08:53:01Z</time></trkpt><trkpt lat="60.318945277778" lon="25.280535555556"><time>2015-10-31T08:53:07Z</time></trkpt><trkpt lat="60.318884166667" lon="25.280399722222"><time>2015-10-31T08:53:11Z</time></trkpt><trkpt lat="60.318849722222" lon="25.280153611111"><time>2015-10-31T08:53:17Z</time></trkpt><trkpt lat="60.318831111111" lon="25.279858611111"><time>2015-10-31T08:53:24Z</time></trkpt><trkpt lat="60.318806388889" lon="25.279566388889"><time>2015-10-31T08:53:31Z</time></trkpt><trkpt lat="60.318790277778" lon="25.279240555556"><time>2015-10-31T08:53:38Z</time></trkpt><trkpt lat="60.31879" lon="25.278956111111"><time>2015-10-31T08:53:44Z</time></trkpt><trkpt lat="60.318788333333" lon="25.278621944444"><time>2015-10-31T08:53:51Z</time></trkpt><trkpt lat="60.318781666667" lon="25.278293611111"><time>2015-10-31T08:53:58Z</time></trkpt><trkpt lat="60.318771388889" lon="25.2780925"><time>2015-10-31T08:54:02Z</time></trkpt><trkpt lat="60.318770277778" lon="25.277886944444"><time>2015-10-31T08:54:06Z</time></trkpt><trkpt lat="60.318766666667" lon="25.277585277778"><time>2015-10-31T08:54:12Z</time></trkpt><trkpt lat="60.318752777778" lon="25.277231388889"><time>2015-10-31T08:54:19Z</time></trkpt><trkpt lat="60.318763611111" lon="25.276877222222"><time>2015-10-31T08:54:26Z</time></trkpt><trkpt lat="60.318792222222" lon="25.27658"><time>2015-10-31T08:54:32Z</time></trkpt><trkpt lat="60.318819722222" lon="25.276251944444"><time>2015-10-31T08:54:39Z</time></trkpt><trkpt lat="60.318851388889" lon="25.2759425"><time>2015-10-31T08:54:45Z</time></trkpt><trkpt lat="60.318886388889" lon="25.275706944444"><time>2015-10-31T08:54:50Z</time></trkpt><trkpt lat="60.318930555556" lon="25.275458333333"><time>2015-10-31T08:54:56Z</time></trkpt><trkpt lat="60.318958611111" lon="25.275264166667"><time>2015-10-31T08:55:00Z</time></trkpt><trkpt lat="60.318992222222" lon="25.274964166667"><time>2015-10-31T08:55:06Z</time></trkpt><trkpt lat="60.318999166667" lon="25.274662222222"><time>2015-10-31T08:55:12Z</time></trkpt><trkpt lat="60.318988888889" lon="25.274391944444"><time>2015-10-31T08:55:18Z</time></trkpt><trkpt lat="60.318975277778" lon="25.274208888889"><time>2015-10-31T08:55:22Z</time></trkpt><trkpt lat="60.318998888889" lon="25.274171388889"><time>2015-10-31T08:55:25Z</time></trkpt><trkpt lat="60.319058333333" lon="25.274196111111"><time>2015-10-31T08:55:30Z</time></trkpt><trkpt lat="60.319095" lon="25.274196944444"><time>2015-10-31T08:55:33Z</time></trkpt><trkpt lat="60.319113888889" lon="25.2742025"><time>2015-10-31T08:55:35Z</time></trkpt><trkpt lat="60.3191625" lon="25.274223611111"><time>2015-10-31T08:55:39Z</time></trkpt><trkpt lat="60.319215" lon="25.274241111111"><time>2015-10-31T08:55:43Z</time></trkpt><trkpt lat="60.319241666667" lon="25.274250277778"><time>2015-10-31T08:55:46Z</time></trkpt><trkpt lat="60.319281944444" lon="25.274258333333"><time>2015-10-31T08:55:50Z</time></trkpt><trkpt lat="60.319361111111" lon="25.274236666667"><time>2015-10-31T08:55:57Z</time></trkpt><trkpt lat="60.319423611111" lon="25.274222777778"><time>2015-10-31T08:56:02Z</time></trkpt><trkpt lat="60.319473333333" lon="25.274219722222"><time>2015-10-31T08:56:06Z</time></trkpt><trkpt lat="60.319526666667" lon="25.274200555556"><time>2015-10-31T08:56:11Z</time></trkpt><trkpt lat="60.319605" lon="25.274228611111"><time>2015-10-31T08:56:18Z</time></trkpt><trkpt lat="60.319661666667" lon="25.274218888889"><time>2015-10-31T08:56:22Z</time></trkpt><trkpt lat="60.3196725" lon="25.27421"><time>2015-10-31T08:56:23Z</time></trkpt><trkpt lat="60.319720833333" lon="25.2741725"><time>2015-10-31T08:56:27Z</time></trkpt><trkpt lat="60.319744722222" lon="25.274169722222"><time>2015-10-31T08:56:29Z</time></trkpt><trkpt lat="60.319764444444" lon="25.27415"><time>2015-10-31T08:56:31Z</time></trkpt><trkpt lat="60.319776388889" lon="25.274146666667"><time>2015-10-31T08:56:32Z</time></trkpt><trkpt lat="60.319814444444" lon="25.274128333333"><time>2015-10-31T08:56:35Z</time></trkpt><trkpt lat="60.319851944444" lon="25.274058611111"><time>2015-10-31T08:56:39Z</time></trkpt><trkpt lat="60.319885277778" lon="25.273993333333"><time>2015-10-31T08:56:43Z</time></trkpt><trkpt lat="60.319896388889" lon="25.273969166667"><time>2015-10-31T08:56:44Z</time></trkpt><trkpt lat="60.319916388889" lon="25.273919444444"><time>2015-10-31T08:56:46Z</time></trkpt><trkpt lat="60.319964166667" lon="25.273883333333"><time>2015-10-31T08:56:49Z</time></trkpt><trkpt lat="60.319991111111" lon="25.273847777778"><time>2015-10-31T08:56:51Z</time></trkpt><trkpt lat="60.320028055556" lon="25.2738125"><time>2015-10-31T08:56:53Z</time></trkpt><trkpt lat="60.320104722222" lon="25.273693611111"><time>2015-10-31T08:56:58Z</time></trkpt><trkpt lat="60.320163888889" lon="25.273597777778"><time>2015-10-31T08:57:02Z</time></trkpt><trkpt lat="60.320171111111" lon="25.273565"><time>2015-10-31T08:57:03Z</time></trkpt><trkpt lat="60.320200277778" lon="25.273423055556"><time>2015-10-31T08:57:07Z</time></trkpt><trkpt lat="60.320211666667" lon="25.273395833333"><time>2015-10-31T08:57:08Z</time></trkpt><trkpt lat="60.320223888889" lon="25.273381111111"><time>2015-10-31T08:57:09Z</time></trkpt><trkpt lat="60.320253333333" lon="25.273351666667"><time>2015-10-31T08:57:11Z</time></trkpt><trkpt lat="60.320312222222" lon="25.273235"><time>2015-10-31T08:57:16Z</time></trkpt><trkpt lat="60.320321666667" lon="25.273216944444"><time>2015-10-31T08:57:17Z</time></trkpt><trkpt lat="60.320335555556" lon="25.273182777778"><time>2015-10-31T08:57:19Z</time></trkpt><trkpt lat="60.320348611111" lon="25.273074722222"><time>2015-10-31T08:57:23Z</time></trkpt><trkpt lat="60.320344722222" lon="25.272981388889"><time>2015-10-31T08:57:27Z</time></trkpt><trkpt lat="60.320342222222" lon="25.272939166667"><time>2015-10-31T08:57:29Z</time></trkpt><trkpt lat="60.320341666667" lon="25.272926944444"><time>2015-10-31T08:57:35Z</time></trkpt><trkpt lat="60.320378611111" lon="25.272981944444"><time>2015-10-31T08:57:40Z</time></trkpt><trkpt lat="60.320381666667" lon="25.272998055556"><time>2015-10-31T08:57:41Z</time></trkpt><trkpt lat="60.320392222222" lon="25.273051388889"><time>2015-10-31T08:57:45Z</time></trkpt><trkpt lat="60.320406666667" lon="25.273151111111"><time>2015-10-31T08:57:51Z</time></trkpt><trkpt lat="60.320439444444" lon="25.273209166667"><time>2015-10-31T08:57:56Z</time></trkpt><trkpt lat="60.320506388889" lon="25.273253333333"><time>2015-10-31T08:58:00Z</time></trkpt><trkpt lat="60.320535277778" lon="25.273284722222"><time>2015-10-31T08:58:02Z</time></trkpt><trkpt lat="60.320586944444" lon="25.273331388889"><time>2015-10-31T08:58:06Z</time></trkpt><trkpt lat="60.320643055556" lon="25.273438333333"><time>2015-10-31T08:58:11Z</time></trkpt><trkpt lat="60.320706388889" lon="25.273520277778"><time>2015-10-31T08:58:15Z</time></trkpt><trkpt lat="60.320759166667" lon="25.273543333333"><time>2015-10-31T08:58:19Z</time></trkpt><trkpt lat="60.320779166667" lon="25.273543888889"><time>2015-10-31T08:58:20Z</time></trkpt><trkpt lat="60.320831944444" lon="25.273551666667"><time>2015-10-31T08:58:23Z</time></trkpt><trkpt lat="60.320854166667" lon="25.273551666667"><time>2015-10-31T08:58:24Z</time></trkpt><trkpt lat="60.320906111111" lon="25.27357"><time>2015-10-31T08:58:28Z</time></trkpt><trkpt lat="60.320953611111" lon="25.273651666667"><time>2015-10-31T08:58:32Z</time></trkpt><trkpt lat="60.321014444444" lon="25.273701388889"><time>2015-10-31T08:58:37Z</time></trkpt><trkpt lat="60.321035" lon="25.273685555556"><time>2015-10-31T08:58:39Z</time></trkpt><trkpt lat="60.321046388889" lon="25.273682777778"><time>2015-10-31T08:58:40Z</time></trkpt><trkpt lat="60.3210625" lon="25.273679722222"><time>2015-10-31T08:58:42Z</time></trkpt><trkpt lat="60.321076388889" lon="25.273688055556"><time>2015-10-31T08:58:44Z</time></trkpt><trkpt lat="60.321138888889" lon="25.273691111111"><time>2015-10-31T08:58:48Z</time></trkpt><trkpt lat="60.321171944444" lon="25.273698611111"><time>2015-10-31T08:58:50Z</time></trkpt><trkpt lat="60.3211875" lon="25.273716666667"><time>2015-10-31T08:58:51Z</time></trkpt><trkpt lat="60.321204722222" lon="25.273745833333"><time>2015-10-31T08:58:52Z</time></trkpt><trkpt lat="60.321269722222" lon="25.2738225"><time>2015-10-31T08:58:57Z</time></trkpt><trkpt lat="60.321305277778" lon="25.273939166667"><time>2015-10-31T08:59:01Z</time></trkpt><trkpt lat="60.321357777778" lon="25.274076666667"><time>2015-10-31T08:59:06Z</time></trkpt><trkpt lat="60.321396388889" lon="25.274146111111"><time>2015-10-31T08:59:09Z</time></trkpt><trkpt lat="60.321421944444" lon="25.274181111111"><time>2015-10-31T08:59:11Z</time></trkpt><trkpt lat="60.321436388889" lon="25.274200833333"><time>2015-10-31T08:59:12Z</time></trkpt><trkpt lat="60.321493055556" lon="25.274293611111"><time>2015-10-31T08:59:17Z</time></trkpt><trkpt lat="60.321539444444" lon="25.2743525"><time>2015-10-31T08:59:20Z</time></trkpt><trkpt lat="60.321546666667" lon="25.274367777778"><time>2015-10-31T08:59:21Z</time></trkpt><trkpt lat="60.321558888889" lon="25.274405"><time>2015-10-31T08:59:23Z</time></trkpt><trkpt lat="60.321574444444" lon="25.27444"><time>2015-10-31T08:59:25Z</time></trkpt><trkpt lat="60.321615833333" lon="25.274510277778"><time>2015-10-31T08:59:28Z</time></trkpt><trkpt lat="60.321694444444" lon="25.274585277778"><time>2015-10-31T08:59:33Z</time></trkpt><trkpt lat="60.321712777778" lon="25.274602222222"><time>2015-10-31T08:59:34Z</time></trkpt><trkpt lat="60.321790277778" lon="25.274758888889"><time>2015-10-31T08:59:39Z</time></trkpt><trkpt lat="60.321837222222" lon="25.274852222222"><time>2015-10-31T08:59:42Z</time></trkpt><trkpt lat="60.321850555556" lon="25.274892777778"><time>2015-10-31T08:59:43Z</time></trkpt><trkpt lat="60.321901666667" lon="25.27497"><time>2015-10-31T08:59:47Z</time></trkpt><trkpt lat="60.321968888889" lon="25.275018611111"><time>2015-10-31T08:59:52Z</time></trkpt><trkpt lat="60.322000277778" lon="25.2750875"><time>2015-10-31T08:59:56Z</time></trkpt><trkpt lat="60.322015277778" lon="25.275130833333"><time>2015-10-31T08:59:58Z</time></trkpt><trkpt lat="60.322052222222" lon="25.275186388889"><time>2015-10-31T09:00:01Z</time></trkpt><trkpt lat="60.322071666667" lon="25.275225833333"><time>2015-10-31T09:00:03Z</time></trkpt><trkpt lat="60.322098611111" lon="25.275264722222"><time>2015-10-31T09:00:05Z</time></trkpt><trkpt lat="60.322152777778" lon="25.275341388889"><time>2015-10-31T09:00:09Z</time></trkpt><trkpt lat="60.322197777778" lon="25.275443888889"><time>2015-10-31T09:00:13Z</time></trkpt><trkpt lat="60.322222777778" lon="25.275480277778"><time>2015-10-31T09:00:15Z</time></trkpt><trkpt lat="60.322233888889" lon="25.275500555556"><time>2015-10-31T09:00:16Z</time></trkpt><trkpt lat="60.322243055556" lon="25.275556111111"><time>2015-10-31T09:00:18Z</time></trkpt><trkpt lat="60.322248888889" lon="25.275687777778"><time>2015-10-31T09:00:22Z</time></trkpt><trkpt lat="60.322270833333" lon="25.275726666667"><time>2015-10-31T09:00:24Z</time></trkpt><trkpt lat="60.322281388889" lon="25.27575"><time>2015-10-31T09:00:25Z</time></trkpt><trkpt lat="60.322290833333" lon="25.275777222222"><time>2015-10-31T09:00:26Z</time></trkpt><trkpt lat="60.322318888889" lon="25.275825277778"><time>2015-10-31T09:00:28Z</time></trkpt><trkpt lat="60.322371388889" lon="25.27588"><time>2015-10-31T09:00:31Z</time></trkpt><trkpt lat="60.322421111111" lon="25.275953888889"><time>2015-10-31T09:00:34Z</time></trkpt><trkpt lat="60.322435833333" lon="25.27599"><time>2015-10-31T09:00:35Z</time></trkpt><trkpt lat="60.322449166667" lon="25.276021944444"><time>2015-10-31T09:00:36Z</time></trkpt><trkpt lat="60.322509722222" lon="25.276128055556"><time>2015-10-31T09:00:40Z</time></trkpt><trkpt lat="60.322534722222" lon="25.276172222222"><time>2015-10-31T09:00:42Z</time></trkpt><trkpt lat="60.322545555556" lon="25.276185277778"><time>2015-10-31T09:00:43Z</time></trkpt><trkpt lat="60.322579722222" lon="25.276261388889"><time>2015-10-31T09:00:46Z</time></trkpt><trkpt lat="60.322607777778" lon="25.2763525"><time>2015-10-31T09:00:49Z</time></trkpt><trkpt lat="60.322635" lon="25.276450833333"><time>2015-10-31T09:00:52Z</time></trkpt><trkpt lat="60.322641666667" lon="25.276477777778"><time>2015-10-31T09:00:53Z</time></trkpt><trkpt lat="60.322699722222" lon="25.276585"><time>2015-10-31T09:00:57Z</time></trkpt><trkpt lat="60.322717222222" lon="25.276598611111"><time>2015-10-31T09:00:58Z</time></trkpt><trkpt lat="60.322747222222" lon="25.276640555556"><time>2015-10-31T09:01:00Z</time></trkpt><trkpt lat="60.322776111111" lon="25.276705833333"><time>2015-10-31T09:01:02Z</time></trkpt><trkpt lat="60.322815" lon="25.276791666667"><time>2015-10-31T09:01:05Z</time></trkpt><trkpt lat="60.322841388889" lon="25.276847777778"><time>2015-10-31T09:01:07Z</time></trkpt><trkpt lat="60.322939444444" lon="25.276919166667"><time>2015-10-31T09:01:12Z</time></trkpt><trkpt lat="60.322977222222" lon="25.276971111111"><time>2015-10-31T09:01:14Z</time></trkpt><trkpt lat="60.323048888889" lon="25.277039444444"><time>2015-10-31T09:01:18Z</time></trkpt><trkpt lat="60.323146666667" lon="25.277065277778"><time>2015-10-31T09:01:23Z</time></trkpt><trkpt lat="60.323164722222" lon="25.277088333333"><time>2015-10-31T09:01:24Z</time></trkpt><trkpt lat="60.323238888889" lon="25.277206388889"><time>2015-10-31T09:01:28Z</time></trkpt><trkpt lat="60.323339444444" lon="25.277253333333"><time>2015-10-31T09:01:34Z</time></trkpt><trkpt lat="60.323381111111" lon="25.277259166667"><time>2015-10-31T09:01:37Z</time></trkpt><trkpt lat="60.323400555556" lon="25.277261111111"><time>2015-10-31T09:01:39Z</time></trkpt><trkpt lat="60.323436388889" lon="25.277319166667"><time>2015-10-31T09:01:43Z</time></trkpt><trkpt lat="60.323472222222" lon="25.277384722222"><time>2015-10-31T09:01:46Z</time></trkpt><trkpt lat="60.323500833333" lon="25.277416111111"><time>2015-10-31T09:01:48Z</time></trkpt><trkpt lat="60.323593333333" lon="25.2775025"><time>2015-10-31T09:01:53Z</time></trkpt><trkpt lat="60.323647777778" lon="25.277610277778"><time>2015-10-31T09:01:57Z</time></trkpt><trkpt lat="60.323682777778" lon="25.277652222222"><time>2015-10-31T09:02:00Z</time></trkpt><trkpt lat="60.323710277778" lon="25.277667777778"><time>2015-10-31T09:02:02Z</time></trkpt><trkpt lat="60.323770833333" lon="25.277720277778"><time>2015-10-31T09:02:07Z</time></trkpt><trkpt lat="60.323835277778" lon="25.277770277778"><time>2015-10-31T09:02:12Z</time></trkpt><trkpt lat="60.323907777778" lon="25.277891388889"><time>2015-10-31T09:02:18Z</time></trkpt><trkpt lat="60.323970555556" lon="25.277997222222"><time>2015-10-31T09:02:24Z</time></trkpt><trkpt lat="60.324009166667" lon="25.278142777778"><time>2015-10-31T09:02:29Z</time></trkpt><trkpt lat="60.324016666667" lon="25.278171666667"><time>2015-10-31T09:02:30Z</time></trkpt><trkpt lat="60.324039722222" lon="25.278232222222"><time>2015-10-31T09:02:32Z</time></trkpt><trkpt lat="60.324068611111" lon="25.278281388889"><time>2015-10-31T09:02:34Z</time></trkpt><trkpt lat="60.324157777778" lon="25.278411666667"><time>2015-10-31T09:02:42Z</time></trkpt><trkpt lat="60.32418" lon="25.278460277778"><time>2015-10-31T09:02:44Z</time></trkpt><trkpt lat="60.324250277778" lon="25.278604722222"><time>2015-10-31T09:02:49Z</time></trkpt><trkpt lat="60.324305" lon="25.278683611111"><time>2015-10-31T09:02:53Z</time></trkpt><trkpt lat="60.324335" lon="25.2787275"><time>2015-10-31T09:02:55Z</time></trkpt><trkpt lat="60.324431388889" lon="25.278810277778"><time>2015-10-31T09:03:00Z</time></trkpt><trkpt lat="60.324501666667" lon="25.278858055556"><time>2015-10-31T09:03:04Z</time></trkpt><trkpt lat="60.324522777778" lon="25.278879444444"><time>2015-10-31T09:03:05Z</time></trkpt><trkpt lat="60.324586111111" lon="25.2789625"><time>2015-10-31T09:03:09Z</time></trkpt><trkpt lat="60.324654722222" lon="25.279015277778"><time>2015-10-31T09:03:13Z</time></trkpt><trkpt lat="60.324725277778" lon="25.279127222222"><time>2015-10-31T09:03:18Z</time></trkpt><trkpt lat="60.324738888889" lon="25.279151388889"><time>2015-10-31T09:03:19Z</time></trkpt><trkpt lat="60.324786666667" lon="25.279220277778"><time>2015-10-31T09:03:22Z</time></trkpt><trkpt lat="60.3248375" lon="25.279346111111"><time>2015-10-31T09:03:27Z</time></trkpt><trkpt lat="60.324852222222" lon="25.279410277778"><time>2015-10-31T09:03:29Z</time></trkpt><trkpt lat="60.324855277778" lon="25.279475555556"><time>2015-10-31T09:03:31Z</time></trkpt><trkpt lat="60.324854166667" lon="25.279505"><time>2015-10-31T09:03:32Z</time></trkpt><trkpt lat="60.324871666667" lon="25.279555833333"><time>2015-10-31T09:03:34Z</time></trkpt><trkpt lat="60.324896111111" lon="25.279646944444"><time>2015-10-31T09:03:37Z</time></trkpt><trkpt lat="60.324939444444" lon="25.279665277778"><time>2015-10-31T09:03:41Z</time></trkpt><trkpt lat="60.324953888889" lon="25.279667777778"><time>2015-10-31T09:03:42Z</time></trkpt><trkpt lat="60.325039722222" lon="25.279680555556"><time>2015-10-31T09:03:47Z</time></trkpt><trkpt lat="60.325102777778" lon="25.27969"><time>2015-10-31T09:03:52Z</time></trkpt><trkpt lat="60.325157777778" lon="25.279732222222"><time>2015-10-31T09:03:58Z</time></trkpt><trkpt lat="60.325173888889" lon="25.279795277778"><time>2015-10-31T09:04:02Z</time></trkpt><trkpt lat="60.325189166667" lon="25.279824444444"><time>2015-10-31T09:04:04Z</time></trkpt><trkpt lat="60.325233055556" lon="25.279888611111"><time>2015-10-31T09:04:09Z</time></trkpt><trkpt lat="60.325291111111" lon="25.279954166667"><time>2015-10-31T09:04:14Z</time></trkpt><trkpt lat="60.325333611111" lon="25.280003333333"><time>2015-10-31T09:04:18Z</time></trkpt><trkpt lat="60.325342777778" lon="25.280012777778"><time>2015-10-31T09:04:19Z</time></trkpt><trkpt lat="60.325379722222" lon="25.2800425"><time>2015-10-31T09:04:23Z</time></trkpt><trkpt lat="60.325402222222" lon="25.280127777778"><time>2015-10-31T09:04:28Z</time></trkpt><trkpt lat="60.325417222222" lon="25.2802475"><time>2015-10-31T09:04:33Z</time></trkpt><trkpt lat="60.325419166667" lon="25.280284444444"><time>2015-10-31T09:04:34Z</time></trkpt><trkpt lat="60.325433333333" lon="25.280313611111"><time>2015-10-31T09:04:37Z</time></trkpt><trkpt lat="60.3254675" lon="25.280315277778"><time>2015-10-31T09:04:40Z</time></trkpt><trkpt lat="60.325486111111" lon="25.280334166667"><time>2015-10-31T09:04:42Z</time></trkpt><trkpt lat="60.325499166667" lon="25.280355"><time>2015-10-31T09:04:45Z</time></trkpt><trkpt lat="60.3255025" lon="25.28036"><time>2015-10-31T09:04:46Z</time></trkpt><trkpt lat="60.325520555556" lon="25.280467222222"><time>2015-10-31T09:04:56Z</time></trkpt><trkpt lat="60.325542222222" lon="25.280529166667"><time>2015-10-31T09:05:01Z</time></trkpt><trkpt lat="60.325570277778" lon="25.280590277778"><time>2015-10-31T09:05:05Z</time></trkpt><trkpt lat="60.325573055556" lon="25.280631666667"><time>2015-10-31T09:05:07Z</time></trkpt><trkpt lat="60.325578611111" lon="25.280696111111"><time>2015-10-31T09:05:11Z</time></trkpt><trkpt lat="60.325583055556" lon="25.280708611111"><time>2015-10-31T09:05:12Z</time></trkpt><trkpt lat="60.3256" lon="25.280733888889"><time>2015-10-31T09:05:16Z</time></trkpt><trkpt lat="60.325596666667" lon="25.280795"><time>2015-10-31T09:05:21Z</time></trkpt><trkpt lat="60.325596111111" lon="25.2808975"><time>2015-10-31T09:05:26Z</time></trkpt><trkpt lat="60.325600555556" lon="25.280926111111"><time>2015-10-31T09:05:28Z</time></trkpt><trkpt lat="60.325609166667" lon="25.280938611111"><time>2015-10-31T09:05:30Z</time></trkpt><trkpt lat="60.325620833333" lon="25.281022222222"><time>2015-10-31T09:05:35Z</time></trkpt><trkpt lat="60.325623611111" lon="25.281036388889"><time>2015-10-31T09:05:36Z</time></trkpt><trkpt lat="60.325643888889" lon="25.281086388889"><time>2015-10-31T09:05:40Z</time></trkpt><trkpt lat="60.32567" lon="25.281137222222"><time>2015-10-31T09:05:47Z</time></trkpt><trkpt lat="60.325705" lon="25.281129166667"><time>2015-10-31T09:05:51Z</time></trkpt><trkpt lat="60.325718333333" lon="25.281133611111"><time>2015-10-31T09:05:52Z</time></trkpt><trkpt lat="60.325766944444" lon="25.281173055556"><time>2015-10-31T09:05:56Z</time></trkpt><trkpt lat="60.325768888889" lon="25.281205833333"><time>2015-10-31T09:05:57Z</time></trkpt><trkpt lat="60.325783055556" lon="25.281229722222"><time>2015-10-31T09:05:58Z</time></trkpt><trkpt lat="60.325819166667" lon="25.281242222222"><time>2015-10-31T09:06:01Z</time></trkpt><trkpt lat="60.3258675" lon="25.281340277778"><time>2015-10-31T09:06:06Z</time></trkpt><trkpt lat="60.325928333333" lon="25.281371111111"><time>2015-10-31T09:06:28Z</time></trkpt><trkpt lat="60.325934722222" lon="25.281417222222"><time>2015-10-31T09:06:32Z</time></trkpt><trkpt lat="60.325947222222" lon="25.281480555556"><time>2015-10-31T09:06:37Z</time></trkpt><trkpt lat="60.325952777778" lon="25.281499444444"><time>2015-10-31T09:06:38Z</time></trkpt><trkpt lat="60.32597" lon="25.281574166667"><time>2015-10-31T09:06:42Z</time></trkpt><trkpt lat="60.326026111111" lon="25.281577777778"><time>2015-10-31T09:06:47Z</time></trkpt><trkpt lat="60.326091666667" lon="25.281609722222"><time>2015-10-31T09:06:52Z</time></trkpt><trkpt lat="60.326152777778" lon="25.281565277778"><time>2015-10-31T09:06:57Z</time></trkpt><trkpt lat="60.326220555556" lon="25.281482222222"><time>2015-10-31T09:07:02Z</time></trkpt><trkpt lat="60.326265277778" lon="25.281436111111"><time>2015-10-31T09:07:06Z</time></trkpt><trkpt lat="60.326273055556" lon="25.281424166667"><time>2015-10-31T09:07:07Z</time></trkpt><trkpt lat="60.326285" lon="25.281413333333"><time>2015-10-31T09:07:08Z</time></trkpt><trkpt lat="60.326318333333" lon="25.281429722222"><time>2015-10-31T09:07:11Z</time></trkpt><trkpt lat="60.326345277778" lon="25.281436111111"><time>2015-10-31T09:07:17Z</time></trkpt><trkpt lat="60.326363611111" lon="25.281398888889"><time>2015-10-31T09:07:30Z</time></trkpt><trkpt lat="60.326379722222" lon="25.281362777778"><time>2015-10-31T09:07:32Z</time></trkpt><trkpt lat="60.326395277778" lon="25.281299444444"><time>2015-10-31T09:07:38Z</time></trkpt><trkpt lat="60.32636" lon="25.281271666667"><time>2015-10-31T09:07:48Z</time></trkpt><trkpt lat="60.326322777778" lon="25.281361666667"><time>2015-10-31T09:08:08Z</time></trkpt><trkpt lat="60.326301111111" lon="25.281396666667"><time>2015-10-31T09:08:13Z</time></trkpt><trkpt lat="60.326278888889" lon="25.281438055556"><time>2015-10-31T09:08:18Z</time></trkpt><trkpt lat="60.32626" lon="25.281440833333"><time>2015-10-31T09:08:19Z</time></trkpt><trkpt lat="60.326224722222" lon="25.281429166667"><time>2015-10-31T09:08:22Z</time></trkpt><trkpt lat="60.326213055556" lon="25.281431944444"><time>2015-10-31T09:08:23Z</time></trkpt><trkpt lat="60.326184166667" lon="25.281446388889"><time>2015-10-31T09:08:25Z</time></trkpt><trkpt lat="60.326152777778" lon="25.281405"><time>2015-10-31T09:08:28Z</time></trkpt><trkpt lat="60.326137777778" lon="25.281393888889"><time>2015-10-31T09:08:29Z</time></trkpt><trkpt lat="60.3260775" lon="25.281386666667"><time>2015-10-31T09:08:34Z</time></trkpt><trkpt lat="60.326064166667" lon="25.281401111111"><time>2015-10-31T09:08:43Z</time></trkpt><trkpt lat="60.326021388889" lon="25.2813575"><time>2015-10-31T09:08:50Z</time></trkpt><trkpt lat="60.326002222222" lon="25.281356111111"><time>2015-10-31T09:08:51Z</time></trkpt><trkpt lat="60.325943611111" lon="25.281406111111"><time>2015-10-31T09:08:56Z</time></trkpt><trkpt lat="60.325928888889" lon="25.281419722222"><time>2015-10-31T09:08:58Z</time></trkpt><trkpt lat="60.3259175" lon="25.281425"><time>2015-10-31T09:08:59Z</time></trkpt><trkpt lat="60.3258775" lon="25.281436388889"><time>2015-10-31T09:09:01Z</time></trkpt><trkpt lat="60.325845" lon="25.281453333333"><time>2015-10-31T09:09:04Z</time></trkpt><trkpt lat="60.325828055556" lon="25.281476666667"><time>2015-10-31T09:09:06Z</time></trkpt><trkpt lat="60.325821666667" lon="25.281485277778"><time>2015-10-31T09:09:09Z</time></trkpt><trkpt lat="60.325830277778" lon="25.281575555556"><time>2015-10-31T09:09:19Z</time></trkpt><trkpt lat="60.325833611111" lon="25.281644722222"><time>2015-10-31T09:09:23Z</time></trkpt><trkpt lat="60.325813333333" lon="25.281693333333"><time>2015-10-31T09:09:25Z</time></trkpt><trkpt lat="60.325776944444" lon="25.281778611111"><time>2015-10-31T09:09:30Z</time></trkpt><trkpt lat="60.325770277778" lon="25.281792222222"><time>2015-10-31T09:09:31Z</time></trkpt><trkpt lat="60.325759166667" lon="25.281913333333"><time>2015-10-31T09:09:37Z</time></trkpt><trkpt lat="60.325777222222" lon="25.282021111111"><time>2015-10-31T09:09:41Z</time></trkpt><trkpt lat="60.3257775" lon="25.282069166667"><time>2015-10-31T09:09:42Z</time></trkpt><trkpt lat="60.325774722222" lon="25.282137777778"><time>2015-10-31T09:09:45Z</time></trkpt><trkpt lat="60.325756388889" lon="25.282274722222"><time>2015-10-31T09:09:50Z</time></trkpt><trkpt lat="60.325729722222" lon="25.282372222222"><time>2015-10-31T09:09:54Z</time></trkpt><trkpt lat="60.325709166667" lon="25.282431388889"><time>2015-10-31T09:09:57Z</time></trkpt><trkpt lat="60.325698888889" lon="25.282475"><time>2015-10-31T09:09:59Z</time></trkpt><trkpt lat="60.3256975" lon="25.282491944444"><time>2015-10-31T09:10:00Z</time></trkpt><trkpt lat="60.3256825" lon="25.2825375"><time>2015-10-31T09:10:05Z</time></trkpt><trkpt lat="60.325643888889" lon="25.282658333333"><time>2015-10-31T09:10:12Z</time></trkpt><trkpt lat="60.325642222222" lon="25.2827"><time>2015-10-31T09:10:14Z</time></trkpt><trkpt lat="60.325640833333" lon="25.282723333333"><time>2015-10-31T09:10:16Z</time></trkpt><trkpt lat="60.32564" lon="25.282731388889"><time>2015-10-31T09:10:19Z</time></trkpt><trkpt lat="60.325636388889" lon="25.282778055556"><time>2015-10-31T09:10:25Z</time></trkpt><trkpt lat="60.325620833333" lon="25.282801111111"><time>2015-10-31T09:10:26Z</time></trkpt><trkpt lat="60.325583333333" lon="25.282846111111"><time>2015-10-31T09:10:30Z</time></trkpt><trkpt lat="60.325553333333" lon="25.282883333333"><time>2015-10-31T09:10:33Z</time></trkpt><trkpt lat="60.3255175" lon="25.282910555556"><time>2015-10-31T09:10:35Z</time></trkpt><trkpt lat="60.325486388889" lon="25.282941111111"><time>2015-10-31T09:10:37Z</time></trkpt><trkpt lat="60.325462222222" lon="25.283030833333"><time>2015-10-31T09:10:40Z</time></trkpt><trkpt lat="60.325450833333" lon="25.283189166667"><time>2015-10-31T09:10:45Z</time></trkpt><trkpt lat="60.325450277778" lon="25.283206944444"><time>2015-10-31T09:10:46Z</time></trkpt><trkpt lat="60.325441388889" lon="25.2832975"><time>2015-10-31T09:10:50Z</time></trkpt><trkpt lat="60.325436944444" lon="25.283326111111"><time>2015-10-31T09:10:51Z</time></trkpt><trkpt lat="60.325415555556" lon="25.283404722222"><time>2015-10-31T09:10:54Z</time></trkpt><trkpt lat="60.325399722222" lon="25.283476666667"><time>2015-10-31T09:10:59Z</time></trkpt><trkpt lat="60.325351944444" lon="25.283553333333"><time>2015-10-31T09:11:05Z</time></trkpt><trkpt lat="60.325346666667" lon="25.283565"><time>2015-10-31T09:11:06Z</time></trkpt><trkpt lat="60.32535" lon="25.283583055556"><time>2015-10-31T09:11:08Z</time></trkpt><trkpt lat="60.325356111111" lon="25.2836025"><time>2015-10-31T09:11:09Z</time></trkpt><trkpt lat="60.325357777778" lon="25.283723055556"><time>2015-10-31T09:11:13Z</time></trkpt><trkpt lat="60.325367777778" lon="25.283865"><time>2015-10-31T09:11:18Z</time></trkpt><trkpt lat="60.325371111111" lon="25.2838725"><time>2015-10-31T09:11:19Z</time></trkpt><trkpt lat="60.325376388889" lon="25.283872222222"><time>2015-10-31T09:11:20Z</time></trkpt><trkpt lat="60.325385" lon="25.283874722222"><time>2015-10-31T09:11:22Z</time></trkpt><trkpt lat="60.325395833333" lon="25.283903611111"><time>2015-10-31T09:11:27Z</time></trkpt><trkpt lat="60.325409722222" lon="25.284044444444"><time>2015-10-31T09:11:32Z</time></trkpt><trkpt lat="60.325406388889" lon="25.284061944444"><time>2015-10-31T09:11:33Z</time></trkpt><trkpt lat="60.325407222222" lon="25.284103888889"><time>2015-10-31T09:11:35Z</time></trkpt><trkpt lat="60.325405277778" lon="25.284164444444"><time>2015-10-31T09:11:37Z</time></trkpt><trkpt lat="60.325409722222" lon="25.284224166667"><time>2015-10-31T09:11:39Z</time></trkpt><trkpt lat="60.325408611111" lon="25.284244444444"><time>2015-10-31T09:11:40Z</time></trkpt><trkpt lat="60.325365" lon="25.284320277778"><time>2015-10-31T09:11:43Z</time></trkpt><trkpt lat="60.325324444444" lon="25.284443333333"><time>2015-10-31T09:11:48Z</time></trkpt><trkpt lat="60.325315" lon="25.284532777778"><time>2015-10-31T09:11:52Z</time></trkpt><trkpt lat="60.325316666667" lon="25.284564444444"><time>2015-10-31T09:11:53Z</time></trkpt><trkpt lat="60.325318611111" lon="25.284644722222"><time>2015-10-31T09:11:55Z</time></trkpt><trkpt lat="60.325316666667" lon="25.284709166667"><time>2015-10-31T09:11:57Z</time></trkpt><trkpt lat="60.325304166667" lon="25.284770833333"><time>2015-10-31T09:11:59Z</time></trkpt><trkpt lat="60.325291388889" lon="25.284848888889"><time>2015-10-31T09:12:02Z</time></trkpt><trkpt lat="60.3252725" lon="25.285045833333"><time>2015-10-31T09:12:09Z</time></trkpt><trkpt lat="60.32526" lon="25.285208611111"><time>2015-10-31T09:12:13Z</time></trkpt><trkpt lat="60.325275" lon="25.285355277778"><time>2015-10-31T09:12:17Z</time></trkpt><trkpt lat="60.325272777778" lon="25.285391944444"><time>2015-10-31T09:12:18Z</time></trkpt><trkpt lat="60.325267222222" lon="25.285511944444"><time>2015-10-31T09:12:22Z</time></trkpt><trkpt lat="60.325279722222" lon="25.285603055556"><time>2015-10-31T09:12:26Z</time></trkpt><trkpt lat="60.325309444444" lon="25.2857025"><time>2015-10-31T09:12:30Z</time></trkpt><trkpt lat="60.325331388889" lon="25.285844722222"><time>2015-10-31T09:12:34Z</time></trkpt><trkpt lat="60.325334444444" lon="25.285941944444"><time>2015-10-31T09:12:36Z</time></trkpt><trkpt lat="60.32533" lon="25.285984444444"><time>2015-10-31T09:12:37Z</time></trkpt><trkpt lat="60.325322777778" lon="25.286056944444"><time>2015-10-31T09:12:39Z</time></trkpt><trkpt lat="60.325316388889" lon="25.286125833333"><time>2015-10-31T09:12:41Z</time></trkpt><trkpt lat="60.325301388889" lon="25.286233611111"><time>2015-10-31T09:12:44Z</time></trkpt><trkpt lat="60.325268333333" lon="25.286420277778"><time>2015-10-31T09:12:48Z</time></trkpt><trkpt lat="60.325241388889" lon="25.286675277778"><time>2015-10-31T09:12:54Z</time></trkpt><trkpt lat="60.325244722222" lon="25.286721111111"><time>2015-10-31T09:12:56Z</time></trkpt><trkpt lat="60.325254722222" lon="25.286789444444"><time>2015-10-31T09:12:59Z</time></trkpt><trkpt lat="60.325238888889" lon="25.286964722222"><time>2015-10-31T09:13:05Z</time></trkpt><trkpt lat="60.325235" lon="25.287001666667"><time>2015-10-31T09:13:06Z</time></trkpt><trkpt lat="60.325201111111" lon="25.287148333333"><time>2015-10-31T09:13:10Z</time></trkpt><trkpt lat="60.325183333333" lon="25.287332777778"><time>2015-10-31T09:13:15Z</time></trkpt><trkpt lat="60.325176388889" lon="25.287483888889"><time>2015-10-31T09:13:20Z</time></trkpt><trkpt lat="60.325158611111" lon="25.2876275"><time>2015-10-31T09:13:25Z</time></trkpt><trkpt lat="60.3251575" lon="25.28767"><time>2015-10-31T09:13:27Z</time></trkpt><trkpt lat="60.325160277778" lon="25.287692222222"><time>2015-10-31T09:13:28Z</time></trkpt><trkpt lat="60.325164722222" lon="25.287726388889"><time>2015-10-31T09:13:30Z</time></trkpt><trkpt lat="60.325164166667" lon="25.287743888889"><time>2015-10-31T09:13:31Z</time></trkpt><trkpt lat="60.325138333333" lon="25.287865555556"><time>2015-10-31T09:13:35Z</time></trkpt><trkpt lat="60.325135833333" lon="25.287893611111"><time>2015-10-31T09:13:36Z</time></trkpt><trkpt lat="60.325104722222" lon="25.287997222222"><time>2015-10-31T09:13:40Z</time></trkpt><trkpt lat="60.325062777778" lon="25.288065555556"><time>2015-10-31T09:13:44Z</time></trkpt><trkpt lat="60.3250525" lon="25.288078333333"><time>2015-10-31T09:13:45Z</time></trkpt><trkpt lat="60.325039722222" lon="25.288101666667"><time>2015-10-31T09:13:46Z</time></trkpt><trkpt lat="60.324990555556" lon="25.2881975"><time>2015-10-31T09:13:50Z</time></trkpt><trkpt lat="60.324985833333" lon="25.288246944444"><time>2015-10-31T09:13:54Z</time></trkpt><trkpt lat="60.324981666667" lon="25.288293611111"><time>2015-10-31T09:13:56Z</time></trkpt><trkpt lat="60.324978055556" lon="25.288413611111"><time>2015-10-31T09:14:02Z</time></trkpt><trkpt lat="60.324986944444" lon="25.2884275"><time>2015-10-31T09:14:03Z</time></trkpt><trkpt lat="60.3250225" lon="25.288483888889"><time>2015-10-31T09:14:06Z</time></trkpt><trkpt lat="60.325048333333" lon="25.288566111111"><time>2015-10-31T09:14:10Z</time></trkpt><trkpt lat="60.325054722222" lon="25.288582222222"><time>2015-10-31T09:14:11Z</time></trkpt><trkpt lat="60.325078888889" lon="25.288668333333"><time>2015-10-31T09:14:14Z</time></trkpt><trkpt lat="60.325085833333" lon="25.288721666667"><time>2015-10-31T09:14:16Z</time></trkpt><trkpt lat="60.325088888889" lon="25.288762222222"><time>2015-10-31T09:14:18Z</time></trkpt><trkpt lat="60.325095555556" lon="25.288799166667"><time>2015-10-31T09:14:20Z</time></trkpt><trkpt lat="60.325094722222" lon="25.288851388889"><time>2015-10-31T09:14:23Z</time></trkpt><trkpt lat="60.325084166667" lon="25.288871666667"><time>2015-10-31T09:14:24Z</time></trkpt><trkpt lat="60.325041666667" lon="25.288994722222"><time>2015-10-31T09:14:29Z</time></trkpt><trkpt lat="60.325008611111" lon="25.28911"><time>2015-10-31T09:14:34Z</time></trkpt><trkpt lat="60.325005833333" lon="25.289127222222"><time>2015-10-31T09:14:35Z</time></trkpt><trkpt lat="60.324998611111" lon="25.289149166667"><time>2015-10-31T09:14:36Z</time></trkpt><trkpt lat="60.324981111111" lon="25.289207222222"><time>2015-10-31T09:14:38Z</time></trkpt><trkpt lat="60.324973611111" lon="25.289262777778"><time>2015-10-31T09:14:40Z</time></trkpt><trkpt lat="60.324967777778" lon="25.289290277778"><time>2015-10-31T09:14:41Z</time></trkpt><trkpt lat="60.324950833333" lon="25.289365277778"><time>2015-10-31T09:14:44Z</time></trkpt><trkpt lat="60.324951111111" lon="25.289394166667"><time>2015-10-31T09:14:45Z</time></trkpt><trkpt lat="60.324947222222" lon="25.289604166667"><time>2015-10-31T09:14:51Z</time></trkpt><trkpt lat="60.324935" lon="25.289766944444"><time>2015-10-31T09:14:56Z</time></trkpt><trkpt lat="60.324927222222" lon="25.289804722222"><time>2015-10-31T09:14:57Z</time></trkpt><trkpt lat="60.324895277778" lon="25.290005277778"><time>2015-10-31T09:15:02Z</time></trkpt><trkpt lat="60.324862777778" lon="25.290186944444"><time>2015-10-31T09:15:07Z</time></trkpt><trkpt lat="60.324827777778" lon="25.290361111111"><time>2015-10-31T09:15:12Z</time></trkpt><trkpt lat="60.324813055556" lon="25.290375"><time>2015-10-31T09:15:13Z</time></trkpt><trkpt lat="60.324796666667" lon="25.290428333333"><time>2015-10-31T09:15:16Z</time></trkpt><trkpt lat="60.324785833333" lon="25.290460555556"><time>2015-10-31T09:15:17Z</time></trkpt><trkpt lat="60.324742222222" lon="25.290614444444"><time>2015-10-31T09:15:21Z</time></trkpt><trkpt lat="60.324698333333" lon="25.290799166667"><time>2015-10-31T09:15:26Z</time></trkpt><trkpt lat="60.324685833333" lon="25.290828333333"><time>2015-10-31T09:15:27Z</time></trkpt><trkpt lat="60.324649166667" lon="25.2908675"><time>2015-10-31T09:15:30Z</time></trkpt><trkpt lat="60.324638055556" lon="25.290880277778"><time>2015-10-31T09:15:31Z</time></trkpt><trkpt lat="60.324550833333" lon="25.290939166667"><time>2015-10-31T09:15:36Z</time></trkpt><trkpt lat="60.324456111111" lon="25.291002222222"><time>2015-10-31T09:15:41Z</time></trkpt><trkpt lat="60.324367777778" lon="25.291094444444"><time>2015-10-31T09:15:46Z</time></trkpt><trkpt lat="60.324265" lon="25.291247777778"><time>2015-10-31T09:15:52Z</time></trkpt><trkpt lat="60.324253333333" lon="25.291268611111"><time>2015-10-31T09:15:53Z</time></trkpt><trkpt lat="60.324195277778" lon="25.291353611111"><time>2015-10-31T09:15:57Z</time></trkpt><trkpt lat="60.32412" lon="25.291460555556"><time>2015-10-31T09:16:02Z</time></trkpt><trkpt lat="60.324036388889" lon="25.291608333333"><time>2015-10-31T09:16:07Z</time></trkpt><trkpt lat="60.323946388889" lon="25.291696388889"><time>2015-10-31T09:16:12Z</time></trkpt><trkpt lat="60.323860555556" lon="25.291775277778"><time>2015-10-31T09:16:17Z</time></trkpt><trkpt lat="60.323845555556" lon="25.291805833333"><time>2015-10-31T09:16:18Z</time></trkpt><trkpt lat="60.323758333333" lon="25.291872777778"><time>2015-10-31T09:16:23Z</time></trkpt><trkpt lat="60.323740555556" lon="25.291886944444"><time>2015-10-31T09:16:24Z</time></trkpt><trkpt lat="60.323705" lon="25.291946944444"><time>2015-10-31T09:16:27Z</time></trkpt><trkpt lat="60.323690833333" lon="25.291969166667"><time>2015-10-31T09:16:28Z</time></trkpt><trkpt lat="60.323624722222" lon="25.292069444444"><time>2015-10-31T09:16:32Z</time></trkpt><trkpt lat="60.323549444444" lon="25.292219166667"><time>2015-10-31T09:16:37Z</time></trkpt><trkpt lat="60.32351" lon="25.292375277778"><time>2015-10-31T09:16:42Z</time></trkpt><trkpt lat="60.323468888889" lon="25.292624444444"><time>2015-10-31T09:16:48Z</time></trkpt><trkpt lat="60.3234775" lon="25.292696666667"><time>2015-10-31T09:16:50Z</time></trkpt><trkpt lat="60.323489166667" lon="25.2927325"><time>2015-10-31T09:16:52Z</time></trkpt><trkpt lat="60.323503888889" lon="25.292861666667"><time>2015-10-31T09:16:56Z</time></trkpt><trkpt lat="60.3235075" lon="25.293025833333"><time>2015-10-31T09:17:01Z</time></trkpt><trkpt lat="60.323511111111" lon="25.293189166667"><time>2015-10-31T09:17:07Z</time></trkpt><trkpt lat="60.323513888889" lon="25.293218888889"><time>2015-10-31T09:17:08Z</time></trkpt><trkpt lat="60.323546666667" lon="25.293276388889"><time>2015-10-31T09:17:11Z</time></trkpt><trkpt lat="60.323623611111" lon="25.293404444444"><time>2015-10-31T09:17:16Z</time></trkpt><trkpt lat="60.32369" lon="25.293568333333"><time>2015-10-31T09:17:22Z</time></trkpt><trkpt lat="60.323771944444" lon="25.293678333333"><time>2015-10-31T09:17:29Z</time></trkpt><trkpt lat="60.323836666667" lon="25.293781111111"><time>2015-10-31T09:17:35Z</time></trkpt><trkpt lat="60.323841111111" lon="25.2938025"><time>2015-10-31T09:17:36Z</time></trkpt><trkpt lat="60.323868333333" lon="25.293950833333"><time>2015-10-31T09:17:42Z</time></trkpt><trkpt lat="60.323870555556" lon="25.293965277778"><time>2015-10-31T09:17:43Z</time></trkpt><trkpt lat="60.323869722222" lon="25.294038055556"><time>2015-10-31T09:17:48Z</time></trkpt><trkpt lat="60.323875277778" lon="25.294117222222"><time>2015-10-31T09:17:52Z</time></trkpt><trkpt lat="60.323874166667" lon="25.29414"><time>2015-10-31T09:17:53Z</time></trkpt><trkpt lat="60.323871111111" lon="25.294151111111"><time>2015-10-31T09:17:54Z</time></trkpt><trkpt lat="60.323874722222" lon="25.294172222222"><time>2015-10-31T09:17:55Z</time></trkpt><trkpt lat="60.3238975" lon="25.2942375"><time>2015-10-31T09:17:58Z</time></trkpt><trkpt lat="60.323902222222" lon="25.294287777778"><time>2015-10-31T09:18:00Z</time></trkpt><trkpt lat="60.323907777778" lon="25.294355"><time>2015-10-31T09:18:03Z</time></trkpt><trkpt lat="60.323911944444" lon="25.294373333333"><time>2015-10-31T09:18:04Z</time></trkpt><trkpt lat="60.323932222222" lon="25.294470277778"><time>2015-10-31T09:18:08Z</time></trkpt><trkpt lat="60.323933611111" lon="25.294509722222"><time>2015-10-31T09:18:10Z</time></trkpt><trkpt lat="60.323958888889" lon="25.294610277778"><time>2015-10-31T09:18:16Z</time></trkpt><trkpt lat="60.323975" lon="25.294705555556"><time>2015-10-31T09:18:21Z</time></trkpt><trkpt lat="60.323999722222" lon="25.294803333333"><time>2015-10-31T09:18:26Z</time></trkpt><trkpt lat="60.324010555556" lon="25.294953611111"><time>2015-10-31T09:18:33Z</time></trkpt><trkpt lat="60.324016111111" lon="25.29506"><time>2015-10-31T09:18:38Z</time></trkpt><trkpt lat="60.324014722222" lon="25.2950825"><time>2015-10-31T09:18:39Z</time></trkpt><trkpt lat="60.324006388889" lon="25.295185833333"><time>2015-10-31T09:18:43Z</time></trkpt><trkpt lat="60.324006388889" lon="25.295209722222"><time>2015-10-31T09:18:44Z</time></trkpt><trkpt lat="60.32401" lon="25.295248888889"><time>2015-10-31T09:18:46Z</time></trkpt><trkpt lat="60.324011111111" lon="25.295273611111"><time>2015-10-31T09:18:47Z</time></trkpt><trkpt lat="60.324026944444" lon="25.295448888889"><time>2015-10-31T09:18:52Z</time></trkpt><trkpt lat="60.324049166667" lon="25.295569166667"><time>2015-10-31T09:18:56Z</time></trkpt><trkpt lat="60.32405" lon="25.2955975"><time>2015-10-31T09:18:57Z</time></trkpt><trkpt lat="60.324049166667" lon="25.295710833333"><time>2015-10-31T09:19:01Z</time></trkpt><trkpt lat="60.324039444444" lon="25.295803055556"><time>2015-10-31T09:19:05Z</time></trkpt><trkpt lat="60.324036111111" lon="25.295826111111"><time>2015-10-31T09:19:06Z</time></trkpt><trkpt lat="60.324035833333" lon="25.295853611111"><time>2015-10-31T09:19:07Z</time></trkpt><trkpt lat="60.324044722222" lon="25.295923333333"><time>2015-10-31T09:19:10Z</time></trkpt><trkpt lat="60.324046666667" lon="25.296091666667"><time>2015-10-31T09:19:16Z</time></trkpt><trkpt lat="60.3240225" lon="25.296195833333"><time>2015-10-31T09:19:20Z</time></trkpt><trkpt lat="60.323997222222" lon="25.296335555556"><time>2015-10-31T09:19:24Z</time></trkpt><trkpt lat="60.323997222222" lon="25.296368888889"><time>2015-10-31T09:19:25Z</time></trkpt><trkpt lat="60.323999444444" lon="25.296535"><time>2015-10-31T09:19:30Z</time></trkpt><trkpt lat="60.323979166667" lon="25.296701388889"><time>2015-10-31T09:19:34Z</time></trkpt><trkpt lat="60.3239575" lon="25.296870277778"><time>2015-10-31T09:19:39Z</time></trkpt><trkpt lat="60.323939722222" lon="25.297033055556"><time>2015-10-31T09:19:44Z</time></trkpt><trkpt lat="60.323928888889" lon="25.29718"><time>2015-10-31T09:19:49Z</time></trkpt><trkpt lat="60.323899722222" lon="25.29737"><time>2015-10-31T09:19:56Z</time></trkpt><trkpt lat="60.323878888889" lon="25.297497777778"><time>2015-10-31T09:20:02Z</time></trkpt><trkpt lat="60.323863888889" lon="25.297613333333"><time>2015-10-31T09:20:08Z</time></trkpt><trkpt lat="60.323859722222" lon="25.297636111111"><time>2015-10-31T09:20:09Z</time></trkpt><trkpt lat="60.323844444444" lon="25.297766111111"><time>2015-10-31T09:20:13Z</time></trkpt><trkpt lat="60.323844444444" lon="25.297833888889"><time>2015-10-31T09:20:15Z</time></trkpt><trkpt lat="60.323832777778" lon="25.297996388889"><time>2015-10-31T09:20:21Z</time></trkpt><trkpt lat="60.323828333333" lon="25.2980325"><time>2015-10-31T09:20:22Z</time></trkpt><trkpt lat="60.323805" lon="25.298135277778"><time>2015-10-31T09:20:26Z</time></trkpt><trkpt lat="60.323786111111" lon="25.298235833333"><time>2015-10-31T09:20:30Z</time></trkpt><trkpt lat="60.323781111111" lon="25.298251111111"><time>2015-10-31T09:20:31Z</time></trkpt><trkpt lat="60.323778611111" lon="25.298261388889"><time>2015-10-31T09:20:32Z</time></trkpt><trkpt lat="60.323781666667" lon="25.298275833333"><time>2015-10-31T09:20:33Z</time></trkpt><trkpt lat="60.323798611111" lon="25.298323611111"><time>2015-10-31T09:20:36Z</time></trkpt><trkpt lat="60.323808055556" lon="25.298343055556"><time>2015-10-31T09:20:37Z</time></trkpt><trkpt lat="60.323845" lon="25.298407777778"><time>2015-10-31T09:20:42Z</time></trkpt><trkpt lat="60.323846666667" lon="25.298431944444"><time>2015-10-31T09:20:47Z</time></trkpt><trkpt lat="60.323834722222" lon="25.298415555556"><time>2015-10-31T09:20:55Z</time></trkpt><trkpt lat="60.323845833333" lon="25.298447222222"><time>2015-10-31T09:21:01Z</time></trkpt><trkpt lat="60.323854166667" lon="25.298491666667"><time>2015-10-31T09:21:06Z</time></trkpt><trkpt lat="60.323819722222" lon="25.298445"><time>2015-10-31T09:21:15Z</time></trkpt><trkpt lat="60.323742777778" lon="25.298368333333"><time>2015-10-31T09:21:23Z</time></trkpt><trkpt lat="60.323741111111" lon="25.298284444444"><time>2015-10-31T09:21:26Z</time></trkpt><trkpt lat="60.323730833333" lon="25.298250277778"><time>2015-10-31T09:21:27Z</time></trkpt><trkpt lat="60.323695833333" lon="25.298078888889"><time>2015-10-31T09:21:32Z</time></trkpt><trkpt lat="60.323682222222" lon="25.297961944444"><time>2015-10-31T09:21:36Z</time></trkpt><trkpt lat="60.323674166667" lon="25.2979"><time>2015-10-31T09:21:38Z</time></trkpt><trkpt lat="60.323674166667" lon="25.297872222222"><time>2015-10-31T09:21:39Z</time></trkpt><trkpt lat="60.323676388889" lon="25.297762222222"><time>2015-10-31T09:21:43Z</time></trkpt><trkpt lat="60.323663888889" lon="25.297606944444"><time>2015-10-31T09:21:48Z</time></trkpt><trkpt lat="60.323645833333" lon="25.297452777778"><time>2015-10-31T09:21:52Z</time></trkpt><trkpt lat="60.323633888889" lon="25.297302777778"><time>2015-10-31T09:21:57Z</time></trkpt><trkpt lat="60.323623611111" lon="25.297129166667"><time>2015-10-31T09:22:03Z</time></trkpt><trkpt lat="60.323616666667" lon="25.297098055556"><time>2015-10-31T09:22:04Z</time></trkpt><trkpt lat="60.32361" lon="25.296956944444"><time>2015-10-31T09:22:09Z</time></trkpt><trkpt lat="60.323579166667" lon="25.296770833333"><time>2015-10-31T09:22:15Z</time></trkpt><trkpt lat="60.323557777778" lon="25.296695"><time>2015-10-31T09:22:18Z</time></trkpt><trkpt lat="60.323541111111" lon="25.296667777778"><time>2015-10-31T09:22:20Z</time></trkpt><trkpt lat="60.323533333333" lon="25.296657777778"><time>2015-10-31T09:22:22Z</time></trkpt><trkpt lat="60.323510555556" lon="25.296600833333"><time>2015-10-31T09:22:24Z</time></trkpt><trkpt lat="60.323474166667" lon="25.296499166667"><time>2015-10-31T09:22:27Z</time></trkpt><trkpt lat="60.323461944444" lon="25.296460833333"><time>2015-10-31T09:22:28Z</time></trkpt><trkpt lat="60.323459722222" lon="25.296434166667"><time>2015-10-31T09:22:29Z</time></trkpt><trkpt lat="60.323458888889" lon="25.296358055556"><time>2015-10-31T09:22:32Z</time></trkpt><trkpt lat="60.323451666667" lon="25.296328333333"><time>2015-10-31T09:22:33Z</time></trkpt><trkpt lat="60.323415277778" lon="25.296267777778"><time>2015-10-31T09:22:35Z</time></trkpt><trkpt lat="60.323351944444" lon="25.29612"><time>2015-10-31T09:22:40Z</time></trkpt><trkpt lat="60.323328888889" lon="25.296064722222"><time>2015-10-31T09:22:42Z</time></trkpt><trkpt lat="60.323315277778" lon="25.295947222222"><time>2015-10-31T09:22:45Z</time></trkpt><trkpt lat="60.323317777778" lon="25.295829444444"><time>2015-10-31T09:22:48Z</time></trkpt><trkpt lat="60.323320833333" lon="25.295748888889"><time>2015-10-31T09:22:50Z</time></trkpt><trkpt lat="60.323316388889" lon="25.295668333333"><time>2015-10-31T09:22:52Z</time></trkpt><trkpt lat="60.323300833333" lon="25.295622777778"><time>2015-10-31T09:22:54Z</time></trkpt><trkpt lat="60.323285277778" lon="25.295581111111"><time>2015-10-31T09:22:56Z</time></trkpt><trkpt lat="60.323280833333" lon="25.295533055556"><time>2015-10-31T09:22:59Z</time></trkpt><trkpt lat="60.323276111111" lon="25.2955225"><time>2015-10-31T09:23:00Z</time></trkpt><trkpt lat="60.323267222222" lon="25.295503888889"><time>2015-10-31T09:23:01Z</time></trkpt><trkpt lat="60.323245833333" lon="25.295468611111"><time>2015-10-31T09:23:04Z</time></trkpt><trkpt lat="60.323237222222" lon="25.295441944444"><time>2015-10-31T09:23:05Z</time></trkpt><trkpt lat="60.3232275" lon="25.295424166667"><time>2015-10-31T09:23:07Z</time></trkpt><trkpt lat="60.323221388889" lon="25.295411111111"><time>2015-10-31T09:23:08Z</time></trkpt><trkpt lat="60.323196111111" lon="25.295314722222"><time>2015-10-31T09:23:12Z</time></trkpt><trkpt lat="60.323152222222" lon="25.295159444444"><time>2015-10-31T09:23:18Z</time></trkpt><trkpt lat="60.323150555556" lon="25.295075"><time>2015-10-31T09:23:23Z</time></trkpt><trkpt lat="60.32316" lon="25.294952222222"><time>2015-10-31T09:23:27Z</time></trkpt><trkpt lat="60.323172222222" lon="25.294885"><time>2015-10-31T09:23:30Z</time></trkpt><trkpt lat="60.32317" lon="25.2948175"><time>2015-10-31T09:23:33Z</time></trkpt><trkpt lat="60.323180833333" lon="25.294798888889"><time>2015-10-31T09:23:34Z</time></trkpt><trkpt lat="60.323198333333" lon="25.294719444444"><time>2015-10-31T09:23:37Z</time></trkpt><trkpt lat="60.323228333333" lon="25.294632222222"><time>2015-10-31T09:23:41Z</time></trkpt><trkpt lat="60.323233055556" lon="25.294609722222"><time>2015-10-31T09:23:42Z</time></trkpt><trkpt lat="60.323249166667" lon="25.294453333333"><time>2015-10-31T09:23:46Z</time></trkpt><trkpt lat="60.323304722222" lon="25.294343888889"><time>2015-10-31T09:23:50Z</time></trkpt><trkpt lat="60.323343333333" lon="25.294243055556"><time>2015-10-31T09:23:54Z</time></trkpt><trkpt lat="60.323343888889" lon="25.294103611111"><time>2015-10-31T09:23:59Z</time></trkpt><trkpt lat="60.323343888889" lon="25.294085277778"><time>2015-10-31T09:24:00Z</time></trkpt><trkpt lat="60.323334444444" lon="25.294065"><time>2015-10-31T09:24:01Z</time></trkpt><trkpt lat="60.323319166667" lon="25.294015555556"><time>2015-10-31T09:24:03Z</time></trkpt><trkpt lat="60.323333888889" lon="25.293931666667"><time>2015-10-31T09:24:07Z</time></trkpt><trkpt lat="60.323331944444" lon="25.293918333333"><time>2015-10-31T09:24:08Z</time></trkpt><trkpt lat="60.323328055556" lon="25.293861666667"><time>2015-10-31T09:24:11Z</time></trkpt><trkpt lat="60.323346111111" lon="25.293792777778"><time>2015-10-31T09:24:15Z</time></trkpt><trkpt lat="60.323384722222" lon="25.293698333333"><time>2015-10-31T09:24:20Z</time></trkpt><trkpt lat="60.323435" lon="25.293576666667"><time>2015-10-31T09:24:24Z</time></trkpt><trkpt lat="60.3234425" lon="25.293551666667"><time>2015-10-31T09:24:25Z</time></trkpt><trkpt lat="60.323440833333" lon="25.2935275"><time>2015-10-31T09:24:26Z</time></trkpt><trkpt lat="60.323442222222" lon="25.293442222222"><time>2015-10-31T09:24:28Z</time></trkpt><trkpt lat="60.323442777778" lon="25.293263888889"><time>2015-10-31T09:24:33Z</time></trkpt><trkpt lat="60.323435555556" lon="25.293235833333"><time>2015-10-31T09:24:34Z</time></trkpt><trkpt lat="60.323427777778" lon="25.293139166667"><time>2015-10-31T09:24:37Z</time></trkpt><trkpt lat="60.323416388889" lon="25.293043611111"><time>2015-10-31T09:24:41Z</time></trkpt><trkpt lat="60.323373611111" lon="25.292859444444"><time>2015-10-31T09:24:46Z</time></trkpt><trkpt lat="60.323381666667" lon="25.292718888889"><time>2015-10-31T09:24:51Z</time></trkpt><trkpt lat="60.323385277778" lon="25.292686944444"><time>2015-10-31T09:24:52Z</time></trkpt><trkpt lat="60.323416666667" lon="25.292571111111"><time>2015-10-31T09:24:55Z</time></trkpt><trkpt lat="60.323423333333" lon="25.292545277778"><time>2015-10-31T09:24:56Z</time></trkpt><trkpt lat="60.323468055556" lon="25.292337777778"><time>2015-10-31T09:25:02Z</time></trkpt><trkpt lat="60.323538611111" lon="25.292094722222"><time>2015-10-31T09:25:08Z</time></trkpt><trkpt lat="60.323565277778" lon="25.291967222222"><time>2015-10-31T09:25:12Z</time></trkpt><trkpt lat="60.323614722222" lon="25.291805277778"><time>2015-10-31T09:25:17Z</time></trkpt><trkpt lat="60.323664444444" lon="25.291693055556"><time>2015-10-31T09:25:21Z</time></trkpt><trkpt lat="60.323680555556" lon="25.2916575"><time>2015-10-31T09:25:22Z</time></trkpt><trkpt lat="60.323702222222" lon="25.291576944444"><time>2015-10-31T09:25:26Z</time></trkpt><trkpt lat="60.323713055556" lon="25.291519722222"><time>2015-10-31T09:25:28Z</time></trkpt><trkpt lat="60.323731388889" lon="25.291485555556"><time>2015-10-31T09:25:30Z</time></trkpt><trkpt lat="60.323733888889" lon="25.291419444444"><time>2015-10-31T09:25:34Z</time></trkpt><trkpt lat="60.323739444444" lon="25.291306944444"><time>2015-10-31T09:25:37Z</time></trkpt><trkpt lat="60.323734722222" lon="25.29127"><time>2015-10-31T09:25:39Z</time></trkpt><trkpt lat="60.323720555556" lon="25.291210833333"><time>2015-10-31T09:25:42Z</time></trkpt><trkpt lat="60.323705833333" lon="25.291078611111"><time>2015-10-31T09:25:48Z</time></trkpt><trkpt lat="60.323705833333" lon="25.29106"><time>2015-10-31T09:25:49Z</time></trkpt><trkpt lat="60.323711111111" lon="25.290990555556"><time>2015-10-31T09:25:52Z</time></trkpt><trkpt lat="60.323712777778" lon="25.290978888889"><time>2015-10-31T09:25:53Z</time></trkpt><trkpt lat="60.323698611111" lon="25.290871388889"><time>2015-10-31T09:25:58Z</time></trkpt><trkpt lat="60.323694722222" lon="25.290801111111"><time>2015-10-31T09:26:01Z</time></trkpt><trkpt lat="60.323685277778" lon="25.290727777778"><time>2015-10-31T09:26:04Z</time></trkpt><trkpt lat="60.323681388889" lon="25.290674722222"><time>2015-10-31T09:26:07Z</time></trkpt><trkpt lat="60.323661944444" lon="25.290591111111"><time>2015-10-31T09:26:11Z</time></trkpt><trkpt lat="60.323633888889" lon="25.290446388889"><time>2015-10-31T09:26:20Z</time></trkpt><trkpt lat="60.323589722222" lon="25.290315"><time>2015-10-31T09:26:28Z</time></trkpt><trkpt lat="60.323572777778" lon="25.290207777778"><time>2015-10-31T09:26:33Z</time></trkpt><trkpt lat="60.323574166667" lon="25.290173333333"><time>2015-10-31T09:26:34Z</time></trkpt><trkpt lat="60.323548888889" lon="25.2899975"><time>2015-10-31T09:26:39Z</time></trkpt><trkpt lat="60.323545555556" lon="25.289821111111"><time>2015-10-31T09:26:44Z</time></trkpt><trkpt lat="60.323575277778" lon="25.289749722222"><time>2015-10-31T09:26:48Z</time></trkpt><trkpt lat="60.323551666667" lon="25.289621388889"><time>2015-10-31T09:26:53Z</time></trkpt><trkpt lat="60.323516666667" lon="25.289522222222"><time>2015-10-31T09:26:57Z</time></trkpt><trkpt lat="60.323504166667" lon="25.289485555556"><time>2015-10-31T09:26:58Z</time></trkpt><trkpt lat="60.323475" lon="25.2894175"><time>2015-10-31T09:27:01Z</time></trkpt><trkpt lat="60.323469722222" lon="25.289386666667"><time>2015-10-31T09:27:02Z</time></trkpt><trkpt lat="60.323452222222" lon="25.289313333333"><time>2015-10-31T09:27:06Z</time></trkpt><trkpt lat="60.323432777778" lon="25.289183888889"><time>2015-10-31T09:27:11Z</time></trkpt><trkpt lat="60.3234075" lon="25.28912"><time>2015-10-31T09:27:14Z</time></trkpt><trkpt lat="60.323382777778" lon="25.289094166667"><time>2015-10-31T09:27:16Z</time></trkpt><trkpt lat="60.323351388889" lon="25.289049722222"><time>2015-10-31T09:27:18Z</time></trkpt><trkpt lat="60.323347777778" lon="25.288990555556"><time>2015-10-31T09:27:20Z</time></trkpt><trkpt lat="60.323334722222" lon="25.288953611111"><time>2015-10-31T09:27:22Z</time></trkpt><trkpt lat="60.323321111111" lon="25.288917777778"><time>2015-10-31T09:27:24Z</time></trkpt><trkpt lat="60.323312777778" lon="25.28887"><time>2015-10-31T09:27:26Z</time></trkpt><trkpt lat="60.323296388889" lon="25.288793055556"><time>2015-10-31T09:27:29Z</time></trkpt><trkpt lat="60.323286944444" lon="25.288712222222"><time>2015-10-31T09:27:33Z</time></trkpt><trkpt lat="60.323294166667" lon="25.2886775"><time>2015-10-31T09:27:34Z</time></trkpt><trkpt lat="60.323258333333" lon="25.288568055556"><time>2015-10-31T09:27:38Z</time></trkpt><trkpt lat="60.323258611111" lon="25.288435277778"><time>2015-10-31T09:27:42Z</time></trkpt><trkpt lat="60.323238611111" lon="25.288355277778"><time>2015-10-31T09:27:46Z</time></trkpt><trkpt lat="60.323223333333" lon="25.288235"><time>2015-10-31T09:27:51Z</time></trkpt><trkpt lat="60.323241388889" lon="25.288191666667"><time>2015-10-31T09:27:53Z</time></trkpt><trkpt lat="60.3232425" lon="25.288163611111"><time>2015-10-31T09:27:55Z</time></trkpt><trkpt lat="60.323246388889" lon="25.288098333333"><time>2015-10-31T09:27:59Z</time></trkpt><trkpt lat="60.323251111111" lon="25.288053888889"><time>2015-10-31T09:28:02Z</time></trkpt><trkpt lat="60.323228611111" lon="25.287966111111"><time>2015-10-31T09:28:07Z</time></trkpt><trkpt lat="60.32318" lon="25.287835555556"><time>2015-10-31T09:28:14Z</time></trkpt><trkpt lat="60.323163333333" lon="25.2878275"><time>2015-10-31T09:28:15Z</time></trkpt><trkpt lat="60.323127222222" lon="25.287790555556"><time>2015-10-31T09:28:18Z</time></trkpt><trkpt lat="60.323126388889" lon="25.287771388889"><time>2015-10-31T09:28:19Z</time></trkpt><trkpt lat="60.323096388889" lon="25.287701666667"><time>2015-10-31T09:28:23Z</time></trkpt><trkpt lat="60.323083611111" lon="25.287690555556"><time>2015-10-31T09:28:24Z</time></trkpt><trkpt lat="60.323035" lon="25.2876075"><time>2015-10-31T09:28:29Z</time></trkpt><trkpt lat="60.323016111111" lon="25.287496388889"><time>2015-10-31T09:28:34Z</time></trkpt><trkpt lat="60.323015" lon="25.287482777778"><time>2015-10-31T09:28:35Z</time></trkpt><trkpt lat="60.323018888889" lon="25.287475"><time>2015-10-31T09:28:36Z</time></trkpt><trkpt lat="60.323029444444" lon="25.287432777778"><time>2015-10-31T09:28:40Z</time></trkpt><trkpt lat="60.323004722222" lon="25.287330277778"><time>2015-10-31T09:28:45Z</time></trkpt><trkpt lat="60.322953888889" lon="25.287265277778"><time>2015-10-31T09:28:50Z</time></trkpt><trkpt lat="60.322946388889" lon="25.287240555556"><time>2015-10-31T09:28:51Z</time></trkpt><trkpt lat="60.322907222222" lon="25.287157222222"><time>2015-10-31T09:28:55Z</time></trkpt><trkpt lat="60.322870555556" lon="25.287061388889"><time>2015-10-31T09:29:00Z</time></trkpt><trkpt lat="60.322835833333" lon="25.2870075"><time>2015-10-31T09:29:02Z</time></trkpt><trkpt lat="60.322829444444" lon="25.286973611111"><time>2015-10-31T09:29:03Z</time></trkpt><trkpt lat="60.3228225" lon="25.28694"><time>2015-10-31T09:29:04Z</time></trkpt><trkpt lat="60.322808333333" lon="25.286795555556"><time>2015-10-31T09:29:09Z</time></trkpt><trkpt lat="60.322803888889" lon="25.286618888889"><time>2015-10-31T09:29:14Z</time></trkpt><trkpt lat="60.322804166667" lon="25.286493055556"><time>2015-10-31T09:29:18Z</time></trkpt><trkpt lat="60.322795555556" lon="25.286463055556"><time>2015-10-31T09:29:19Z</time></trkpt><trkpt lat="60.322800833333" lon="25.286430277778"><time>2015-10-31T09:29:21Z</time></trkpt><trkpt lat="60.322796666667" lon="25.286402777778"><time>2015-10-31T09:29:22Z</time></trkpt><trkpt lat="60.322787222222" lon="25.286268055556"><time>2015-10-31T09:29:26Z</time></trkpt><trkpt lat="60.322773888889" lon="25.286179166667"><time>2015-10-31T09:29:30Z</time></trkpt><trkpt lat="60.322764444444" lon="25.286067222222"><time>2015-10-31T09:29:35Z</time></trkpt><trkpt lat="60.322763055556" lon="25.285960555556"><time>2015-10-31T09:29:40Z</time></trkpt><trkpt lat="60.322766944444" lon="25.285874444444"><time>2015-10-31T09:29:44Z</time></trkpt><trkpt lat="60.3227625" lon="25.285857777778"><time>2015-10-31T09:29:45Z</time></trkpt><trkpt lat="60.32274" lon="25.285811388889"><time>2015-10-31T09:29:48Z</time></trkpt><trkpt lat="60.322734166667" lon="25.285783055556"><time>2015-10-31T09:29:49Z</time></trkpt><trkpt lat="60.322728888889" lon="25.285750833333"><time>2015-10-31T09:29:51Z</time></trkpt><trkpt lat="60.322715277778" lon="25.285624722222"><time>2015-10-31T09:29:55Z</time></trkpt><trkpt lat="60.322699722222" lon="25.2855575"><time>2015-10-31T09:29:57Z</time></trkpt><trkpt lat="60.322644166667" lon="25.285410833333"><time>2015-10-31T09:30:02Z</time></trkpt><trkpt lat="60.322614444444" lon="25.285246666667"><time>2015-10-31T09:30:06Z</time></trkpt><trkpt lat="60.322610833333" lon="25.285208888889"><time>2015-10-31T09:30:07Z</time></trkpt><trkpt lat="60.322604722222" lon="25.285107222222"><time>2015-10-31T09:30:10Z</time></trkpt><trkpt lat="60.322609444444" lon="25.285081111111"><time>2015-10-31T09:30:11Z</time></trkpt><trkpt lat="60.322598888889" lon="25.284962777778"><time>2015-10-31T09:30:15Z</time></trkpt><trkpt lat="60.322567777778" lon="25.284791111111"><time>2015-10-31T09:30:20Z</time></trkpt><trkpt lat="60.322523055556" lon="25.284605833333"><time>2015-10-31T09:30:25Z</time></trkpt><trkpt lat="60.322520555556" lon="25.284581111111"><time>2015-10-31T09:30:26Z</time></trkpt><trkpt lat="60.322490833333" lon="25.284455555556"><time>2015-10-31T09:30:29Z</time></trkpt><trkpt lat="60.3224425" lon="25.284376944444"><time>2015-10-31T09:30:32Z</time></trkpt><trkpt lat="60.322429444444" lon="25.284365555556"><time>2015-10-31T09:30:33Z</time></trkpt><trkpt lat="60.3223875" lon="25.284304722222"><time>2015-10-31T09:30:38Z</time></trkpt><trkpt lat="60.322374722222" lon="25.284268333333"><time>2015-10-31T09:30:42Z</time></trkpt><trkpt lat="60.3223275" lon="25.284224166667"><time>2015-10-31T09:30:50Z</time></trkpt><trkpt lat="60.322254444444" lon="25.284265"><time>2015-10-31T09:30:55Z</time></trkpt><trkpt lat="60.322228611111" lon="25.284293611111"><time>2015-10-31T09:30:58Z</time></trkpt><trkpt lat="60.322209166667" lon="25.284288888889"><time>2015-10-31T09:30:59Z</time></trkpt><trkpt lat="60.322152777778" lon="25.284329166667"><time>2015-10-31T09:31:02Z</time></trkpt><trkpt lat="60.322106111111" lon="25.284407222222"><time>2015-10-31T09:31:06Z</time></trkpt><trkpt lat="60.322070277778" lon="25.284427222222"><time>2015-10-31T09:31:10Z</time></trkpt><trkpt lat="60.322002777778" lon="25.284416666667"><time>2015-10-31T09:31:14Z</time></trkpt><trkpt lat="60.321940555556" lon="25.284428888889"><time>2015-10-31T09:31:18Z</time></trkpt><trkpt lat="60.3218725" lon="25.284436111111"><time>2015-10-31T09:31:22Z</time></trkpt><trkpt lat="60.321852222222" lon="25.284443333333"><time>2015-10-31T09:31:23Z</time></trkpt><trkpt lat="60.321844166667" lon="25.284451666667"><time>2015-10-31T09:31:24Z</time></trkpt><trkpt lat="60.321817777778" lon="25.284446388889"><time>2015-10-31T09:31:26Z</time></trkpt><trkpt lat="60.321779722222" lon="25.284436944444"><time>2015-10-31T09:31:29Z</time></trkpt><trkpt lat="60.321768055556" lon="25.284448333333"><time>2015-10-31T09:31:30Z</time></trkpt><trkpt lat="60.321710277778" lon="25.2845075"><time>2015-10-31T09:31:34Z</time></trkpt><trkpt lat="60.321659722222" lon="25.284518888889"><time>2015-10-31T09:31:38Z</time></trkpt><trkpt lat="60.321589722222" lon="25.284531388889"><time>2015-10-31T09:31:43Z</time></trkpt><trkpt lat="60.321575833333" lon="25.284514166667"><time>2015-10-31T09:31:44Z</time></trkpt><trkpt lat="60.321519722222" lon="25.2845625"><time>2015-10-31T09:31:48Z</time></trkpt><trkpt lat="60.321500555556" lon="25.284586666667"><time>2015-10-31T09:31:49Z</time></trkpt><trkpt lat="60.321468055556" lon="25.284634166667"><time>2015-10-31T09:31:52Z</time></trkpt><trkpt lat="60.321399166667" lon="25.284751111111"><time>2015-10-31T09:31:58Z</time></trkpt><trkpt lat="60.321355" lon="25.284874444444"><time>2015-10-31T09:32:03Z</time></trkpt><trkpt lat="60.321338611111" lon="25.2849"><time>2015-10-31T09:32:04Z</time></trkpt><trkpt lat="60.3213025" lon="25.284962222222"><time>2015-10-31T09:32:07Z</time></trkpt><trkpt lat="60.321293055556" lon="25.284968888889"><time>2015-10-31T09:32:08Z</time></trkpt><trkpt lat="60.3212925" lon="25.284989722222"><time>2015-10-31T09:32:09Z</time></trkpt><trkpt lat="60.321277777778" lon="25.2850625"><time>2015-10-31T09:32:12Z</time></trkpt><trkpt lat="60.321265" lon="25.285073888889"><time>2015-10-31T09:32:13Z</time></trkpt><trkpt lat="60.321246388889" lon="25.285123333333"><time>2015-10-31T09:32:16Z</time></trkpt><trkpt lat="60.321198333333" lon="25.285180277778"><time>2015-10-31T09:32:20Z</time></trkpt><trkpt lat="60.321186666667" lon="25.285223611111"><time>2015-10-31T09:32:22Z</time></trkpt><trkpt lat="60.321176388889" lon="25.285246666667"><time>2015-10-31T09:32:23Z</time></trkpt><trkpt lat="60.321158888889" lon="25.285277777778"><time>2015-10-31T09:32:25Z</time></trkpt><trkpt lat="60.321110555556" lon="25.285352777778"><time>2015-10-31T09:32:29Z</time></trkpt><trkpt lat="60.321027777778" lon="25.2854525"><time>2015-10-31T09:32:34Z</time></trkpt><trkpt lat="60.321010555556" lon="25.285468611111"><time>2015-10-31T09:32:35Z</time></trkpt><trkpt lat="60.320994166667" lon="25.285472222222"><time>2015-10-31T09:32:36Z</time></trkpt><trkpt lat="60.320958055556" lon="25.285500555556"><time>2015-10-31T09:32:38Z</time></trkpt><trkpt lat="60.320909166667" lon="25.285546666667"><time>2015-10-31T09:32:41Z</time></trkpt><trkpt lat="60.320879166667" lon="25.285611388889"><time>2015-10-31T09:32:43Z</time></trkpt><trkpt lat="60.320808611111" lon="25.285656666667"><time>2015-10-31T09:32:47Z</time></trkpt><trkpt lat="60.320757777778" lon="25.285701388889"><time>2015-10-31T09:32:50Z</time></trkpt><trkpt lat="60.3206625" lon="25.285745"><time>2015-10-31T09:32:55Z</time></trkpt><trkpt lat="60.320607222222" lon="25.285797777778"><time>2015-10-31T09:33:00Z</time></trkpt><trkpt lat="60.320575" lon="25.285827777778"><time>2015-10-31T09:33:02Z</time></trkpt><trkpt lat="60.320553333333" lon="25.285833055556"><time>2015-10-31T09:33:04Z</time></trkpt><trkpt lat="60.320545277778" lon="25.285841944444"><time>2015-10-31T09:33:05Z</time></trkpt><trkpt lat="60.320491111111" lon="25.285852222222"><time>2015-10-31T09:33:09Z</time></trkpt><trkpt lat="60.320441111111" lon="25.285789166667"><time>2015-10-31T09:33:12Z</time></trkpt><trkpt lat="60.320441666667" lon="25.285765833333"><time>2015-10-31T09:33:13Z</time></trkpt><trkpt lat="60.320365277778" lon="25.285701388889"><time>2015-10-31T09:33:17Z</time></trkpt><trkpt lat="60.320266111111" lon="25.285674722222"><time>2015-10-31T09:33:22Z</time></trkpt><trkpt lat="60.32023" lon="25.285708055556"><time>2015-10-31T09:33:24Z</time></trkpt><trkpt lat="60.320174166667" lon="25.285757222222"><time>2015-10-31T09:33:28Z</time></trkpt><trkpt lat="60.320140555556" lon="25.285860277778"><time>2015-10-31T09:33:32Z</time></trkpt><trkpt lat="60.320134722222" lon="25.285879722222"><time>2015-10-31T09:33:33Z</time></trkpt><trkpt lat="60.320113333333" lon="25.285903611111"><time>2015-10-31T09:33:35Z</time></trkpt><trkpt lat="60.320090277778" lon="25.285944166667"><time>2015-10-31T09:33:37Z</time></trkpt><trkpt lat="60.320068611111" lon="25.286067222222"><time>2015-10-31T09:33:43Z</time></trkpt><trkpt lat="60.320048333333" lon="25.286099166667"><time>2015-10-31T09:33:50Z</time></trkpt><trkpt lat="60.320072777778" lon="25.286147777778"><time>2015-10-31T09:33:55Z</time></trkpt><trkpt lat="60.320068888889" lon="25.286195"><time>2015-10-31T09:34:00Z</time></trkpt><trkpt lat="60.320068888889" lon="25.286207222222"><time>2015-10-31T09:34:08Z</time></trkpt><trkpt lat="60.320084722222" lon="25.286288611111"><time>2015-10-31T09:34:13Z</time></trkpt><trkpt lat="60.320095555556" lon="25.286295"><time>2015-10-31T09:34:14Z</time></trkpt><trkpt lat="60.320111666667" lon="25.286363888889"><time>2015-10-31T09:34:16Z</time></trkpt><trkpt lat="60.320114722222" lon="25.286473888889"><time>2015-10-31T09:34:20Z</time></trkpt><trkpt lat="60.320120277778" lon="25.286556111111"><time>2015-10-31T09:34:22Z</time></trkpt><trkpt lat="60.320122777778" lon="25.286652222222"><time>2015-10-31T09:34:24Z</time></trkpt><trkpt lat="60.320131111111" lon="25.286685833333"><time>2015-10-31T09:34:25Z</time></trkpt><trkpt lat="60.320145833333" lon="25.286793055556"><time>2015-10-31T09:34:28Z</time></trkpt><trkpt lat="60.320159722222" lon="25.286864722222"><time>2015-10-31T09:34:31Z</time></trkpt><trkpt lat="60.320170277778" lon="25.286909722222"><time>2015-10-31T09:34:32Z</time></trkpt><trkpt lat="60.320198888889" lon="25.287054722222"><time>2015-10-31T09:34:36Z</time></trkpt><trkpt lat="60.320206388889" lon="25.287086666667"><time>2015-10-31T09:34:37Z</time></trkpt><trkpt lat="60.320224166667" lon="25.287180277778"><time>2015-10-31T09:34:40Z</time></trkpt><trkpt lat="60.320239722222" lon="25.28722"><time>2015-10-31T09:34:41Z</time></trkpt><trkpt lat="60.320277777778" lon="25.287356111111"><time>2015-10-31T09:34:45Z</time></trkpt><trkpt lat="60.320304722222" lon="25.287470555556"><time>2015-10-31T09:34:49Z</time></trkpt><trkpt lat="60.32032" lon="25.287491666667"><time>2015-10-31T09:34:50Z</time></trkpt><trkpt lat="60.320333611111" lon="25.287658055556"><time>2015-10-31T09:34:54Z</time></trkpt><trkpt lat="60.320336944444" lon="25.287817222222"><time>2015-10-31T09:34:59Z</time></trkpt><trkpt lat="60.320346666667" lon="25.287970833333"><time>2015-10-31T09:35:05Z</time></trkpt><trkpt lat="60.320363611111" lon="25.288148611111"><time>2015-10-31T09:35:10Z</time></trkpt><trkpt lat="60.3203825" lon="25.288229722222"><time>2015-10-31T09:35:13Z</time></trkpt><trkpt lat="60.320395" lon="25.288281944444"><time>2015-10-31T09:35:15Z</time></trkpt><trkpt lat="60.320410277778" lon="25.288343888889"><time>2015-10-31T09:35:19Z</time></trkpt><trkpt lat="60.3204175" lon="25.288359444444"><time>2015-10-31T09:35:20Z</time></trkpt><trkpt lat="60.320440833333" lon="25.288384722222"><time>2015-10-31T09:35:23Z</time></trkpt><trkpt lat="60.320446666667" lon="25.288396111111"><time>2015-10-31T09:35:24Z</time></trkpt><trkpt lat="60.320439166667" lon="25.288421111111"><time>2015-10-31T09:35:25Z</time></trkpt><trkpt lat="60.320436111111" lon="25.288471666667"><time>2015-10-31T09:35:27Z</time></trkpt><trkpt lat="60.320458888889" lon="25.288596388889"><time>2015-10-31T09:35:32Z</time></trkpt><trkpt lat="60.3204625" lon="25.288603055556"><time>2015-10-31T09:35:33Z</time></trkpt><trkpt lat="60.320464166667" lon="25.288627777778"><time>2015-10-31T09:35:34Z</time></trkpt><trkpt lat="60.320505833333" lon="25.288731666667"><time>2015-10-31T09:35:38Z</time></trkpt><trkpt lat="60.320541944444" lon="25.288806388889"><time>2015-10-31T09:35:41Z</time></trkpt><trkpt lat="60.320549722222" lon="25.288828888889"><time>2015-10-31T09:35:42Z</time></trkpt><trkpt lat="60.320573611111" lon="25.288878888889"><time>2015-10-31T09:35:44Z</time></trkpt><trkpt lat="60.320597777778" lon="25.2889225"><time>2015-10-31T09:35:47Z</time></trkpt><trkpt lat="60.320653888889" lon="25.289030833333"><time>2015-10-31T09:35:52Z</time></trkpt><trkpt lat="60.320702777778" lon="25.289116666667"><time>2015-10-31T09:35:57Z</time></trkpt><trkpt lat="60.320695833333" lon="25.289155277778"><time>2015-10-31T09:35:58Z</time></trkpt><trkpt lat="60.320698611111" lon="25.289206111111"><time>2015-10-31T09:36:00Z</time></trkpt><trkpt lat="60.320722777778" lon="25.289336111111"><time>2015-10-31T09:36:06Z</time></trkpt><trkpt lat="60.320733888889" lon="25.289339444444"><time>2015-10-31T09:36:07Z</time></trkpt><trkpt lat="60.320768611111" lon="25.289346111111"><time>2015-10-31T09:36:10Z</time></trkpt><trkpt lat="60.320787777778" lon="25.289361388889"><time>2015-10-31T09:36:12Z</time></trkpt><trkpt lat="60.320828611111" lon="25.289435277778"><time>2015-10-31T09:36:15Z</time></trkpt><trkpt lat="60.320836388889" lon="25.289468055556"><time>2015-10-31T09:36:16Z</time></trkpt><trkpt lat="60.320860277778" lon="25.289518611111"><time>2015-10-31T09:36:18Z</time></trkpt><trkpt lat="60.320906388889" lon="25.28959"><time>2015-10-31T09:36:22Z</time></trkpt><trkpt lat="60.320933611111" lon="25.289663888889"><time>2015-10-31T09:36:25Z</time></trkpt><trkpt lat="60.320937777778" lon="25.289699722222"><time>2015-10-31T09:36:27Z</time></trkpt><trkpt lat="60.320958611111" lon="25.289784722222"><time>2015-10-31T09:36:31Z</time></trkpt><trkpt lat="60.320966666667" lon="25.289816111111"><time>2015-10-31T09:36:33Z</time></trkpt><trkpt lat="60.32097" lon="25.289844722222"><time>2015-10-31T09:36:35Z</time></trkpt><trkpt lat="60.320983611111" lon="25.289869444444"><time>2015-10-31T09:36:37Z</time></trkpt><trkpt lat="60.321006111111" lon="25.289947777778"><time>2015-10-31T09:36:41Z</time></trkpt><trkpt lat="60.321040833333" lon="25.290056666667"><time>2015-10-31T09:36:46Z</time></trkpt><trkpt lat="60.3210375" lon="25.290086388889"><time>2015-10-31T09:36:47Z</time></trkpt><trkpt lat="60.3210525" lon="25.290183333333"><time>2015-10-31T09:36:52Z</time></trkpt><trkpt lat="60.321063333333" lon="25.290211111111"><time>2015-10-31T09:36:53Z</time></trkpt><trkpt lat="60.321076388889" lon="25.290298055556"><time>2015-10-31T09:36:58Z</time></trkpt><trkpt lat="60.321106388889" lon="25.290388055556"><time>2015-10-31T09:37:03Z</time></trkpt><trkpt lat="60.32113" lon="25.290415277778"><time>2015-10-31T09:37:05Z</time></trkpt><trkpt lat="60.321139722222" lon="25.290443888889"><time>2015-10-31T09:37:08Z</time></trkpt><trkpt lat="60.321155833333" lon="25.290473888889"><time>2015-10-31T09:37:10Z</time></trkpt><trkpt lat="60.321208055556" lon="25.290541388889"><time>2015-10-31T09:37:16Z</time></trkpt><trkpt lat="60.321219722222" lon="25.290589722222"><time>2015-10-31T09:37:18Z</time></trkpt><trkpt lat="60.3212125" lon="25.290672222222"><time>2015-10-31T09:37:21Z</time></trkpt><trkpt lat="60.32123" lon="25.290775833333"><time>2015-10-31T09:37:25Z</time></trkpt><trkpt lat="60.321276944444" lon="25.2908875"><time>2015-10-31T09:37:31Z</time></trkpt><trkpt lat="60.321293611111" lon="25.290994722222"><time>2015-10-31T09:37:36Z</time></trkpt><trkpt lat="60.321318888889" lon="25.291088611111"><time>2015-10-31T09:37:41Z</time></trkpt><trkpt lat="60.321340833333" lon="25.291208611111"><time>2015-10-31T09:37:46Z</time></trkpt><trkpt lat="60.321360277778" lon="25.291315277778"><time>2015-10-31T09:37:51Z</time></trkpt><trkpt lat="60.321389444444" lon="25.291441666667"><time>2015-10-31T09:37:56Z</time></trkpt><trkpt lat="60.321405833333" lon="25.291528888889"><time>2015-10-31T09:38:00Z</time></trkpt><trkpt lat="60.321418333333" lon="25.291546111111"><time>2015-10-31T09:38:01Z</time></trkpt><trkpt lat="60.321433611111" lon="25.291550277778"><time>2015-10-31T09:38:02Z</time></trkpt><trkpt lat="60.321483611111" lon="25.291618888889"><time>2015-10-31T09:38:07Z</time></trkpt><trkpt lat="60.321489166667" lon="25.291639444444"><time>2015-10-31T09:38:08Z</time></trkpt><trkpt lat="60.321504444444" lon="25.291711388889"><time>2015-10-31T09:38:11Z</time></trkpt><trkpt lat="60.321513333333" lon="25.291766944444"><time>2015-10-31T09:38:13Z</time></trkpt><trkpt lat="60.3215225" lon="25.2919275"><time>2015-10-31T09:38:19Z</time></trkpt><trkpt lat="60.321568888889" lon="25.292018333333"><time>2015-10-31T09:38:24Z</time></trkpt><trkpt lat="60.321591666667" lon="25.292129722222"><time>2015-10-31T09:38:28Z</time></trkpt><trkpt lat="60.3215925" lon="25.292162222222"><time>2015-10-31T09:38:29Z</time></trkpt><trkpt lat="60.321620833333" lon="25.292311111111"><time>2015-10-31T09:38:34Z</time></trkpt><trkpt lat="60.321661666667" lon="25.292362222222"><time>2015-10-31T09:38:38Z</time></trkpt><trkpt lat="60.321676111111" lon="25.292471388889"><time>2015-10-31T09:38:43Z</time></trkpt><trkpt lat="60.321677222222" lon="25.292497222222"><time>2015-10-31T09:38:44Z</time></trkpt><trkpt lat="60.321682777778" lon="25.292579722222"><time>2015-10-31T09:38:48Z</time></trkpt><trkpt lat="60.321703888889" lon="25.292635555556"><time>2015-10-31T09:38:52Z</time></trkpt><trkpt lat="60.321709722222" lon="25.292656388889"><time>2015-10-31T09:38:53Z</time></trkpt><trkpt lat="60.321743888889" lon="25.292788888889"><time>2015-10-31T09:38:59Z</time></trkpt><trkpt lat="60.321755277778" lon="25.292842222222"><time>2015-10-31T09:39:01Z</time></trkpt><trkpt lat="60.321795555556" lon="25.292966111111"><time>2015-10-31T09:39:05Z</time></trkpt><trkpt lat="60.321816388889" lon="25.293073055556"><time>2015-10-31T09:39:08Z</time></trkpt><trkpt lat="60.321831666667" lon="25.293097777778"><time>2015-10-31T09:39:09Z</time></trkpt><trkpt lat="60.321879444444" lon="25.293176944444"><time>2015-10-31T09:39:13Z</time></trkpt><trkpt lat="60.321890277778" lon="25.293243055556"><time>2015-10-31T09:39:14Z</time></trkpt><trkpt lat="60.3219075" lon="25.293389444444"><time>2015-10-31T09:39:18Z</time></trkpt><trkpt lat="60.321913611111" lon="25.293443333333"><time>2015-10-31T09:39:20Z</time></trkpt><trkpt lat="60.321939444444" lon="25.293644444444"><time>2015-10-31T09:39:25Z</time></trkpt><trkpt lat="60.321962222222" lon="25.293695833333"><time>2015-10-31T09:39:27Z</time></trkpt><trkpt lat="60.321995277778" lon="25.293783333333"><time>2015-10-31T09:39:30Z</time></trkpt><trkpt lat="60.322011388889" lon="25.293894444444"><time>2015-10-31T09:39:33Z</time></trkpt><trkpt lat="60.3220125" lon="25.293928055556"><time>2015-10-31T09:39:34Z</time></trkpt><trkpt lat="60.322046944444" lon="25.294097777778"><time>2015-10-31T09:39:40Z</time></trkpt><trkpt lat="60.3220575" lon="25.294150277778"><time>2015-10-31T09:39:42Z</time></trkpt><trkpt lat="60.322083611111" lon="25.294233888889"><time>2015-10-31T09:39:46Z</time></trkpt><trkpt lat="60.3221" lon="25.2942725"><time>2015-10-31T09:39:48Z</time></trkpt><trkpt lat="60.322126388889" lon="25.294374166667"><time>2015-10-31T09:39:53Z</time></trkpt><trkpt lat="60.322166111111" lon="25.294478333333"><time>2015-10-31T09:39:57Z</time></trkpt><trkpt lat="60.322181666667" lon="25.2945975"><time>2015-10-31T09:40:02Z</time></trkpt><trkpt lat="60.322185" lon="25.294647777778"><time>2015-10-31T09:40:06Z</time></trkpt><trkpt lat="60.322180833333" lon="25.294671944444"><time>2015-10-31T09:40:08Z</time></trkpt><trkpt lat="60.322199444444" lon="25.294717222222"><time>2015-10-31T09:40:13Z</time></trkpt><trkpt lat="60.322217222222" lon="25.294777777778"><time>2015-10-31T09:40:17Z</time></trkpt><trkpt lat="60.322265833333" lon="25.294756666667"><time>2015-10-31T09:40:23Z</time></trkpt><trkpt lat="60.322361388889" lon="25.294663611111"><time>2015-10-31T09:40:32Z</time></trkpt><trkpt lat="60.322370555556" lon="25.294659444444"><time>2015-10-31T09:40:33Z</time></trkpt><trkpt lat="60.322398611111" lon="25.294645"><time>2015-10-31T09:40:38Z</time></trkpt><trkpt lat="60.322434166667" lon="25.294628888889"><time>2015-10-31T09:40:44Z</time></trkpt><trkpt lat="60.322447777778" lon="25.294705"><time>2015-10-31T09:40:48Z</time></trkpt><trkpt lat="60.322457222222" lon="25.294716388889"><time>2015-10-31T09:40:49Z</time></trkpt><trkpt lat="60.322489722222" lon="25.2948"><time>2015-10-31T09:40:52Z</time></trkpt><trkpt lat="60.322511388889" lon="25.294823055556"><time>2015-10-31T09:40:54Z</time></trkpt><trkpt lat="60.322570833333" lon="25.294901388889"><time>2015-10-31T09:40:57Z</time></trkpt><trkpt lat="60.322594444444" lon="25.294961666667"><time>2015-10-31T09:40:59Z</time></trkpt><trkpt lat="60.322609166667" lon="25.295021111111"><time>2015-10-31T09:41:01Z</time></trkpt><trkpt lat="60.322661111111" lon="25.295131944444"><time>2015-10-31T09:41:06Z</time></trkpt><trkpt lat="60.322678888889" lon="25.295151388889"><time>2015-10-31T09:41:07Z</time></trkpt><trkpt lat="60.322716944444" lon="25.295218888889"><time>2015-10-31T09:41:10Z</time></trkpt><trkpt lat="60.322741666667" lon="25.295268888889"><time>2015-10-31T09:41:12Z</time></trkpt><trkpt lat="60.322742777778" lon="25.295286944444"><time>2015-10-31T09:41:13Z</time></trkpt><trkpt lat="60.322752222222" lon="25.295322777778"><time>2015-10-31T09:41:15Z</time></trkpt><trkpt lat="60.322782222222" lon="25.295385"><time>2015-10-31T09:41:18Z</time></trkpt><trkpt lat="60.322804166667" lon="25.295417777778"><time>2015-10-31T09:41:20Z</time></trkpt><trkpt lat="60.322823333333" lon="25.295433333333"><time>2015-10-31T09:41:22Z</time></trkpt><trkpt lat="60.322851388889" lon="25.295479444444"><time>2015-10-31T09:41:25Z</time></trkpt><trkpt lat="60.322892777778" lon="25.2955225"><time>2015-10-31T09:41:28Z</time></trkpt><trkpt lat="60.322912777778" lon="25.295552777778"><time>2015-10-31T09:41:30Z</time></trkpt><trkpt lat="60.322926111111" lon="25.295579166667"><time>2015-10-31T09:41:32Z</time></trkpt><trkpt lat="60.322964444444" lon="25.295598055556"><time>2015-10-31T09:41:35Z</time></trkpt><trkpt lat="60.323005833333" lon="25.295638333333"><time>2015-10-31T09:41:40Z</time></trkpt><trkpt lat="60.323035277778" lon="25.295654444444"><time>2015-10-31T09:41:42Z</time></trkpt><trkpt lat="60.323047777778" lon="25.295672777778"><time>2015-10-31T09:41:43Z</time></trkpt><trkpt lat="60.323070277778" lon="25.295684166667"><time>2015-10-31T09:41:45Z</time></trkpt><trkpt lat="60.323111111111" lon="25.295698055556"><time>2015-10-31T09:41:48Z</time></trkpt><trkpt lat="60.323126388889" lon="25.295719722222"><time>2015-10-31T09:41:49Z</time></trkpt><trkpt lat="60.323138333333" lon="25.295737222222"><time>2015-10-31T09:41:50Z</time></trkpt><trkpt lat="60.323156388889" lon="25.295779444444"><time>2015-10-31T09:41:52Z</time></trkpt><trkpt lat="60.323191388889" lon="25.295824444444"><time>2015-10-31T09:41:55Z</time></trkpt><trkpt lat="60.323202222222" lon="25.295831666667"><time>2015-10-31T09:41:56Z</time></trkpt><trkpt lat="60.323276111111" lon="25.295894166667"><time>2015-10-31T09:42:00Z</time></trkpt><trkpt lat="60.323289444444" lon="25.295917222222"><time>2015-10-31T09:42:01Z</time></trkpt><trkpt lat="60.323358888889" lon="25.296052777778"><time>2015-10-31T09:42:06Z</time></trkpt><trkpt lat="60.323378611111" lon="25.2960575"><time>2015-10-31T09:42:07Z</time></trkpt><trkpt lat="60.323446388889" lon="25.296151388889"><time>2015-10-31T09:42:11Z</time></trkpt><trkpt lat="60.323507777778" lon="25.296272222222"><time>2015-10-31T09:42:16Z</time></trkpt><trkpt lat="60.323523611111" lon="25.296298611111"><time>2015-10-31T09:42:17Z</time></trkpt><trkpt lat="60.323550277778" lon="25.296375"><time>2015-10-31T09:42:20Z</time></trkpt><trkpt lat="60.323564722222" lon="25.296433333333"><time>2015-10-31T09:42:22Z</time></trkpt><trkpt lat="60.323579444444" lon="25.296555833333"><time>2015-10-31T09:42:27Z</time></trkpt><trkpt lat="60.323585555556" lon="25.296664166667"><time>2015-10-31T09:42:31Z</time></trkpt><trkpt lat="60.323586666667" lon="25.296686111111"><time>2015-10-31T09:42:32Z</time></trkpt><trkpt lat="60.323603888889" lon="25.296806666667"><time>2015-10-31T09:42:36Z</time></trkpt><trkpt lat="60.323607222222" lon="25.296838333333"><time>2015-10-31T09:42:37Z</time></trkpt><trkpt lat="60.323634444444" lon="25.2969725"><time>2015-10-31T09:42:41Z</time></trkpt><trkpt lat="60.323641111111" lon="25.297115555556"><time>2015-10-31T09:42:44Z</time></trkpt><trkpt lat="60.323642777778" lon="25.29715"><time>2015-10-31T09:42:45Z</time></trkpt><trkpt lat="60.323660277778" lon="25.297314166667"><time>2015-10-31T09:42:50Z</time></trkpt><trkpt lat="60.323676388889" lon="25.297523333333"><time>2015-10-31T09:42:56Z</time></trkpt><trkpt lat="60.323675833333" lon="25.297744722222"><time>2015-10-31T09:43:02Z</time></trkpt><trkpt lat="60.323690277778" lon="25.297910555556"><time>2015-10-31T09:43:08Z</time></trkpt><trkpt lat="60.323705" lon="25.297983888889"><time>2015-10-31T09:43:10Z</time></trkpt><trkpt lat="60.323713611111" lon="25.298028055556"><time>2015-10-31T09:43:12Z</time></trkpt><trkpt lat="60.323724166667" lon="25.298061111111"><time>2015-10-31T09:43:13Z</time></trkpt><trkpt lat="60.323723888889" lon="25.298168888889"><time>2015-10-31T09:43:16Z</time></trkpt><trkpt lat="60.323726388889" lon="25.298221388889"><time>2015-10-31T09:43:18Z</time></trkpt><trkpt lat="60.323736388889" lon="25.298255"><time>2015-10-31T09:43:21Z</time></trkpt><trkpt lat="60.323733333333" lon="25.298259444444"><time>2015-10-31T09:43:22Z</time></trkpt><trkpt lat="60.323771111111" lon="25.298348055556"><time>2015-10-31T09:43:29Z</time></trkpt><trkpt lat="60.323805277778" lon="25.298422777778"><time>2015-10-31T09:43:37Z</time></trkpt><trkpt lat="60.323810277778" lon="25.298448611111"><time>2015-10-31T09:43:47Z</time></trkpt><trkpt lat="60.323824166667" lon="25.298437777778"><time>2015-10-31T09:43:52Z</time></trkpt><trkpt lat="60.323848888889" lon="25.298497777778"><time>2015-10-31T09:43:59Z</time></trkpt><trkpt lat="60.323851666667" lon="25.298513611111"><time>2015-10-31T09:44:04Z</time></trkpt><trkpt lat="60.323791666667" lon="25.298465277778"><time>2015-10-31T09:44:20Z</time></trkpt><trkpt lat="60.32371" lon="25.2984"><time>2015-10-31T09:44:26Z</time></trkpt><trkpt lat="60.323605" lon="25.2983125"><time>2015-10-31T09:44:31Z</time></trkpt><trkpt lat="60.323485833333" lon="25.298193611111"><time>2015-10-31T09:44:37Z</time></trkpt><trkpt lat="60.323385" lon="25.298149166667"><time>2015-10-31T09:44:42Z</time></trkpt><trkpt lat="60.323285277778" lon="25.298131388889"><time>2015-10-31T09:44:47Z</time></trkpt><trkpt lat="60.323261944444" lon="25.298133333333"><time>2015-10-31T09:44:48Z</time></trkpt><trkpt lat="60.323170833333" lon="25.298170555556"><time>2015-10-31T09:44:53Z</time></trkpt><trkpt lat="60.323073888889" lon="25.298248611111"><time>2015-10-31T09:44:58Z</time></trkpt><trkpt lat="60.322917777778" lon="25.298385833333"><time>2015-10-31T09:45:06Z</time></trkpt><trkpt lat="60.322808888889" lon="25.298486944444"><time>2015-10-31T09:45:12Z</time></trkpt><trkpt lat="60.322718611111" lon="25.298569166667"><time>2015-10-31T09:45:17Z</time></trkpt><trkpt lat="60.322659166667" lon="25.298634722222"><time>2015-10-31T09:45:21Z</time></trkpt><trkpt lat="60.322640555556" lon="25.298659166667"><time>2015-10-31T09:45:22Z</time></trkpt><trkpt lat="60.322551388889" lon="25.298703055556"><time>2015-10-31T09:45:27Z</time></trkpt><trkpt lat="60.322545555556" lon="25.298708333333"><time>2015-10-31T09:45:28Z</time></trkpt><trkpt lat="60.322481666667" lon="25.298755833333"><time>2015-10-31T09:45:33Z</time></trkpt><trkpt lat="60.3223975" lon="25.298863888889"><time>2015-10-31T09:45:38Z</time></trkpt><trkpt lat="60.3223525" lon="25.298901666667"><time>2015-10-31T09:45:41Z</time></trkpt><trkpt lat="60.322317222222" lon="25.298897222222"><time>2015-10-31T09:45:43Z</time></trkpt><trkpt lat="60.322239722222" lon="25.298980555556"><time>2015-10-31T09:45:48Z</time></trkpt><trkpt lat="60.322151111111" lon="25.298985277778"><time>2015-10-31T09:45:52Z</time></trkpt><trkpt lat="60.322133055556" lon="25.298975555556"><time>2015-10-31T09:45:53Z</time></trkpt><trkpt lat="60.322051388889" lon="25.299015277778"><time>2015-10-31T09:45:57Z</time></trkpt><trkpt lat="60.322006944444" lon="25.299040555556"><time>2015-10-31T09:45:59Z</time></trkpt><trkpt lat="60.321994166667" lon="25.299059444444"><time>2015-10-31T09:46:00Z</time></trkpt><trkpt lat="60.321944722222" lon="25.299091944444"><time>2015-10-31T09:46:03Z</time></trkpt><trkpt lat="60.3218575" lon="25.299135277778"><time>2015-10-31T09:46:08Z</time></trkpt><trkpt lat="60.321768055556" lon="25.299206666667"><time>2015-10-31T09:46:13Z</time></trkpt><trkpt lat="60.321651666667" lon="25.299297777778"><time>2015-10-31T09:46:19Z</time></trkpt><trkpt lat="60.321578611111" lon="25.299371388889"><time>2015-10-31T09:46:23Z</time></trkpt><trkpt lat="60.321524722222" lon="25.299415"><time>2015-10-31T09:46:27Z</time></trkpt><trkpt lat="60.321516111111" lon="25.2994225"><time>2015-10-31T09:46:29Z</time></trkpt><trkpt lat="60.321500277778" lon="25.299411666667"><time>2015-10-31T09:46:31Z</time></trkpt><trkpt lat="60.321429444444" lon="25.299396111111"><time>2015-10-31T09:46:35Z</time></trkpt><trkpt lat="60.321414722222" lon="25.299381111111"><time>2015-10-31T09:46:36Z</time></trkpt><trkpt lat="60.321366666667" lon="25.299358333333"><time>2015-10-31T09:46:40Z</time></trkpt><trkpt lat="60.321301666667" lon="25.299363888889"><time>2015-10-31T09:46:44Z</time></trkpt><trkpt lat="60.321239722222" lon="25.299318888889"><time>2015-10-31T09:46:48Z</time></trkpt><trkpt lat="60.321185" lon="25.299282222222"><time>2015-10-31T09:46:52Z</time></trkpt><trkpt lat="60.321181111111" lon="25.299279166667"><time>2015-10-31T09:46:53Z</time></trkpt><trkpt lat="60.321137777778" lon="25.299279722222"><time>2015-10-31T09:46:59Z</time></trkpt><trkpt lat="60.321140277778" lon="25.299265"><time>2015-10-31T09:47:02Z</time></trkpt><trkpt lat="60.3211225" lon="25.299264722222"><time>2015-10-31T09:47:10Z</time></trkpt><trkpt lat="60.321085" lon="25.299228888889"><time>2015-10-31T09:47:15Z</time></trkpt><trkpt lat="60.321062222222" lon="25.299224166667"><time>2015-10-31T09:47:17Z</time></trkpt><trkpt lat="60.321039722222" lon="25.299209444444"><time>2015-10-31T09:47:20Z</time></trkpt><trkpt lat="60.320995277778" lon="25.299176666667"><time>2015-10-31T09:47:27Z</time></trkpt><trkpt lat="60.320982222222" lon="25.299173888889"><time>2015-10-31T09:47:28Z</time></trkpt><trkpt lat="60.320946111111" lon="25.299126111111"><time>2015-10-31T09:47:32Z</time></trkpt><trkpt lat="60.3208925" lon="25.299134722222"><time>2015-10-31T09:47:36Z</time></trkpt><trkpt lat="60.320868888889" lon="25.299111944444"><time>2015-10-31T09:47:38Z</time></trkpt><trkpt lat="60.320844166667" lon="25.299107222222"><time>2015-10-31T09:47:41Z</time></trkpt><trkpt lat="60.320818888889" lon="25.299098611111"><time>2015-10-31T09:47:43Z</time></trkpt><trkpt lat="60.320768055556" lon="25.299124722222"><time>2015-10-31T09:47:46Z</time></trkpt><trkpt lat="60.320676111111" lon="25.299150833333"><time>2015-10-31T09:47:51Z</time></trkpt><trkpt lat="60.320635" lon="25.299139166667"><time>2015-10-31T09:47:53Z</time></trkpt><trkpt lat="60.320609166667" lon="25.299181666667"><time>2015-10-31T09:47:54Z</time></trkpt><trkpt lat="60.320604444444" lon="25.299222222222"><time>2015-10-31T09:47:55Z</time></trkpt><trkpt lat="60.320573333333" lon="25.2994225"><time>2015-10-31T09:47:59Z</time></trkpt><trkpt lat="60.320569444444" lon="25.299478888889"><time>2015-10-31T09:48:00Z</time></trkpt><trkpt lat="60.320552222222" lon="25.299772222222"><time>2015-10-31T09:48:06Z</time></trkpt><trkpt lat="60.320573333333" lon="25.299984722222"><time>2015-10-31T09:48:11Z</time></trkpt><trkpt lat="60.32063" lon="25.300126666667"><time>2015-10-31T09:48:16Z</time></trkpt><trkpt lat="60.320699722222" lon="25.3003"><time>2015-10-31T09:48:21Z</time></trkpt><trkpt lat="60.320757222222" lon="25.300537777778"><time>2015-10-31T09:48:27Z</time></trkpt><trkpt lat="60.320798888889" lon="25.300818611111"><time>2015-10-31T09:48:33Z</time></trkpt><trkpt lat="60.320776944444" lon="25.301046666667"><time>2015-10-31T09:48:38Z</time></trkpt><trkpt lat="60.320742222222" lon="25.301281111111"><time>2015-10-31T09:48:43Z</time></trkpt><trkpt lat="60.320691944444" lon="25.301463055556"><time>2015-10-31T09:48:48Z</time></trkpt><trkpt lat="60.320660277778" lon="25.301617222222"><time>2015-10-31T09:48:52Z</time></trkpt><trkpt lat="60.320638611111" lon="25.301698611111"><time>2015-10-31T09:48:55Z</time></trkpt><trkpt lat="60.320606666667" lon="25.301801111111"><time>2015-10-31T09:49:00Z</time></trkpt><trkpt lat="60.320568888889" lon="25.301957777778"><time>2015-10-31T09:49:05Z</time></trkpt><trkpt lat="60.320513611111" lon="25.302214444444"><time>2015-10-31T09:49:11Z</time></trkpt><trkpt lat="60.320465277778" lon="25.302418611111"><time>2015-10-31T09:49:16Z</time></trkpt><trkpt lat="60.320458055556" lon="25.302475555556"><time>2015-10-31T09:49:19Z</time></trkpt><trkpt lat="60.320454166667" lon="25.302475"><time>2015-10-31T09:49:20Z</time></trkpt><trkpt lat="60.320465" lon="25.302493611111"><time>2015-10-31T09:49:21Z</time></trkpt><trkpt lat="60.320457222222" lon="25.302577777778"><time>2015-10-31T09:49:23Z</time></trkpt><trkpt lat="60.320428888889" lon="25.302700277778"><time>2015-10-31T09:49:26Z</time></trkpt><trkpt lat="60.320414444444" lon="25.302793611111"><time>2015-10-31T09:49:29Z</time></trkpt><trkpt lat="60.320385555556" lon="25.302966111111"><time>2015-10-31T09:49:34Z</time></trkpt><trkpt lat="60.320363611111" lon="25.303"><time>2015-10-31T09:49:35Z</time></trkpt><trkpt lat="60.3203375" lon="25.303121944444"><time>2015-10-31T09:49:38Z</time></trkpt><trkpt lat="60.320330833333" lon="25.303162777778"><time>2015-10-31T09:49:39Z</time></trkpt><trkpt lat="60.3202775" lon="25.303377222222"><time>2015-10-31T09:49:44Z</time></trkpt><trkpt lat="60.320223611111" lon="25.303559722222"><time>2015-10-31T09:49:49Z</time></trkpt><trkpt lat="60.320185833333" lon="25.303738333333"><time>2015-10-31T09:49:53Z</time></trkpt><trkpt lat="60.320137222222" lon="25.303936388889"><time>2015-10-31T09:49:58Z</time></trkpt><trkpt lat="60.320082222222" lon="25.304148055556"><time>2015-10-31T09:50:03Z</time></trkpt><trkpt lat="60.320065555556" lon="25.304195"><time>2015-10-31T09:50:05Z</time></trkpt><trkpt lat="60.320045833333" lon="25.304232222222"><time>2015-10-31T09:50:07Z</time></trkpt><trkpt lat="60.319975833333" lon="25.304323888889"><time>2015-10-31T09:50:11Z</time></trkpt><trkpt lat="60.3199325" lon="25.304457777778"><time>2015-10-31T09:50:15Z</time></trkpt><trkpt lat="60.319909722222" lon="25.304580833333"><time>2015-10-31T09:50:19Z</time></trkpt><trkpt lat="60.319896944444" lon="25.304631666667"><time>2015-10-31T09:50:20Z</time></trkpt><trkpt lat="60.319901666667" lon="25.304688888889"><time>2015-10-31T09:50:22Z</time></trkpt><trkpt lat="60.3198975" lon="25.304704444444"><time>2015-10-31T09:50:23Z</time></trkpt><trkpt lat="60.319855" lon="25.304828888889"><time>2015-10-31T09:50:26Z</time></trkpt><trkpt lat="60.319774166667" lon="25.30497"><time>2015-10-31T09:50:31Z</time></trkpt><trkpt lat="60.3197575" lon="25.305002222222"><time>2015-10-31T09:50:33Z</time></trkpt><trkpt lat="60.319730277778" lon="25.305055833333"><time>2015-10-31T09:50:36Z</time></trkpt><trkpt lat="60.319703333333" lon="25.305168611111"><time>2015-10-31T09:50:40Z</time></trkpt><trkpt lat="60.319669166667" lon="25.305276111111"><time>2015-10-31T09:50:44Z</time></trkpt><trkpt lat="60.319607222222" lon="25.305425"><time>2015-10-31T09:50:50Z</time></trkpt><trkpt lat="60.319595555556" lon="25.305459166667"><time>2015-10-31T09:50:51Z</time></trkpt><trkpt lat="60.319549722222" lon="25.30558"><time>2015-10-31T09:50:55Z</time></trkpt><trkpt lat="60.319493888889" lon="25.305743611111"><time>2015-10-31T09:51:00Z</time></trkpt><trkpt lat="60.319426111111" lon="25.305948611111"><time>2015-10-31T09:51:07Z</time></trkpt><trkpt lat="60.319377222222" lon="25.306072222222"><time>2015-10-31T09:51:11Z</time></trkpt><trkpt lat="60.319361666667" lon="25.306133611111"><time>2015-10-31T09:51:13Z</time></trkpt><trkpt lat="60.319335833333" lon="25.306190833333"><time>2015-10-31T09:51:15Z</time></trkpt><trkpt lat="60.319330277778" lon="25.306227222222"><time>2015-10-31T09:51:16Z</time></trkpt><trkpt lat="60.319325277778" lon="25.306253611111"><time>2015-10-31T09:51:17Z</time></trkpt><trkpt lat="60.319267777778" lon="25.306360833333"><time>2015-10-31T09:51:22Z</time></trkpt><trkpt lat="60.319256111111" lon="25.306378888889"><time>2015-10-31T09:51:23Z</time></trkpt><trkpt lat="60.319230833333" lon="25.306425277778"><time>2015-10-31T09:51:25Z</time></trkpt><trkpt lat="60.3191925" lon="25.306518333333"><time>2015-10-31T09:51:28Z</time></trkpt><trkpt lat="60.319125277778" lon="25.306631111111"><time>2015-10-31T09:51:32Z</time></trkpt><trkpt lat="60.319079722222" lon="25.3066825"><time>2015-10-31T09:51:35Z</time></trkpt><trkpt lat="60.319066944444" lon="25.306700277778"><time>2015-10-31T09:51:36Z</time></trkpt><trkpt lat="60.319027777778" lon="25.306741388889"><time>2015-10-31T09:51:38Z</time></trkpt><trkpt lat="60.319006388889" lon="25.306752777778"><time>2015-10-31T09:51:40Z</time></trkpt><trkpt lat="60.318958888889" lon="25.306841666667"><time>2015-10-31T09:51:45Z</time></trkpt><trkpt lat="60.318930833333" lon="25.306895555556"><time>2015-10-31T09:51:48Z</time></trkpt><trkpt lat="60.318887777778" lon="25.306908333333"><time>2015-10-31T09:51:52Z</time></trkpt><trkpt lat="60.318813611111" lon="25.306923333333"><time>2015-10-31T09:51:56Z</time></trkpt><trkpt lat="60.318743333333" lon="25.306902222222"><time>2015-10-31T09:52:01Z</time></trkpt><trkpt lat="60.318718333333" lon="25.306934166667"><time>2015-10-31T09:52:05Z</time></trkpt><trkpt lat="60.318709722222" lon="25.306931388889"><time>2015-10-31T09:52:06Z</time></trkpt><trkpt lat="60.318706388889" lon="25.306956944444"><time>2015-10-31T09:52:07Z</time></trkpt><trkpt lat="60.318664166667" lon="25.307037222222"><time>2015-10-31T09:52:12Z</time></trkpt><trkpt lat="60.318641666667" lon="25.307049166667"><time>2015-10-31T09:52:14Z</time></trkpt><trkpt lat="60.318574444444" lon="25.307076666667"><time>2015-10-31T09:52:20Z</time></trkpt><trkpt lat="60.318506666667" lon="25.307083055556"><time>2015-10-31T09:52:25Z</time></trkpt><trkpt lat="60.318473055556" lon="25.307063333333"><time>2015-10-31T09:52:27Z</time></trkpt><trkpt lat="60.31841" lon="25.306996666667"><time>2015-10-31T09:52:32Z</time></trkpt><trkpt lat="60.318413888889" lon="25.306983333333"><time>2015-10-31T09:52:33Z</time></trkpt><trkpt lat="60.318388055556" lon="25.306910555556"><time>2015-10-31T09:52:36Z</time></trkpt><trkpt lat="60.318339166667" lon="25.306768611111"><time>2015-10-31T09:52:41Z</time></trkpt><trkpt lat="60.318325277778" lon="25.306728611111"><time>2015-10-31T09:52:42Z</time></trkpt><trkpt lat="60.318289166667" lon="25.3066525"><time>2015-10-31T09:52:45Z</time></trkpt><trkpt lat="60.318274444444" lon="25.306634444444"><time>2015-10-31T09:52:46Z</time></trkpt><trkpt lat="60.318228055556" lon="25.306596388889"><time>2015-10-31T09:52:49Z</time></trkpt><trkpt lat="60.318166111111" lon="25.306541111111"><time>2015-10-31T09:52:53Z</time></trkpt><trkpt lat="60.318139166667" lon="25.306531111111"><time>2015-10-31T09:52:55Z</time></trkpt><trkpt lat="60.318115555556" lon="25.306463611111"><time>2015-10-31T09:52:58Z</time></trkpt><trkpt lat="60.318061944444" lon="25.306451666667"><time>2015-10-31T09:53:02Z</time></trkpt><trkpt lat="60.318003333333" lon="25.306454444444"><time>2015-10-31T09:53:07Z</time></trkpt><trkpt lat="60.317954166667" lon="25.306458611111"><time>2015-10-31T09:53:10Z</time></trkpt><trkpt lat="60.31794" lon="25.306473333333"><time>2015-10-31T09:53:12Z</time></trkpt><trkpt lat="60.317925555556" lon="25.3065025"><time>2015-10-31T09:53:14Z</time></trkpt><trkpt lat="60.317917777778" lon="25.306508333333"><time>2015-10-31T09:53:15Z</time></trkpt><trkpt lat="60.317871666667" lon="25.3064975"><time>2015-10-31T09:53:18Z</time></trkpt><trkpt lat="60.317790277778" lon="25.306559444444"><time>2015-10-31T09:53:23Z</time></trkpt><trkpt lat="60.317756388889" lon="25.3065625"><time>2015-10-31T09:53:25Z</time></trkpt><trkpt lat="60.317716111111" lon="25.306584444444"><time>2015-10-31T09:53:28Z</time></trkpt><trkpt lat="60.317673055556" lon="25.306598055556"><time>2015-10-31T09:53:31Z</time></trkpt><trkpt lat="60.317638055556" lon="25.306593888889"><time>2015-10-31T09:53:33Z</time></trkpt><trkpt lat="60.3176275" lon="25.3065875"><time>2015-10-31T09:53:34Z</time></trkpt><trkpt lat="60.31758" lon="25.306554444444"><time>2015-10-31T09:53:37Z</time></trkpt><trkpt lat="60.31758" lon="25.306554444444"><time>2015-10-31T09:53:37Z</time></trkpt><trkpt lat="60.317498333333" lon="25.306555277778"><time>2015-10-31T09:53:41Z</time></trkpt><trkpt lat="60.317428055556" lon="25.306586111111"><time>2015-10-31T09:53:46Z</time></trkpt><trkpt lat="60.317343611111" lon="25.306579166667"><time>2015-10-31T09:53:53Z</time></trkpt><trkpt lat="60.317332222222" lon="25.306588888889"><time>2015-10-31T09:53:55Z</time></trkpt><trkpt lat="60.317306666667" lon="25.306559166667"><time>2015-10-31T09:53:58Z</time></trkpt><trkpt lat="60.317297777778" lon="25.306566944444"><time>2015-10-31T09:53:59Z</time></trkpt><trkpt lat="60.317279166667" lon="25.306584166667"><time>2015-10-31T09:54:03Z</time></trkpt><trkpt lat="60.317263888889" lon="25.306651111111"><time>2015-10-31T09:54:07Z</time></trkpt><trkpt lat="60.317242222222" lon="25.306625555556"><time>2015-10-31T09:54:11Z</time></trkpt><trkpt lat="60.317187777778" lon="25.306625555556"><time>2015-10-31T09:54:17Z</time></trkpt><trkpt lat="60.317175833333" lon="25.306630277778"><time>2015-10-31T09:54:18Z</time></trkpt><trkpt lat="60.317155555556" lon="25.3066475"><time>2015-10-31T09:54:20Z</time></trkpt><trkpt lat="60.317122222222" lon="25.306691666667"><time>2015-10-31T09:54:23Z</time></trkpt><trkpt lat="60.317044444444" lon="25.306770555556"><time>2015-10-31T09:54:28Z</time></trkpt><trkpt lat="60.3170075" lon="25.306773888889"><time>2015-10-31T09:54:30Z</time></trkpt><trkpt lat="60.316981666667" lon="25.306774166667"><time>2015-10-31T09:54:32Z</time></trkpt><trkpt lat="60.316947222222" lon="25.306803611111"><time>2015-10-31T09:54:35Z</time></trkpt><trkpt lat="60.316925277778" lon="25.306828888889"><time>2015-10-31T09:54:38Z</time></trkpt><trkpt lat="60.316913055556" lon="25.306857777778"><time>2015-10-31T09:54:39Z</time></trkpt><trkpt lat="60.316888888889" lon="25.306883055556"><time>2015-10-31T09:54:41Z</time></trkpt><trkpt lat="60.316879166667" lon="25.306896388889"><time>2015-10-31T09:54:42Z</time></trkpt><trkpt lat="60.316838055556" lon="25.306858888889"><time>2015-10-31T09:54:47Z</time></trkpt><trkpt lat="60.316835833333" lon="25.306858055556"><time>2015-10-31T09:54:48Z</time></trkpt><trkpt lat="60.316806111111" lon="25.3069025"><time>2015-10-31T09:54:57Z</time></trkpt><trkpt lat="60.316804444444" lon="25.306968888889"><time>2015-10-31T09:55:06Z</time></trkpt><trkpt lat="60.316831111111" lon="25.307018888889"><time>2015-10-31T09:55:09Z</time></trkpt><trkpt lat="60.316847777778" lon="25.307073055556"><time>2015-10-31T09:55:12Z</time></trkpt><trkpt lat="60.316880277778" lon="25.307176111111"><time>2015-10-31T09:55:18Z</time></trkpt><trkpt lat="60.316948055556" lon="25.307248611111"><time>2015-10-31T09:55:22Z</time></trkpt><trkpt lat="60.317009722222" lon="25.307416111111"><time>2015-10-31T09:55:26Z</time></trkpt><trkpt lat="60.317046944444" lon="25.307546111111"><time>2015-10-31T09:55:30Z</time></trkpt><trkpt lat="60.317080277778" lon="25.307611666667"><time>2015-10-31T09:55:33Z</time></trkpt><trkpt lat="60.317085833333" lon="25.3076875"><time>2015-10-31T09:55:36Z</time></trkpt><trkpt lat="60.317120277778" lon="25.307766666667"><time>2015-10-31T09:55:38Z</time></trkpt><trkpt lat="60.317130555556" lon="25.307866388889"><time>2015-10-31T09:55:41Z</time></trkpt><trkpt lat="60.317155" lon="25.307942777778"><time>2015-10-31T09:55:45Z</time></trkpt><trkpt lat="60.317186944444" lon="25.307986111111"><time>2015-10-31T09:55:49Z</time></trkpt><trkpt lat="60.317223611111" lon="25.308043333333"><time>2015-10-31T09:55:52Z</time></trkpt><trkpt lat="60.317233333333" lon="25.308060833333"><time>2015-10-31T09:55:53Z</time></trkpt><trkpt lat="60.317291944444" lon="25.308091944444"><time>2015-10-31T09:55:57Z</time></trkpt><trkpt lat="60.317333333333" lon="25.308105"><time>2015-10-31T09:55:59Z</time></trkpt><trkpt lat="60.317358055556" lon="25.308116666667"><time>2015-10-31T09:56:01Z</time></trkpt><trkpt lat="60.317402777778" lon="25.308125833333"><time>2015-10-31T09:56:06Z</time></trkpt><trkpt lat="60.317405" lon="25.308136388889"><time>2015-10-31T09:56:07Z</time></trkpt><trkpt lat="60.3174225" lon="25.308134166667"><time>2015-10-31T09:56:08Z</time></trkpt><trkpt lat="60.317440555556" lon="25.308138333333"><time>2015-10-31T09:56:10Z</time></trkpt><trkpt lat="60.317457222222" lon="25.308164444444"><time>2015-10-31T09:56:12Z</time></trkpt><trkpt lat="60.317456944444" lon="25.308184166667"><time>2015-10-31T09:56:13Z</time></trkpt><trkpt lat="60.317484166667" lon="25.30823"><time>2015-10-31T09:56:16Z</time></trkpt><trkpt lat="60.317515" lon="25.308258611111"><time>2015-10-31T09:56:18Z</time></trkpt><trkpt lat="60.3175675" lon="25.308348611111"><time>2015-10-31T09:56:22Z</time></trkpt><trkpt lat="60.317612222222" lon="25.308441111111"><time>2015-10-31T09:56:26Z</time></trkpt><trkpt lat="60.317693888889" lon="25.308523888889"><time>2015-10-31T09:56:32Z</time></trkpt><trkpt lat="60.317711388889" lon="25.308555833333"><time>2015-10-31T09:56:35Z</time></trkpt><trkpt lat="60.317737777778" lon="25.308581944444"><time>2015-10-31T09:56:37Z</time></trkpt><trkpt lat="60.317809722222" lon="25.30863"><time>2015-10-31T09:56:43Z</time></trkpt><trkpt lat="60.317828611111" lon="25.308644722222"><time>2015-10-31T09:56:45Z</time></trkpt><trkpt lat="60.317844722222" lon="25.308646666667"><time>2015-10-31T09:56:47Z</time></trkpt><trkpt lat="60.317860833333" lon="25.308646944444"><time>2015-10-31T09:56:48Z</time></trkpt><trkpt lat="60.317903611111" lon="25.308645277778"><time>2015-10-31T09:56:52Z</time></trkpt><trkpt lat="60.317920277778" lon="25.308647777778"><time>2015-10-31T09:56:53Z</time></trkpt><trkpt lat="60.317955833333" lon="25.308624722222"><time>2015-10-31T09:56:57Z</time></trkpt><trkpt lat="60.317986111111" lon="25.308616666667"><time>2015-10-31T09:57:00Z</time></trkpt><trkpt lat="60.318006944444" lon="25.308605277778"><time>2015-10-31T09:57:02Z</time></trkpt><trkpt lat="60.318059444444" lon="25.308568055556"><time>2015-10-31T09:57:08Z</time></trkpt><trkpt lat="60.318113888889" lon="25.308593055556"><time>2015-10-31T09:57:13Z</time></trkpt><trkpt lat="60.318132222222" lon="25.308653611111"><time>2015-10-31T09:57:17Z</time></trkpt><trkpt lat="60.318191111111" lon="25.308723888889"><time>2015-10-31T09:57:23Z</time></trkpt><trkpt lat="60.318225555556" lon="25.308780277778"><time>2015-10-31T09:57:27Z</time></trkpt><trkpt lat="60.318275833333" lon="25.308804722222"><time>2015-10-31T09:57:31Z</time></trkpt><trkpt lat="60.318370277778" lon="25.308813611111"><time>2015-10-31T09:57:36Z</time></trkpt><trkpt lat="60.318393888889" lon="25.308840277778"><time>2015-10-31T09:57:39Z</time></trkpt><trkpt lat="60.318403888889" lon="25.308853055556"><time>2015-10-31T09:57:41Z</time></trkpt><trkpt lat="60.318486111111" lon="25.3089"><time>2015-10-31T09:57:45Z</time></trkpt><trkpt lat="60.3185975" lon="25.308938333333"><time>2015-10-31T09:57:50Z</time></trkpt><trkpt lat="60.3187325" lon="25.308975833333"><time>2015-10-31T09:57:55Z</time></trkpt><trkpt lat="60.318876944444" lon="25.309026111111"><time>2015-10-31T09:58:01Z</time></trkpt><trkpt lat="60.318896388889" lon="25.309061111111"><time>2015-10-31T09:58:02Z</time></trkpt><trkpt lat="60.318974722222" lon="25.309105833333"><time>2015-10-31T09:58:05Z</time></trkpt><trkpt lat="60.319075277778" lon="25.3092325"><time>2015-10-31T09:58:10Z</time></trkpt><trkpt lat="60.319123888889" lon="25.309278333333"><time>2015-10-31T09:58:12Z</time></trkpt><trkpt lat="60.319215833333" lon="25.309399166667"><time>2015-10-31T09:58:17Z</time></trkpt><trkpt lat="60.319315" lon="25.309518888889"><time>2015-10-31T09:58:22Z</time></trkpt><trkpt lat="60.319395" lon="25.309703055556"><time>2015-10-31T09:58:28Z</time></trkpt><trkpt lat="60.3194325" lon="25.3097675"><time>2015-10-31T09:58:31Z</time></trkpt><trkpt lat="60.319453611111" lon="25.309804444444"><time>2015-10-31T09:58:33Z</time></trkpt><trkpt lat="60.319499444444" lon="25.309902777778"><time>2015-10-31T09:58:38Z</time></trkpt><trkpt lat="60.319544722222" lon="25.3099675"><time>2015-10-31T09:58:42Z</time></trkpt><trkpt lat="60.31956" lon="25.310030277778"><time>2015-10-31T09:58:44Z</time></trkpt><trkpt lat="60.319586388889" lon="25.310135555556"><time>2015-10-31T09:58:48Z</time></trkpt><trkpt lat="60.319597222222" lon="25.310186666667"><time>2015-10-31T09:58:50Z</time></trkpt><trkpt lat="60.319581388889" lon="25.310295555556"><time>2015-10-31T09:58:55Z</time></trkpt><trkpt lat="60.319573333333" lon="25.310474722222"><time>2015-10-31T09:59:03Z</time></trkpt><trkpt lat="60.319566111111" lon="25.310493611111"><time>2015-10-31T09:59:04Z</time></trkpt><trkpt lat="60.319547777778" lon="25.310586388889"><time>2015-10-31T09:59:08Z</time></trkpt><trkpt lat="60.319528611111" lon="25.310669722222"><time>2015-10-31T09:59:11Z</time></trkpt><trkpt lat="60.319505" lon="25.310745277778"><time>2015-10-31T09:59:14Z</time></trkpt><trkpt lat="60.319475277778" lon="25.310853055556"><time>2015-10-31T09:59:18Z</time></trkpt><trkpt lat="60.319469444444" lon="25.310896666667"><time>2015-10-31T09:59:20Z</time></trkpt><trkpt lat="60.319455" lon="25.311009722222"><time>2015-10-31T09:59:24Z</time></trkpt><trkpt lat="60.319459444444" lon="25.311099166667"><time>2015-10-31T09:59:28Z</time></trkpt><trkpt lat="60.31945" lon="25.311138611111"><time>2015-10-31T09:59:29Z</time></trkpt><trkpt lat="60.319420277778" lon="25.311332777778"><time>2015-10-31T09:59:35Z</time></trkpt><trkpt lat="60.319436388889" lon="25.311373888889"><time>2015-10-31T09:59:37Z</time></trkpt><trkpt lat="60.319434444444" lon="25.311443333333"><time>2015-10-31T09:59:39Z</time></trkpt><trkpt lat="60.319408055556" lon="25.311545277778"><time>2015-10-31T09:59:42Z</time></trkpt><trkpt lat="60.319386111111" lon="25.311579444444"><time>2015-10-31T09:59:44Z</time></trkpt><trkpt lat="60.319358611111" lon="25.311715833333"><time>2015-10-31T09:59:49Z</time></trkpt><trkpt lat="60.319320555556" lon="25.311891111111"><time>2015-10-31T09:59:53Z</time></trkpt><trkpt lat="60.319308333333" lon="25.311988333333"><time>2015-10-31T09:59:57Z</time></trkpt><trkpt lat="60.319301944444" lon="25.312030833333"><time>2015-10-31T09:59:58Z</time></trkpt><trkpt lat="60.319256111111" lon="25.312185277778"><time>2015-10-31T10:00:03Z</time></trkpt><trkpt lat="60.319238611111" lon="25.312367222222"><time>2015-10-31T10:00:09Z</time></trkpt><trkpt lat="60.319239166667" lon="25.312478333333"><time>2015-10-31T10:00:13Z</time></trkpt><trkpt lat="60.319245833333" lon="25.312571388889"><time>2015-10-31T10:00:18Z</time></trkpt><trkpt lat="60.319247777778" lon="25.312658611111"><time>2015-10-31T10:00:22Z</time></trkpt><trkpt lat="60.3192325" lon="25.312613888889"><time>2015-10-31T10:00:28Z</time></trkpt><trkpt lat="60.319215277778" lon="25.312554722222"><time>2015-10-31T10:00:32Z</time></trkpt><trkpt lat="60.319258333333" lon="25.312537777778"><time>2015-10-31T10:00:37Z</time></trkpt><trkpt lat="60.319290277778" lon="25.312518611111"><time>2015-10-31T10:00:41Z</time></trkpt><trkpt lat="60.319315277778" lon="25.312530277778"><time>2015-10-31T10:00:43Z</time></trkpt><trkpt lat="60.319326666667" lon="25.312523055556"><time>2015-10-31T10:00:44Z</time></trkpt><trkpt lat="60.319351944444" lon="25.312486111111"><time>2015-10-31T10:00:46Z</time></trkpt><trkpt lat="60.319378888889" lon="25.312476944444"><time>2015-10-31T10:00:48Z</time></trkpt><trkpt lat="60.319455" lon="25.312410277778"><time>2015-10-31T10:00:53Z</time></trkpt><trkpt lat="60.319506388889" lon="25.312326388889"><time>2015-10-31T10:00:57Z</time></trkpt><trkpt lat="60.319519444444" lon="25.312301111111"><time>2015-10-31T10:00:58Z</time></trkpt><trkpt lat="60.319577222222" lon="25.3122775"><time>2015-10-31T10:01:02Z</time></trkpt><trkpt lat="60.319657222222" lon="25.312248333333"><time>2015-10-31T10:01:07Z</time></trkpt><trkpt lat="60.3197425" lon="25.312173333333"><time>2015-10-31T10:01:13Z</time></trkpt><trkpt lat="60.319842777778" lon="25.312044722222"><time>2015-10-31T10:01:19Z</time></trkpt><trkpt lat="60.319850833333" lon="25.312010833333"><time>2015-10-31T10:01:20Z</time></trkpt><trkpt lat="60.319886666667" lon="25.311971944444"><time>2015-10-31T10:01:22Z</time></trkpt><trkpt lat="60.319909166667" lon="25.3119625"><time>2015-10-31T10:01:23Z</time></trkpt><trkpt lat="60.320014166667" lon="25.311888055556"><time>2015-10-31T10:01:28Z</time></trkpt><trkpt lat="60.320154166667" lon="25.311806944444"><time>2015-10-31T10:01:34Z</time></trkpt><trkpt lat="60.320233611111" lon="25.311745"><time>2015-10-31T10:01:38Z</time></trkpt><trkpt lat="60.320253055556" lon="25.311721944444"><time>2015-10-31T10:01:39Z</time></trkpt><trkpt lat="60.320337222222" lon="25.31167"><time>2015-10-31T10:01:43Z</time></trkpt><trkpt lat="60.320376388889" lon="25.311681666667"><time>2015-10-31T10:01:45Z</time></trkpt><trkpt lat="60.320472777778" lon="25.3117625"><time>2015-10-31T10:01:50Z</time></trkpt><trkpt lat="60.320576666667" lon="25.311882222222"><time>2015-10-31T10:01:54Z</time></trkpt><trkpt lat="60.320681111111" lon="25.312019166667"><time>2015-10-31T10:01:59Z</time></trkpt><trkpt lat="60.320806666667" lon="25.312158333333"><time>2015-10-31T10:02:06Z</time></trkpt><trkpt lat="60.320928611111" lon="25.312334444444"><time>2015-10-31T10:02:13Z</time></trkpt><trkpt lat="60.321059166667" lon="25.312486111111"><time>2015-10-31T10:02:19Z</time></trkpt><trkpt lat="60.321150555556" lon="25.312659444444"><time>2015-10-31T10:02:24Z</time></trkpt><trkpt lat="60.32129" lon="25.312769166667"><time>2015-10-31T10:02:30Z</time></trkpt><trkpt lat="60.321425555556" lon="25.312944722222"><time>2015-10-31T10:02:37Z</time></trkpt><trkpt lat="60.321457777778" lon="25.312993611111"><time>2015-10-31T10:02:39Z</time></trkpt><trkpt lat="60.321518611111" lon="25.312997777778"><time>2015-10-31T10:02:42Z</time></trkpt><trkpt lat="60.321614444444" lon="25.312869444444"><time>2015-10-31T10:02:47Z</time></trkpt><trkpt lat="60.321713888889" lon="25.312736111111"><time>2015-10-31T10:02:52Z</time></trkpt><trkpt lat="60.321805833333" lon="25.312674166667"><time>2015-10-31T10:02:56Z</time></trkpt><trkpt lat="60.321831111111" lon="25.3126575"><time>2015-10-31T10:02:57Z</time></trkpt><trkpt lat="60.321919722222" lon="25.312596944444"><time>2015-10-31T10:03:00Z</time></trkpt><trkpt lat="60.321946111111" lon="25.312568055556"><time>2015-10-31T10:03:02Z</time></trkpt><trkpt lat="60.322058888889" lon="25.3124825"><time>2015-10-31T10:03:06Z</time></trkpt><trkpt lat="60.322217222222" lon="25.312371388889"><time>2015-10-31T10:03:13Z</time></trkpt><trkpt lat="60.322335833333" lon="25.312347222222"><time>2015-10-31T10:03:18Z</time></trkpt><trkpt lat="60.322483611111" lon="25.312266388889"><time>2015-10-31T10:03:24Z</time></trkpt><trkpt lat="60.322546944444" lon="25.312125277778"><time>2015-10-31T10:03:29Z</time></trkpt><trkpt lat="60.322623333333" lon="25.311926388889"><time>2015-10-31T10:03:35Z</time></trkpt><trkpt lat="60.322638888889" lon="25.311898055556"><time>2015-10-31T10:03:36Z</time></trkpt><trkpt lat="60.322655277778" lon="25.311833888889"><time>2015-10-31T10:03:38Z</time></trkpt><trkpt lat="60.322682222222" lon="25.311769166667"><time>2015-10-31T10:03:40Z</time></trkpt><trkpt lat="60.322737777778" lon="25.311665277778"><time>2015-10-31T10:03:44Z</time></trkpt><trkpt lat="60.322783888889" lon="25.311541111111"><time>2015-10-31T10:03:49Z</time></trkpt><trkpt lat="60.322848055556" lon="25.311394722222"><time>2015-10-31T10:03:54Z</time></trkpt><trkpt lat="60.322863611111" lon="25.311385277778"><time>2015-10-31T10:03:55Z</time></trkpt><trkpt lat="60.322900555556" lon="25.311358611111"><time>2015-10-31T10:03:58Z</time></trkpt><trkpt lat="60.322982222222" lon="25.311264166667"><time>2015-10-31T10:04:03Z</time></trkpt><trkpt lat="60.323024722222" lon="25.311127777778"><time>2015-10-31T10:04:08Z</time></trkpt><trkpt lat="60.323067777778" lon="25.310976944444"><time>2015-10-31T10:04:12Z</time></trkpt><trkpt lat="60.323119166667" lon="25.3108625"><time>2015-10-31T10:04:16Z</time></trkpt><trkpt lat="60.323211666667" lon="25.310667777778"><time>2015-10-31T10:04:22Z</time></trkpt><trkpt lat="60.323220555556" lon="25.310565833333"><time>2015-10-31T10:04:25Z</time></trkpt><trkpt lat="60.323216666667" lon="25.310510555556"><time>2015-10-31T10:04:27Z</time></trkpt><trkpt lat="60.323212777778" lon="25.310442222222"><time>2015-10-31T10:04:30Z</time></trkpt><trkpt lat="60.323228888889" lon="25.310442222222"><time>2015-10-31T10:04:33Z</time></trkpt><trkpt lat="60.323243055556" lon="25.3104275"><time>2015-10-31T10:04:35Z</time></trkpt><trkpt lat="60.323275" lon="25.310415277778"><time>2015-10-31T10:04:39Z</time></trkpt><trkpt lat="60.323281944444" lon="25.310395555556"><time>2015-10-31T10:04:40Z</time></trkpt><trkpt lat="60.323301944444" lon="25.310384444444"><time>2015-10-31T10:04:42Z</time></trkpt><trkpt lat="60.323309722222" lon="25.310372222222"><time>2015-10-31T10:04:43Z</time></trkpt><trkpt lat="60.323346944444" lon="25.310337222222"><time>2015-10-31T10:04:47Z</time></trkpt><trkpt lat="60.323363055556" lon="25.310269444444"><time>2015-10-31T10:04:49Z</time></trkpt><trkpt lat="60.323358333333" lon="25.310160277778"><time>2015-10-31T10:04:53Z</time></trkpt><trkpt lat="60.323359722222" lon="25.310074166667"><time>2015-10-31T10:04:55Z</time></trkpt><trkpt lat="60.323370277778" lon="25.309971944444"><time>2015-10-31T10:04:57Z</time></trkpt><trkpt lat="60.323371666667" lon="25.309785555556"><time>2015-10-31T10:05:01Z</time></trkpt><trkpt lat="60.323388055556" lon="25.309751388889"><time>2015-10-31T10:05:02Z</time></trkpt><trkpt lat="60.3234375" lon="25.309680833333"><time>2015-10-31T10:05:05Z</time></trkpt><trkpt lat="60.323447222222" lon="25.309669444444"><time>2015-10-31T10:05:06Z</time></trkpt><trkpt lat="60.323495277778" lon="25.309582777778"><time>2015-10-31T10:05:10Z</time></trkpt><trkpt lat="60.323487222222" lon="25.309561666667"><time>2015-10-31T10:05:12Z</time></trkpt><trkpt lat="60.323495" lon="25.309527222222"><time>2015-10-31T10:05:14Z</time></trkpt><trkpt lat="60.323501388889" lon="25.309502222222"><time>2015-10-31T10:05:16Z</time></trkpt><trkpt lat="60.323502777778" lon="25.309469166667"><time>2015-10-31T10:05:18Z</time></trkpt><trkpt lat="60.323550555556" lon="25.309398055556"><time>2015-10-31T10:05:23Z</time></trkpt><trkpt lat="60.323556666667" lon="25.309374444444"><time>2015-10-31T10:05:24Z</time></trkpt><trkpt lat="60.323553888889" lon="25.309300833333"><time>2015-10-31T10:05:26Z</time></trkpt><trkpt lat="60.323561388889" lon="25.309235555556"><time>2015-10-31T10:05:28Z</time></trkpt><trkpt lat="60.323591388889" lon="25.309083888889"><time>2015-10-31T10:05:34Z</time></trkpt><trkpt lat="60.323606944444" lon="25.309072777778"><time>2015-10-31T10:05:35Z</time></trkpt><trkpt lat="60.323636666667" lon="25.309034166667"><time>2015-10-31T10:05:39Z</time></trkpt><trkpt lat="60.323668333333" lon="25.308956666667"><time>2015-10-31T10:05:45Z</time></trkpt><trkpt lat="60.323646944444" lon="25.308907222222"><time>2015-10-31T10:05:50Z</time></trkpt><trkpt lat="60.323651388889" lon="25.308885833333"><time>2015-10-31T10:05:51Z</time></trkpt><trkpt lat="60.323657222222" lon="25.308799166667"><time>2015-10-31T10:05:55Z</time></trkpt><trkpt lat="60.323705" lon="25.308684722222"><time>2015-10-31T10:06:01Z</time></trkpt><trkpt lat="60.323781388889" lon="25.308631666667"><time>2015-10-31T10:06:07Z</time></trkpt><trkpt lat="60.323788333333" lon="25.308600555556"><time>2015-10-31T10:06:09Z</time></trkpt><trkpt lat="60.3238075" lon="25.308551111111"><time>2015-10-31T10:06:11Z</time></trkpt><trkpt lat="60.323858333333" lon="25.308485"><time>2015-10-31T10:06:17Z</time></trkpt><trkpt lat="60.323863888889" lon="25.308487222222"><time>2015-10-31T10:06:18Z</time></trkpt><trkpt lat="60.323901666667" lon="25.308415555556"><time>2015-10-31T10:06:22Z</time></trkpt><trkpt lat="60.323935" lon="25.308276944444"><time>2015-10-31T10:06:27Z</time></trkpt><trkpt lat="60.323949444444" lon="25.308215277778"><time>2015-10-31T10:06:29Z</time></trkpt><trkpt lat="60.323964722222" lon="25.308160277778"><time>2015-10-31T10:06:32Z</time></trkpt><trkpt lat="60.324001944444" lon="25.308029722222"><time>2015-10-31T10:06:36Z</time></trkpt><trkpt lat="60.324028611111" lon="25.307904444444"><time>2015-10-31T10:06:40Z</time></trkpt><trkpt lat="60.324070277778" lon="25.307682777778"><time>2015-10-31T10:06:45Z</time></trkpt><trkpt lat="60.323998055556" lon="25.307516666667"><time>2015-10-31T10:06:49Z</time></trkpt><trkpt lat="60.323931944444" lon="25.307286388889"><time>2015-10-31T10:06:54Z</time></trkpt><trkpt lat="60.323898888889" lon="25.307099444444"><time>2015-10-31T10:06:58Z</time></trkpt><trkpt lat="60.323895277778" lon="25.307045555556"><time>2015-10-31T10:06:59Z</time></trkpt><trkpt lat="60.323898055556" lon="25.306794166667"><time>2015-10-31T10:07:04Z</time></trkpt><trkpt lat="60.323954166667" lon="25.306450277778"><time>2015-10-31T10:07:10Z</time></trkpt><trkpt lat="60.324021111111" lon="25.306143888889"><time>2015-10-31T10:07:16Z</time></trkpt><trkpt lat="60.324078888889" lon="25.305948333333"><time>2015-10-31T10:07:20Z</time></trkpt><trkpt lat="60.324134722222" lon="25.305738611111"><time>2015-10-31T10:07:24Z</time></trkpt><trkpt lat="60.324202222222" lon="25.305491111111"><time>2015-10-31T10:07:29Z</time></trkpt><trkpt lat="60.324282222222" lon="25.305216944444"><time>2015-10-31T10:07:35Z</time></trkpt><trkpt lat="60.324361388889" lon="25.3049825"><time>2015-10-31T10:07:42Z</time></trkpt><trkpt lat="60.324399444444" lon="25.304856944444"><time>2015-10-31T10:07:46Z</time></trkpt><trkpt lat="60.324445277778" lon="25.304707222222"><time>2015-10-31T10:07:51Z</time></trkpt><trkpt lat="60.324459166667" lon="25.304651388889"><time>2015-10-31T10:07:53Z</time></trkpt><trkpt lat="60.324475" lon="25.304591666667"><time>2015-10-31T10:07:56Z</time></trkpt><trkpt lat="60.324481666667" lon="25.304571388889"><time>2015-10-31T10:07:57Z</time></trkpt><trkpt lat="60.324485277778" lon="25.304543333333"><time>2015-10-31T10:07:58Z</time></trkpt><trkpt lat="60.324492222222" lon="25.3044325"><time>2015-10-31T10:08:02Z</time></trkpt><trkpt lat="60.324531111111" lon="25.304287777778"><time>2015-10-31T10:08:07Z</time></trkpt><trkpt lat="60.324554444444" lon="25.304220277778"><time>2015-10-31T10:08:10Z</time></trkpt><trkpt lat="60.324558333333" lon="25.304168888889"><time>2015-10-31T10:08:12Z</time></trkpt><trkpt lat="60.324565" lon="25.3041325"><time>2015-10-31T10:08:14Z</time></trkpt><trkpt lat="60.324589166667" lon="25.304037777778"><time>2015-10-31T10:08:18Z</time></trkpt><trkpt lat="60.324618611111" lon="25.303898888889"><time>2015-10-31T10:08:24Z</time></trkpt><trkpt lat="60.324627222222" lon="25.303765277778"><time>2015-10-31T10:08:30Z</time></trkpt><trkpt lat="60.324624166667" lon="25.303644722222"><time>2015-10-31T10:08:34Z</time></trkpt><trkpt lat="60.324622222222" lon="25.303576944444"><time>2015-10-31T10:08:36Z</time></trkpt><trkpt lat="60.324601388889" lon="25.3034675"><time>2015-10-31T10:08:40Z</time></trkpt><trkpt lat="60.324574166667" lon="25.303366666667"><time>2015-10-31T10:08:44Z</time></trkpt><trkpt lat="60.324574722222" lon="25.303350277778"><time>2015-10-31T10:08:45Z</time></trkpt><trkpt lat="60.32456" lon="25.303276666667"><time>2015-10-31T10:08:48Z</time></trkpt><trkpt lat="60.324561111111" lon="25.303200833333"><time>2015-10-31T10:08:50Z</time></trkpt><trkpt lat="60.324544722222" lon="25.303076388889"><time>2015-10-31T10:08:55Z</time></trkpt><trkpt lat="60.324528888889" lon="25.3029275"><time>2015-10-31T10:09:01Z</time></trkpt><trkpt lat="60.3245175" lon="25.302774722222"><time>2015-10-31T10:09:05Z</time></trkpt><trkpt lat="60.324516111111" lon="25.302637777778"><time>2015-10-31T10:09:10Z</time></trkpt><trkpt lat="60.324491111111" lon="25.3024675"><time>2015-10-31T10:09:15Z</time></trkpt><trkpt lat="60.324473333333" lon="25.302329166667"><time>2015-10-31T10:09:20Z</time></trkpt><trkpt lat="60.324432222222" lon="25.3021925"><time>2015-10-31T10:09:26Z</time></trkpt><trkpt lat="60.324457777778" lon="25.302084722222"><time>2015-10-31T10:09:31Z</time></trkpt><trkpt lat="60.324446111111" lon="25.302007777778"><time>2015-10-31T10:09:34Z</time></trkpt><trkpt lat="60.324444166667" lon="25.301998888889"><time>2015-10-31T10:09:35Z</time></trkpt><trkpt lat="60.324443888889" lon="25.301935833333"><time>2015-10-31T10:09:38Z</time></trkpt><trkpt lat="60.32444" lon="25.301786666667"><time>2015-10-31T10:09:44Z</time></trkpt><trkpt lat="60.324415" lon="25.301666388889"><time>2015-10-31T10:09:48Z</time></trkpt><trkpt lat="60.324426388889" lon="25.301541388889"><time>2015-10-31T10:09:53Z</time></trkpt><trkpt lat="60.324429444444" lon="25.301444166667"><time>2015-10-31T10:09:56Z</time></trkpt><trkpt lat="60.324436944444" lon="25.301419444444"><time>2015-10-31T10:09:57Z</time></trkpt><trkpt lat="60.324444166667" lon="25.301391666667"><time>2015-10-31T10:09:58Z</time></trkpt><trkpt lat="60.324431388889" lon="25.301268333333"><time>2015-10-31T10:10:02Z</time></trkpt><trkpt lat="60.324413055556" lon="25.301171388889"><time>2015-10-31T10:10:05Z</time></trkpt><trkpt lat="60.324406944444" lon="25.30116"><time>2015-10-31T10:10:06Z</time></trkpt><trkpt lat="60.324385555556" lon="25.301134444444"><time>2015-10-31T10:10:07Z</time></trkpt><trkpt lat="60.324388888889" lon="25.301101666667"><time>2015-10-31T10:10:09Z</time></trkpt><trkpt lat="60.3244025" lon="25.301053888889"><time>2015-10-31T10:10:11Z</time></trkpt><trkpt lat="60.3244" lon="25.301027777778"><time>2015-10-31T10:10:12Z</time></trkpt><trkpt lat="60.324400833333" lon="25.300981388889"><time>2015-10-31T10:10:14Z</time></trkpt><trkpt lat="60.324408333333" lon="25.300860833333"><time>2015-10-31T10:10:18Z</time></trkpt><trkpt lat="60.324418055556" lon="25.30075"><time>2015-10-31T10:10:23Z</time></trkpt><trkpt lat="60.324419166667" lon="25.300656666667"><time>2015-10-31T10:10:27Z</time></trkpt><trkpt lat="60.324412777778" lon="25.300604722222"><time>2015-10-31T10:10:29Z</time></trkpt><trkpt lat="60.324396388889" lon="25.300559722222"><time>2015-10-31T10:10:31Z</time></trkpt><trkpt lat="60.324375277778" lon="25.300445555556"><time>2015-10-31T10:10:35Z</time></trkpt><trkpt lat="60.324363611111" lon="25.300331944444"><time>2015-10-31T10:10:40Z</time></trkpt><trkpt lat="60.324351666667" lon="25.300292777778"><time>2015-10-31T10:10:42Z</time></trkpt><trkpt lat="60.324343611111" lon="25.3002375"><time>2015-10-31T10:10:44Z</time></trkpt><trkpt lat="60.324326111111" lon="25.300153888889"><time>2015-10-31T10:10:47Z</time></trkpt><trkpt lat="60.3243125" lon="25.300105"><time>2015-10-31T10:10:49Z</time></trkpt><trkpt lat="60.324316666667" lon="25.299949444444"><time>2015-10-31T10:10:53Z</time></trkpt><trkpt lat="60.324300833333" lon="25.299884166667"><time>2015-10-31T10:10:56Z</time></trkpt><trkpt lat="60.324289166667" lon="25.299834166667"><time>2015-10-31T10:10:58Z</time></trkpt><trkpt lat="60.3242725" lon="25.299814722222"><time>2015-10-31T10:10:59Z</time></trkpt><trkpt lat="60.32426" lon="25.299760833333"><time>2015-10-31T10:11:02Z</time></trkpt><trkpt lat="60.324234166667" lon="25.299693888889"><time>2015-10-31T10:11:05Z</time></trkpt><trkpt lat="60.324228611111" lon="25.299656944444"><time>2015-10-31T10:11:06Z</time></trkpt><trkpt lat="60.3241825" lon="25.299596111111"><time>2015-10-31T10:11:10Z</time></trkpt><trkpt lat="60.324180555556" lon="25.299590555556"><time>2015-10-31T10:11:11Z</time></trkpt><trkpt lat="60.324151666667" lon="25.299544722222"><time>2015-10-31T10:11:13Z</time></trkpt><trkpt lat="60.3241525" lon="25.299518333333"><time>2015-10-31T10:11:14Z</time></trkpt><trkpt lat="60.324144722222" lon="25.299458055556"><time>2015-10-31T10:11:17Z</time></trkpt><trkpt lat="60.324098333333" lon="25.2993725"><time>2015-10-31T10:11:22Z</time></trkpt><trkpt lat="60.324076111111" lon="25.299330833333"><time>2015-10-31T10:11:24Z</time></trkpt><trkpt lat="60.3240675" lon="25.299262777778"><time>2015-10-31T10:11:27Z</time></trkpt><trkpt lat="60.324038055556" lon="25.299114722222"><time>2015-10-31T10:11:32Z</time></trkpt><trkpt lat="60.324032777778" lon="25.299087777778"><time>2015-10-31T10:11:33Z</time></trkpt><trkpt lat="60.324011666667" lon="25.29893"><time>2015-10-31T10:11:37Z</time></trkpt><trkpt lat="60.323998888889" lon="25.298881944444"><time>2015-10-31T10:11:39Z</time></trkpt><trkpt lat="60.323967777778" lon="25.2988275"><time>2015-10-31T10:11:42Z</time></trkpt><trkpt lat="60.323856111111" lon="25.298705555556"><time>2015-10-31T10:11:52Z</time></trkpt><trkpt lat="60.323766111111" lon="25.298610833333"><time>2015-10-31T10:12:00Z</time></trkpt><trkpt lat="60.323741111111" lon="25.298581944444"><time>2015-10-31T10:12:03Z</time></trkpt><trkpt lat="60.323749722222" lon="25.298587222222"><time>2015-10-31T10:12:06Z</time></trkpt><trkpt lat="60.32377" lon="25.298608611111"><time>2015-10-31T10:12:12Z</time></trkpt><trkpt lat="60.323795277778" lon="25.298620277778"><time>2015-10-31T10:12:20Z</time></trkpt><trkpt lat="60.323818333333" lon="25.298593888889"><time>2015-10-31T10:12:27Z</time></trkpt><trkpt lat="60.323821666667" lon="25.298567222222"><time>2015-10-31T10:12:37Z</time></trkpt><trkpt lat="60.323824722222" lon="25.298587222222"><time>2015-10-31T10:12:51Z</time></trkpt><trkpt lat="60.323786111111" lon="25.298546388889"><time>2015-10-31T10:13:04Z</time></trkpt><trkpt lat="60.323776111111" lon="25.29854"><time>2015-10-31T10:13:05Z</time></trkpt><trkpt lat="60.323731111111" lon="25.298498333333"><time>2015-10-31T10:13:11Z</time></trkpt><trkpt lat="60.323635277778" lon="25.2983875"><time>2015-10-31T10:13:19Z</time></trkpt><trkpt lat="60.323529166667" lon="25.298265277778"><time>2015-10-31T10:13:26Z</time></trkpt><trkpt lat="60.323420555556" lon="25.298187222222"><time>2015-10-31T10:13:31Z</time></trkpt><trkpt lat="60.323301388889" lon="25.298162222222"><time>2015-10-31T10:13:37Z</time></trkpt><trkpt lat="60.323187222222" lon="25.298187222222"><time>2015-10-31T10:13:43Z</time></trkpt><trkpt lat="60.323099166667" lon="25.2982425"><time>2015-10-31T10:13:48Z</time></trkpt><trkpt lat="60.32295" lon="25.298356388889"><time>2015-10-31T10:13:55Z</time></trkpt><trkpt lat="60.322827222222" lon="25.298444444444"><time>2015-10-31T10:14:01Z</time></trkpt><trkpt lat="60.322791111111" lon="25.298424722222"><time>2015-10-31T10:14:03Z</time></trkpt><trkpt lat="60.322753888889" lon="25.298368333333"><time>2015-10-31T10:14:05Z</time></trkpt><trkpt lat="60.322635" lon="25.298258888889"><time>2015-10-31T10:14:11Z</time></trkpt><trkpt lat="60.322535" lon="25.2981925"><time>2015-10-31T10:14:15Z</time></trkpt><trkpt lat="60.322436666667" lon="25.298190833333"><time>2015-10-31T10:14:20Z</time></trkpt><trkpt lat="60.322296111111" lon="25.298183611111"><time>2015-10-31T10:14:27Z</time></trkpt><trkpt lat="60.322276666667" lon="25.298204444444"><time>2015-10-31T10:14:28Z</time></trkpt><trkpt lat="60.322194722222" lon="25.298234166667"><time>2015-10-31T10:14:32Z</time></trkpt><trkpt lat="60.322081388889" lon="25.29824"><time>2015-10-31T10:14:37Z</time></trkpt><trkpt lat="60.322026388889" lon="25.298241111111"><time>2015-10-31T10:14:41Z</time></trkpt><trkpt lat="60.321964722222" lon="25.298246111111"><time>2015-10-31T10:14:46Z</time></trkpt><trkpt lat="60.321881666667" lon="25.298311666667"><time>2015-10-31T10:14:52Z</time></trkpt><trkpt lat="60.321838055556" lon="25.298355833333"><time>2015-10-31T10:14:55Z</time></trkpt><trkpt lat="60.321828611111" lon="25.29835"><time>2015-10-31T10:14:56Z</time></trkpt><trkpt lat="60.321768611111" lon="25.298290277778"><time>2015-10-31T10:15:00Z</time></trkpt><trkpt lat="60.321748333333" lon="25.298295833333"><time>2015-10-31T10:15:01Z</time></trkpt><trkpt lat="60.321699166667" lon="25.298264722222"><time>2015-10-31T10:15:04Z</time></trkpt><trkpt lat="60.321685277778" lon="25.298241388889"><time>2015-10-31T10:15:05Z</time></trkpt><trkpt lat="60.321631944444" lon="25.298085555556"><time>2015-10-31T10:15:10Z</time></trkpt><trkpt lat="60.321613611111" lon="25.298037222222"><time>2015-10-31T10:15:14Z</time></trkpt><trkpt lat="60.321614722222" lon="25.298025555556"><time>2015-10-31T10:15:15Z</time></trkpt><trkpt lat="60.321603611111" lon="25.297988333333"><time>2015-10-31T10:15:18Z</time></trkpt><trkpt lat="60.321573611111" lon="25.297963611111"><time>2015-10-31T10:15:20Z</time></trkpt><trkpt lat="60.3215375" lon="25.2979975"><time>2015-10-31T10:15:22Z</time></trkpt><trkpt lat="60.321498055556" lon="25.29803"><time>2015-10-31T10:15:24Z</time></trkpt><trkpt lat="60.321439444444" lon="25.298098611111"><time>2015-10-31T10:15:28Z</time></trkpt><trkpt lat="60.321425555556" lon="25.298120277778"><time>2015-10-31T10:15:29Z</time></trkpt><trkpt lat="60.321361388889" lon="25.298181944444"><time>2015-10-31T10:15:33Z</time></trkpt><trkpt lat="60.321283611111" lon="25.298256111111"><time>2015-10-31T10:15:38Z</time></trkpt><trkpt lat="60.321252777778" lon="25.2982825"><time>2015-10-31T10:15:40Z</time></trkpt><trkpt lat="60.321239722222" lon="25.298282777778"><time>2015-10-31T10:15:41Z</time></trkpt><trkpt lat="60.321193611111" lon="25.298329166667"><time>2015-10-31T10:15:43Z</time></trkpt><trkpt lat="60.321110555556" lon="25.298373055556"><time>2015-10-31T10:15:48Z</time></trkpt><trkpt lat="60.321057222222" lon="25.298400277778"><time>2015-10-31T10:15:51Z</time></trkpt><trkpt lat="60.321018888889" lon="25.29842"><time>2015-10-31T10:15:52Z</time></trkpt><trkpt lat="60.320954166667" lon="25.298473055556"><time>2015-10-31T10:15:56Z</time></trkpt><trkpt lat="60.320899722222" lon="25.298549722222"><time>2015-10-31T10:16:00Z</time></trkpt><trkpt lat="60.320884166667" lon="25.298579166667"><time>2015-10-31T10:16:01Z</time></trkpt><trkpt lat="60.320836666667" lon="25.298691388889"><time>2015-10-31T10:16:06Z</time></trkpt><trkpt lat="60.320779166667" lon="25.298751111111"><time>2015-10-31T10:16:10Z</time></trkpt><trkpt lat="60.3207325" lon="25.298749166667"><time>2015-10-31T10:16:13Z</time></trkpt><trkpt lat="60.320673055556" lon="25.298746388889"><time>2015-10-31T10:16:16Z</time></trkpt><trkpt lat="60.320608333333" lon="25.298765833333"><time>2015-10-31T10:16:21Z</time></trkpt><trkpt lat="60.320549722222" lon="25.298896944444"><time>2015-10-31T10:16:25Z</time></trkpt><trkpt lat="60.320540277778" lon="25.298915"><time>2015-10-31T10:16:26Z</time></trkpt><trkpt lat="60.320525" lon="25.298925277778"><time>2015-10-31T10:16:27Z</time></trkpt><trkpt lat="60.320471111111" lon="25.298960833333"><time>2015-10-31T10:16:29Z</time></trkpt><trkpt lat="60.320354722222" lon="25.298935555556"><time>2015-10-31T10:16:33Z</time></trkpt><trkpt lat="60.32022" lon="25.298877222222"><time>2015-10-31T10:16:38Z</time></trkpt><trkpt lat="60.320116111111" lon="25.298803888889"><time>2015-10-31T10:16:43Z</time></trkpt><trkpt lat="60.320093888889" lon="25.298789166667"><time>2015-10-31T10:16:44Z</time></trkpt><trkpt lat="60.319992222222" lon="25.298775"><time>2015-10-31T10:16:48Z</time></trkpt><trkpt lat="60.319957777778" lon="25.298739722222"><time>2015-10-31T10:16:50Z</time></trkpt><trkpt lat="60.319876666667" lon="25.298664722222"><time>2015-10-31T10:16:55Z</time></trkpt><trkpt lat="60.319835" lon="25.298611388889"><time>2015-10-31T10:17:00Z</time></trkpt><trkpt lat="60.3198" lon="25.298576111111"><time>2015-10-31T10:17:03Z</time></trkpt><trkpt lat="60.319778333333" lon="25.298532222222"><time>2015-10-31T10:17:05Z</time></trkpt><trkpt lat="60.319726111111" lon="25.298469722222"><time>2015-10-31T10:17:08Z</time></trkpt><trkpt lat="60.319699166667" lon="25.298411666667"><time>2015-10-31T10:17:10Z</time></trkpt><trkpt lat="60.3196375" lon="25.298341388889"><time>2015-10-31T10:17:14Z</time></trkpt><trkpt lat="60.319609444444" lon="25.298260277778"><time>2015-10-31T10:17:17Z</time></trkpt><trkpt lat="60.319561666667" lon="25.298035"><time>2015-10-31T10:17:21Z</time></trkpt><trkpt lat="60.319596388889" lon="25.297919166667"><time>2015-10-31T10:17:25Z</time></trkpt><trkpt lat="60.319603888889" lon="25.297900833333"><time>2015-10-31T10:17:26Z</time></trkpt><trkpt lat="60.319640833333" lon="25.2977625"><time>2015-10-31T10:17:30Z</time></trkpt><trkpt lat="60.319648611111" lon="25.297725"><time>2015-10-31T10:17:31Z</time></trkpt><trkpt lat="60.319678055556" lon="25.297565555556"><time>2015-10-31T10:17:35Z</time></trkpt><trkpt lat="60.319712777778" lon="25.297494444444"><time>2015-10-31T10:17:37Z</time></trkpt><trkpt lat="60.319739444444" lon="25.297430833333"><time>2015-10-31T10:17:39Z</time></trkpt><trkpt lat="60.319787222222" lon="25.297285277778"><time>2015-10-31T10:17:43Z</time></trkpt><trkpt lat="60.319778611111" lon="25.297188888889"><time>2015-10-31T10:17:45Z</time></trkpt><trkpt lat="60.319760833333" lon="25.297025"><time>2015-10-31T10:17:48Z</time></trkpt><trkpt lat="60.319738888889" lon="25.296913333333"><time>2015-10-31T10:17:51Z</time></trkpt><trkpt lat="60.319723611111" lon="25.296833888889"><time>2015-10-31T10:17:53Z</time></trkpt><trkpt lat="60.319684722222" lon="25.296778611111"><time>2015-10-31T10:17:55Z</time></trkpt><trkpt lat="60.319635833333" lon="25.296645555556"><time>2015-10-31T10:18:00Z</time></trkpt><trkpt lat="60.319615555556" lon="25.29659"><time>2015-10-31T10:18:03Z</time></trkpt><trkpt lat="60.3196075" lon="25.296505277778"><time>2015-10-31T10:18:06Z</time></trkpt><trkpt lat="60.319587222222" lon="25.296338611111"><time>2015-10-31T10:18:13Z</time></trkpt><trkpt lat="60.3195775" lon="25.296136944444"><time>2015-10-31T10:18:20Z</time></trkpt><trkpt lat="60.319576944444" lon="25.295883055556"><time>2015-10-31T10:18:26Z</time></trkpt><trkpt lat="60.319565555556" lon="25.295665555556"><time>2015-10-31T10:18:31Z</time></trkpt><trkpt lat="60.319552222222" lon="25.295513611111"><time>2015-10-31T10:18:35Z</time></trkpt><trkpt lat="60.319568055556" lon="25.295435"><time>2015-10-31T10:18:37Z</time></trkpt><trkpt lat="60.319614444444" lon="25.295255277778"><time>2015-10-31T10:18:42Z</time></trkpt><trkpt lat="60.319581944444" lon="25.295104444444"><time>2015-10-31T10:18:46Z</time></trkpt><trkpt lat="60.319531944444" lon="25.294944166667"><time>2015-10-31T10:18:50Z</time></trkpt><trkpt lat="60.319515277778" lon="25.294886111111"><time>2015-10-31T10:18:52Z</time></trkpt><trkpt lat="60.319490277778" lon="25.294823611111"><time>2015-10-31T10:18:54Z</time></trkpt><trkpt lat="60.319446666667" lon="25.294722777778"><time>2015-10-31T10:18:59Z</time></trkpt><trkpt lat="60.319416111111" lon="25.2946075"><time>2015-10-31T10:19:03Z</time></trkpt><trkpt lat="60.319412222222" lon="25.294554444444"><time>2015-10-31T10:19:04Z</time></trkpt><trkpt lat="60.319393055556" lon="25.294435833333"><time>2015-10-31T10:19:07Z</time></trkpt><trkpt lat="60.319366666667" lon="25.294276111111"><time>2015-10-31T10:19:11Z</time></trkpt><trkpt lat="60.319361388889" lon="25.294238611111"><time>2015-10-31T10:19:12Z</time></trkpt><trkpt lat="60.319360833333" lon="25.294145833333"><time>2015-10-31T10:19:14Z</time></trkpt><trkpt lat="60.319374166667" lon="25.294006388889"><time>2015-10-31T10:19:17Z</time></trkpt><trkpt lat="60.319376666667" lon="25.293817777778"><time>2015-10-31T10:19:22Z</time></trkpt><trkpt lat="60.319320277778" lon="25.293698611111"><time>2015-10-31T10:19:26Z</time></trkpt><trkpt lat="60.319223055556" lon="25.293635833333"><time>2015-10-31T10:19:31Z</time></trkpt><trkpt lat="60.319119166667" lon="25.2935675"><time>2015-10-31T10:19:36Z</time></trkpt><trkpt lat="60.319032222222" lon="25.293628333333"><time>2015-10-31T10:19:41Z</time></trkpt><trkpt lat="60.319014722222" lon="25.293628611111"><time>2015-10-31T10:19:42Z</time></trkpt><trkpt lat="60.318969722222" lon="25.293614166667"><time>2015-10-31T10:19:45Z</time></trkpt><trkpt lat="60.318914166667" lon="25.2936375"><time>2015-10-31T10:19:49Z</time></trkpt><trkpt lat="60.318873888889" lon="25.293589166667"><time>2015-10-31T10:19:54Z</time></trkpt><trkpt lat="60.318822777778" lon="25.293569722222"><time>2015-10-31T10:19:58Z</time></trkpt><trkpt lat="60.318781111111" lon="25.293561111111"><time>2015-10-31T10:20:01Z</time></trkpt><trkpt lat="60.318762222222" lon="25.293561666667"><time>2015-10-31T10:20:03Z</time></trkpt><trkpt lat="60.318752777778" lon="25.293551944444"><time>2015-10-31T10:20:04Z</time></trkpt><trkpt lat="60.31874" lon="25.293526111111"><time>2015-10-31T10:20:06Z</time></trkpt><trkpt lat="60.318724722222" lon="25.293516666667"><time>2015-10-31T10:20:07Z</time></trkpt><trkpt lat="60.318676944444" lon="25.293497222222"><time>2015-10-31T10:20:13Z</time></trkpt><trkpt lat="60.318651944444" lon="25.293508888889"><time>2015-10-31T10:20:14Z</time></trkpt><trkpt lat="60.318618333333" lon="25.293504166667"><time>2015-10-31T10:20:16Z</time></trkpt><trkpt lat="60.3185775" lon="25.293456111111"><time>2015-10-31T10:20:19Z</time></trkpt><trkpt lat="60.318582222222" lon="25.293363055556"><time>2015-10-31T10:20:24Z</time></trkpt><trkpt lat="60.318543333333" lon="25.293238611111"><time>2015-10-31T10:20:28Z</time></trkpt><trkpt lat="60.318496666667" lon="25.293165555556"><time>2015-10-31T10:20:31Z</time></trkpt><trkpt lat="60.318496666667" lon="25.293143611111"><time>2015-10-31T10:20:32Z</time></trkpt><trkpt lat="60.318448611111" lon="25.293048333333"><time>2015-10-31T10:20:36Z</time></trkpt><trkpt lat="60.318386111111" lon="25.292926666667"><time>2015-10-31T10:20:40Z</time></trkpt><trkpt lat="60.318358055556" lon="25.292872222222"><time>2015-10-31T10:20:42Z</time></trkpt><trkpt lat="60.318342222222" lon="25.292820555556"><time>2015-10-31T10:20:44Z</time></trkpt><trkpt lat="60.318261111111" lon="25.292676666667"><time>2015-10-31T10:20:48Z</time></trkpt><trkpt lat="60.318225277778" lon="25.292600277778"><time>2015-10-31T10:20:51Z</time></trkpt><trkpt lat="60.318216944444" lon="25.292552222222"><time>2015-10-31T10:20:53Z</time></trkpt><trkpt lat="60.318227777778" lon="25.292376666667"><time>2015-10-31T10:20:59Z</time></trkpt><trkpt lat="60.318231111111" lon="25.292283888889"><time>2015-10-31T10:21:02Z</time></trkpt><trkpt lat="60.318242222222" lon="25.292246111111"><time>2015-10-31T10:21:03Z</time></trkpt><trkpt lat="60.318234722222" lon="25.292214722222"><time>2015-10-31T10:21:04Z</time></trkpt><trkpt lat="60.318232222222" lon="25.292140833333"><time>2015-10-31T10:21:07Z</time></trkpt><trkpt lat="60.318168611111" lon="25.2920025"><time>2015-10-31T10:21:11Z</time></trkpt><trkpt lat="60.318159166667" lon="25.291929444444"><time>2015-10-31T10:21:13Z</time></trkpt><trkpt lat="60.318138333333" lon="25.291856666667"><time>2015-10-31T10:21:15Z</time></trkpt><trkpt lat="60.318089166667" lon="25.291731111111"><time>2015-10-31T10:21:20Z</time></trkpt><trkpt lat="60.318093888889" lon="25.291728611111"><time>2015-10-31T10:21:21Z</time></trkpt><trkpt lat="60.318077777778" lon="25.291687777778"><time>2015-10-31T10:21:23Z</time></trkpt><trkpt lat="60.318073611111" lon="25.291659722222"><time>2015-10-31T10:21:24Z</time></trkpt><trkpt lat="60.318010277778" lon="25.291593333333"><time>2015-10-31T10:21:28Z</time></trkpt><trkpt lat="60.317994166667" lon="25.291539722222"><time>2015-10-31T10:21:32Z</time></trkpt><trkpt lat="60.3179825" lon="25.291531944444"><time>2015-10-31T10:21:33Z</time></trkpt><trkpt lat="60.317949166667" lon="25.291471666667"><time>2015-10-31T10:21:37Z</time></trkpt><trkpt lat="60.317936944444" lon="25.291444166667"><time>2015-10-31T10:21:38Z</time></trkpt><trkpt lat="60.317936944444" lon="25.291414166667"><time>2015-10-31T10:21:39Z</time></trkpt><trkpt lat="60.317910833333" lon="25.291386111111"><time>2015-10-31T10:21:41Z</time></trkpt><trkpt lat="60.317843611111" lon="25.291344166667"><time>2015-10-31T10:21:44Z</time></trkpt><trkpt lat="60.317830277778" lon="25.291341666667"><time>2015-10-31T10:21:45Z</time></trkpt><trkpt lat="60.31782" lon="25.291316388889"><time>2015-10-31T10:21:46Z</time></trkpt><trkpt lat="60.317778055556" lon="25.291211666667"><time>2015-10-31T10:21:50Z</time></trkpt><trkpt lat="60.317772222222" lon="25.291196111111"><time>2015-10-31T10:21:51Z</time></trkpt><trkpt lat="60.317755555556" lon="25.291166111111"><time>2015-10-31T10:21:52Z</time></trkpt><trkpt lat="60.317742777778" lon="25.291123055556"><time>2015-10-31T10:21:54Z</time></trkpt><trkpt lat="60.317731111111" lon="25.291101666667"><time>2015-10-31T10:21:55Z</time></trkpt><trkpt lat="60.317705277778" lon="25.29105"><time>2015-10-31T10:21:58Z</time></trkpt><trkpt lat="60.31769" lon="25.291025555556"><time>2015-10-31T10:21:59Z</time></trkpt><trkpt lat="60.317639722222" lon="25.290930833333"><time>2015-10-31T10:22:03Z</time></trkpt><trkpt lat="60.317623611111" lon="25.290882777778"><time>2015-10-31T10:22:06Z</time></trkpt><trkpt lat="60.317566111111" lon="25.290831388889"><time>2015-10-31T10:22:09Z</time></trkpt><trkpt lat="60.317546666667" lon="25.290824166667"><time>2015-10-31T10:22:10Z</time></trkpt><trkpt lat="60.317521388889" lon="25.290791111111"><time>2015-10-31T10:22:14Z</time></trkpt><trkpt lat="60.317494722222" lon="25.290745833333"><time>2015-10-31T10:22:16Z</time></trkpt><trkpt lat="60.317486666667" lon="25.290701388889"><time>2015-10-31T10:22:18Z</time></trkpt><trkpt lat="60.317486111111" lon="25.290645"><time>2015-10-31T10:22:21Z</time></trkpt><trkpt lat="60.317454722222" lon="25.290583333333"><time>2015-10-31T10:22:25Z</time></trkpt><trkpt lat="60.317340833333" lon="25.290441388889"><time>2015-10-31T10:22:32Z</time></trkpt><trkpt lat="60.317267222222" lon="25.290340277778"><time>2015-10-31T10:22:36Z</time></trkpt><trkpt lat="60.317243333333" lon="25.290288611111"><time>2015-10-31T10:22:38Z</time></trkpt><trkpt lat="60.317199166667" lon="25.290218611111"><time>2015-10-31T10:22:41Z</time></trkpt><trkpt lat="60.317172222222" lon="25.290143611111"><time>2015-10-31T10:22:44Z</time></trkpt><trkpt lat="60.317147777778" lon="25.289986388889"><time>2015-10-31T10:22:50Z</time></trkpt><trkpt lat="60.317109722222" lon="25.289941666667"><time>2015-10-31T10:22:52Z</time></trkpt><trkpt lat="60.317092777778" lon="25.289910277778"><time>2015-10-31T10:22:53Z</time></trkpt><trkpt lat="60.317071388889" lon="25.289877222222"><time>2015-10-31T10:22:55Z</time></trkpt><trkpt lat="60.317018888889" lon="25.289811388889"><time>2015-10-31T10:22:58Z</time></trkpt><trkpt lat="60.317015" lon="25.289786944444"><time>2015-10-31T10:22:59Z</time></trkpt><trkpt lat="60.317001666667" lon="25.289733055556"><time>2015-10-31T10:23:02Z</time></trkpt><trkpt lat="60.316969722222" lon="25.289685833333"><time>2015-10-31T10:23:05Z</time></trkpt><trkpt lat="60.316920277778" lon="25.289606388889"><time>2015-10-31T10:23:09Z</time></trkpt><trkpt lat="60.316902777778" lon="25.289574166667"><time>2015-10-31T10:23:11Z</time></trkpt><trkpt lat="60.316853333333" lon="25.289531388889"><time>2015-10-31T10:23:15Z</time></trkpt><trkpt lat="60.316820833333" lon="25.289516111111"><time>2015-10-31T10:23:17Z</time></trkpt><trkpt lat="60.3168025" lon="25.289502777778"><time>2015-10-31T10:23:19Z</time></trkpt><trkpt lat="60.316787222222" lon="25.289503055556"><time>2015-10-31T10:23:20Z</time></trkpt><trkpt lat="60.316751388889" lon="25.289480833333"><time>2015-10-31T10:23:22Z</time></trkpt><trkpt lat="60.316715833333" lon="25.289365833333"><time>2015-10-31T10:23:27Z</time></trkpt><trkpt lat="60.316705833333" lon="25.289349166667"><time>2015-10-31T10:23:28Z</time></trkpt><trkpt lat="60.316652222222" lon="25.289261944444"><time>2015-10-31T10:23:33Z</time></trkpt><trkpt lat="60.316611666667" lon="25.289171111111"><time>2015-10-31T10:23:39Z</time></trkpt><trkpt lat="60.316609722222" lon="25.2891325"><time>2015-10-31T10:23:41Z</time></trkpt><trkpt lat="60.316525833333" lon="25.289004722222"><time>2015-10-31T10:23:47Z</time></trkpt><trkpt lat="60.316511666667" lon="25.288970833333"><time>2015-10-31T10:23:50Z</time></trkpt><trkpt lat="60.3164975" lon="25.288943611111"><time>2015-10-31T10:23:52Z</time></trkpt><trkpt lat="60.316476111111" lon="25.288894166667"><time>2015-10-31T10:23:55Z</time></trkpt><trkpt lat="60.316468611111" lon="25.288883055556"><time>2015-10-31T10:23:56Z</time></trkpt><trkpt lat="60.316446666667" lon="25.288845277778"><time>2015-10-31T10:23:58Z</time></trkpt><trkpt lat="60.316395833333" lon="25.288808611111"><time>2015-10-31T10:24:02Z</time></trkpt><trkpt lat="60.316374166667" lon="25.288783333333"><time>2015-10-31T10:24:04Z</time></trkpt><trkpt lat="60.316339722222" lon="25.288730277778"><time>2015-10-31T10:24:08Z</time></trkpt><trkpt lat="60.316329444444" lon="25.288717777778"><time>2015-10-31T10:24:09Z</time></trkpt><trkpt lat="60.316280833333" lon="25.288627222222"><time>2015-10-31T10:24:14Z</time></trkpt><trkpt lat="60.316254166667" lon="25.288595"><time>2015-10-31T10:24:16Z</time></trkpt><trkpt lat="60.316241666667" lon="25.288585"><time>2015-10-31T10:24:17Z</time></trkpt><trkpt lat="60.316188888889" lon="25.288575"><time>2015-10-31T10:24:21Z</time></trkpt><trkpt lat="60.316177222222" lon="25.2885775"><time>2015-10-31T10:24:22Z</time></trkpt><trkpt lat="60.3161425" lon="25.288583888889"><time>2015-10-31T10:24:25Z</time></trkpt><trkpt lat="60.316086944444" lon="25.288586388889"><time>2015-10-31T10:24:28Z</time></trkpt><trkpt lat="60.316074444444" lon="25.288575833333"><time>2015-10-31T10:24:29Z</time></trkpt><trkpt lat="60.316054722222" lon="25.288564722222"><time>2015-10-31T10:24:31Z</time></trkpt><trkpt lat="60.316005277778" lon="25.288531388889"><time>2015-10-31T10:24:35Z</time></trkpt><trkpt lat="60.315946111111" lon="25.288494166667"><time>2015-10-31T10:24:39Z</time></trkpt><trkpt lat="60.315945833333" lon="25.288483055556"><time>2015-10-31T10:24:40Z</time></trkpt><trkpt lat="60.315910277778" lon="25.288469166667"><time>2015-10-31T10:24:48Z</time></trkpt><trkpt lat="60.315865555556" lon="25.288474444444"><time>2015-10-31T10:24:54Z</time></trkpt><trkpt lat="60.315808055556" lon="25.288534444444"><time>2015-10-31T10:25:01Z</time></trkpt><trkpt lat="60.315778333333" lon="25.288516666667"><time>2015-10-31T10:25:02Z</time></trkpt><trkpt lat="60.315754444444" lon="25.288509722222"><time>2015-10-31T10:25:05Z</time></trkpt><trkpt lat="60.315736388889" lon="25.288548611111"><time>2015-10-31T10:25:06Z</time></trkpt><trkpt lat="60.315709166667" lon="25.28859"><time>2015-10-31T10:25:08Z</time></trkpt><trkpt lat="60.315665833333" lon="25.2886375"><time>2015-10-31T10:25:12Z</time></trkpt><trkpt lat="60.315640833333" lon="25.288666666667"><time>2015-10-31T10:25:14Z</time></trkpt><trkpt lat="60.3156175" lon="25.288693055556"><time>2015-10-31T10:25:16Z</time></trkpt><trkpt lat="60.315580833333" lon="25.288713611111"><time>2015-10-31T10:25:20Z</time></trkpt><trkpt lat="60.315549166667" lon="25.288748611111"><time>2015-10-31T10:25:22Z</time></trkpt><trkpt lat="60.315516666667" lon="25.288776666667"><time>2015-10-31T10:25:25Z</time></trkpt><trkpt lat="60.315413611111" lon="25.288783888889"><time>2015-10-31T10:25:31Z</time></trkpt><trkpt lat="60.315388611111" lon="25.288803611111"><time>2015-10-31T10:25:33Z</time></trkpt><trkpt lat="60.3153525" lon="25.288827777778"><time>2015-10-31T10:25:35Z</time></trkpt><trkpt lat="60.315327222222" lon="25.2888575"><time>2015-10-31T10:25:38Z</time></trkpt><trkpt lat="60.315283055556" lon="25.288913611111"><time>2015-10-31T10:25:42Z</time></trkpt><trkpt lat="60.315268055556" lon="25.288908611111"><time>2015-10-31T10:25:43Z</time></trkpt><trkpt lat="60.315158333333" lon="25.288953611111"><time>2015-10-31T10:25:49Z</time></trkpt><trkpt lat="60.315147777778" lon="25.288980277778"><time>2015-10-31T10:25:50Z</time></trkpt><trkpt lat="60.315119722222" lon="25.289023611111"><time>2015-10-31T10:25:53Z</time></trkpt><trkpt lat="60.315089166667" lon="25.289073888889"><time>2015-10-31T10:25:56Z</time></trkpt><trkpt lat="60.31508" lon="25.289092777778"><time>2015-10-31T10:25:57Z</time></trkpt><trkpt lat="60.315038888889" lon="25.289116388889"><time>2015-10-31T10:26:00Z</time></trkpt><trkpt lat="60.315021666667" lon="25.289122222222"><time>2015-10-31T10:26:02Z</time></trkpt><trkpt lat="60.314978611111" lon="25.289134444444"><time>2015-10-31T10:26:06Z</time></trkpt><trkpt lat="60.314947222222" lon="25.289138611111"><time>2015-10-31T10:26:08Z</time></trkpt><trkpt lat="60.314914166667" lon="25.289149444444"><time>2015-10-31T10:26:10Z</time></trkpt><trkpt lat="60.314873333333" lon="25.289201388889"><time>2015-10-31T10:26:14Z</time></trkpt><trkpt lat="60.314840277778" lon="25.289275"><time>2015-10-31T10:26:16Z</time></trkpt><trkpt lat="60.314763611111" lon="25.289316111111"><time>2015-10-31T10:26:20Z</time></trkpt><trkpt lat="60.314710833333" lon="25.289321944444"><time>2015-10-31T10:26:23Z</time></trkpt><trkpt lat="60.314692222222" lon="25.289319444444"><time>2015-10-31T10:26:24Z</time></trkpt><trkpt lat="60.314619166667" lon="25.289299166667"><time>2015-10-31T10:26:29Z</time></trkpt><trkpt lat="60.314558888889" lon="25.289288611111"><time>2015-10-31T10:26:34Z</time></trkpt><trkpt lat="60.314548333333" lon="25.289276944444"><time>2015-10-31T10:26:35Z</time></trkpt><trkpt lat="60.314545833333" lon="25.289275833333"><time>2015-10-31T10:26:36Z</time></trkpt><trkpt lat="60.314541388889" lon="25.289251944444"><time>2015-10-31T10:26:38Z</time></trkpt><trkpt lat="60.314538055556" lon="25.289233611111"><time>2015-10-31T10:26:40Z</time></trkpt><trkpt lat="60.314527222222" lon="25.289214722222"><time>2015-10-31T10:26:41Z</time></trkpt><trkpt lat="60.314476388889" lon="25.289120833333"><time>2015-10-31T10:26:46Z</time></trkpt><trkpt lat="60.314458333333" lon="25.289055555556"><time>2015-10-31T10:26:48Z</time></trkpt><trkpt lat="60.314448888889" lon="25.288985833333"><time>2015-10-31T10:26:50Z</time></trkpt><trkpt lat="60.314462222222" lon="25.288952222222"><time>2015-10-31T10:26:51Z</time></trkpt><trkpt lat="60.314479722222" lon="25.288912777778"><time>2015-10-31T10:26:53Z</time></trkpt><trkpt lat="60.314492222222" lon="25.288869166667"><time>2015-10-31T10:26:55Z</time></trkpt><trkpt lat="60.314502222222" lon="25.288813611111"><time>2015-10-31T10:26:57Z</time></trkpt><trkpt lat="60.3145" lon="25.288781666667"><time>2015-10-31T10:26:58Z</time></trkpt><trkpt lat="60.314503888889" lon="25.288693055556"><time>2015-10-31T10:27:01Z</time></trkpt><trkpt lat="60.3145175" lon="25.2886075"><time>2015-10-31T10:27:04Z</time></trkpt><trkpt lat="60.314530277778" lon="25.288591111111"><time>2015-10-31T10:27:05Z</time></trkpt><trkpt lat="60.314531666667" lon="25.288568611111"><time>2015-10-31T10:27:06Z</time></trkpt><trkpt lat="60.314548888889" lon="25.288500277778"><time>2015-10-31T10:27:09Z</time></trkpt><trkpt lat="60.314559166667" lon="25.288481944444"><time>2015-10-31T10:27:10Z</time></trkpt><trkpt lat="60.314565" lon="25.288481111111"><time>2015-10-31T10:27:11Z</time></trkpt><trkpt lat="60.3145825" lon="25.288441666667"><time>2015-10-31T10:27:14Z</time></trkpt><trkpt lat="60.3145875" lon="25.288358333333"><time>2015-10-31T10:27:17Z</time></trkpt><trkpt lat="60.314590277778" lon="25.288328055556"><time>2015-10-31T10:27:19Z</time></trkpt><trkpt lat="60.314584166667" lon="25.288301388889"><time>2015-10-31T10:27:20Z</time></trkpt><trkpt lat="60.314583611111" lon="25.288237222222"><time>2015-10-31T10:27:24Z</time></trkpt><trkpt lat="60.314606388889" lon="25.288190277778"><time>2015-10-31T10:27:28Z</time></trkpt><trkpt lat="60.314618333333" lon="25.288152222222"><time>2015-10-31T10:27:31Z</time></trkpt><trkpt lat="60.314631388889" lon="25.288046388889"><time>2015-10-31T10:27:35Z</time></trkpt><trkpt lat="60.314618333333" lon="25.288019444444"><time>2015-10-31T10:27:36Z</time></trkpt><trkpt lat="60.314610555556" lon="25.287950833333"><time>2015-10-31T10:27:39Z</time></trkpt><trkpt lat="60.3146075" lon="25.2879"><time>2015-10-31T10:27:41Z</time></trkpt><trkpt lat="60.314609722222" lon="25.287874166667"><time>2015-10-31T10:27:42Z</time></trkpt><trkpt lat="60.3146075" lon="25.287775555556"><time>2015-10-31T10:27:46Z</time></trkpt><trkpt lat="60.3146" lon="25.287737777778"><time>2015-10-31T10:27:48Z</time></trkpt><trkpt lat="60.314596111111" lon="25.287723055556"><time>2015-10-31T10:27:49Z</time></trkpt><trkpt lat="60.314599444444" lon="25.287697777778"><time>2015-10-31T10:27:50Z</time></trkpt><trkpt lat="60.314610277778" lon="25.287636944444"><time>2015-10-31T10:27:53Z</time></trkpt><trkpt lat="60.314609166667" lon="25.287616666667"><time>2015-10-31T10:27:54Z</time></trkpt><trkpt lat="60.314608333333" lon="25.287556388889"><time>2015-10-31T10:27:57Z</time></trkpt><trkpt lat="60.314628611111" lon="25.287520277778"><time>2015-10-31T10:28:00Z</time></trkpt><trkpt lat="60.314630277778" lon="25.287458611111"><time>2015-10-31T10:28:02Z</time></trkpt><trkpt lat="60.314625277778" lon="25.287415"><time>2015-10-31T10:28:04Z</time></trkpt><trkpt lat="60.3146125" lon="25.287311111111"><time>2015-10-31T10:28:08Z</time></trkpt><trkpt lat="60.314614166667" lon="25.287213611111"><time>2015-10-31T10:28:12Z</time></trkpt><trkpt lat="60.314615277778" lon="25.287172777778"><time>2015-10-31T10:28:14Z</time></trkpt><trkpt lat="60.3146175" lon="25.2871225"><time>2015-10-31T10:28:16Z</time></trkpt><trkpt lat="60.314615833333" lon="25.287057777778"><time>2015-10-31T10:28:18Z</time></trkpt><trkpt lat="60.314606111111" lon="25.286973055556"><time>2015-10-31T10:28:21Z</time></trkpt><trkpt lat="60.314604166667" lon="25.286925833333"><time>2015-10-31T10:28:23Z</time></trkpt><trkpt lat="60.314586944444" lon="25.286864166667"><time>2015-10-31T10:28:25Z</time></trkpt><trkpt lat="60.314585" lon="25.286822777778"><time>2015-10-31T10:28:26Z</time></trkpt><trkpt lat="60.314577777778" lon="25.286791944444"><time>2015-10-31T10:28:27Z</time></trkpt><trkpt lat="60.314537777778" lon="25.286710277778"><time>2015-10-31T10:28:30Z</time></trkpt><trkpt lat="60.314538611111" lon="25.286680555556"><time>2015-10-31T10:28:31Z</time></trkpt><trkpt lat="60.314525555556" lon="25.286639722222"><time>2015-10-31T10:28:32Z</time></trkpt><trkpt lat="60.314512777778" lon="25.286569444444"><time>2015-10-31T10:28:35Z</time></trkpt><trkpt lat="60.314507222222" lon="25.286430277778"><time>2015-10-31T10:28:40Z</time></trkpt><trkpt lat="60.314520555556" lon="25.286273333333"><time>2015-10-31T10:28:46Z</time></trkpt><trkpt lat="60.314539722222" lon="25.286143055556"><time>2015-10-31T10:28:52Z</time></trkpt><trkpt lat="60.314543888889" lon="25.286118333333"><time>2015-10-31T10:28:56Z</time></trkpt><trkpt lat="60.314554722222" lon="25.286084166667"><time>2015-10-31T10:29:02Z</time></trkpt><trkpt lat="60.314557777778" lon="25.286068333333"><time>2015-10-31T10:29:03Z</time></trkpt><trkpt lat="60.314582777778" lon="25.286030833333"><time>2015-10-31T10:29:06Z</time></trkpt><trkpt lat="60.314591388889" lon="25.285998888889"><time>2015-10-31T10:29:08Z</time></trkpt><trkpt lat="60.31461" lon="25.285945555556"><time>2015-10-31T10:29:11Z</time></trkpt><trkpt lat="60.314652222222" lon="25.285903333333"><time>2015-10-31T10:29:14Z</time></trkpt><trkpt lat="60.314691388889" lon="25.285904722222"><time>2015-10-31T10:29:17Z</time></trkpt><trkpt lat="60.314720833333" lon="25.285832777778"><time>2015-10-31T10:29:20Z</time></trkpt><trkpt lat="60.3147675" lon="25.285751944444"><time>2015-10-31T10:29:23Z</time></trkpt><trkpt lat="60.314790277778" lon="25.285747222222"><time>2015-10-31T10:29:25Z</time></trkpt><trkpt lat="60.314810277778" lon="25.28576"><time>2015-10-31T10:29:27Z</time></trkpt><trkpt lat="60.314821111111" lon="25.285786944444"><time>2015-10-31T10:29:30Z</time></trkpt><trkpt lat="60.314844722222" lon="25.2857925"><time>2015-10-31T10:29:32Z</time></trkpt><trkpt lat="60.314872777778" lon="25.285776388889"><time>2015-10-31T10:29:34Z</time></trkpt><trkpt lat="60.314883333333" lon="25.285762777778"><time>2015-10-31T10:29:36Z</time></trkpt><trkpt lat="60.314898888889" lon="25.285736111111"><time>2015-10-31T10:29:38Z</time></trkpt><trkpt lat="60.314989166667" lon="25.285654444444"><time>2015-10-31T10:29:44Z</time></trkpt><trkpt lat="60.315006388889" lon="25.285623333333"><time>2015-10-31T10:29:46Z</time></trkpt><trkpt lat="60.315028888889" lon="25.285637777778"><time>2015-10-31T10:29:48Z</time></trkpt><trkpt lat="60.315056388889" lon="25.285650277778"><time>2015-10-31T10:29:50Z</time></trkpt><trkpt lat="60.315108055556" lon="25.285606111111"><time>2015-10-31T10:29:53Z</time></trkpt><trkpt lat="60.3151325" lon="25.285586666667"><time>2015-10-31T10:29:55Z</time></trkpt><trkpt lat="60.315150555556" lon="25.285583888889"><time>2015-10-31T10:29:56Z</time></trkpt><trkpt lat="60.315171666667" lon="25.285580833333"><time>2015-10-31T10:29:58Z</time></trkpt><trkpt lat="60.315218333333" lon="25.285615833333"><time>2015-10-31T10:30:01Z</time></trkpt><trkpt lat="60.315218611111" lon="25.285622222222"><time>2015-10-31T10:30:02Z</time></trkpt><trkpt lat="60.315268055556" lon="25.285658888889"><time>2015-10-31T10:30:05Z</time></trkpt><trkpt lat="60.315288888889" lon="25.285685555556"><time>2015-10-31T10:30:07Z</time></trkpt><trkpt lat="60.315394444444" lon="25.285754444444"><time>2015-10-31T10:30:20Z</time></trkpt><trkpt lat="60.315410555556" lon="25.285787222222"><time>2015-10-31T10:30:22Z</time></trkpt><trkpt lat="60.315420277778" lon="25.285834166667"><time>2015-10-31T10:30:25Z</time></trkpt><trkpt lat="60.315426388889" lon="25.285849722222"><time>2015-10-31T10:30:26Z</time></trkpt><trkpt lat="60.315430833333" lon="25.285905833333"><time>2015-10-31T10:30:28Z</time></trkpt><trkpt lat="60.3154375" lon="25.285950555556"><time>2015-10-31T10:30:30Z</time></trkpt><trkpt lat="60.315435833333" lon="25.285960555556"><time>2015-10-31T10:30:31Z</time></trkpt><trkpt lat="60.315453888889" lon="25.286043055556"><time>2015-10-31T10:30:34Z</time></trkpt><trkpt lat="60.315465" lon="25.286090555556"><time>2015-10-31T10:30:36Z</time></trkpt><trkpt lat="60.315481944444" lon="25.286153888889"><time>2015-10-31T10:30:39Z</time></trkpt><trkpt lat="60.315486388889" lon="25.286167222222"><time>2015-10-31T10:30:40Z</time></trkpt><trkpt lat="60.315498611111" lon="25.286195277778"><time>2015-10-31T10:30:41Z</time></trkpt><trkpt lat="60.315494722222" lon="25.286261944444"><time>2015-10-31T10:30:44Z</time></trkpt><trkpt lat="60.315488055556" lon="25.286307777778"><time>2015-10-31T10:30:46Z</time></trkpt><trkpt lat="60.31548" lon="25.286350833333"><time>2015-10-31T10:30:48Z</time></trkpt><trkpt lat="60.315480833333" lon="25.286386388889"><time>2015-10-31T10:30:50Z</time></trkpt><trkpt lat="60.315465833333" lon="25.286449166667"><time>2015-10-31T10:30:53Z</time></trkpt><trkpt lat="60.315501666667" lon="25.286526666667"><time>2015-10-31T10:30:57Z</time></trkpt><trkpt lat="60.31552" lon="25.286568611111"><time>2015-10-31T10:30:59Z</time></trkpt><trkpt lat="60.315533055556" lon="25.286644166667"><time>2015-10-31T10:31:02Z</time></trkpt><trkpt lat="60.315538333333" lon="25.286708055556"><time>2015-10-31T10:31:04Z</time></trkpt><trkpt lat="60.315545" lon="25.286775"><time>2015-10-31T10:31:06Z</time></trkpt><trkpt lat="60.315556944444" lon="25.286827777778"><time>2015-10-31T10:31:08Z</time></trkpt><trkpt lat="60.315578055556" lon="25.286884166667"><time>2015-10-31T10:31:10Z</time></trkpt><trkpt lat="60.3155975" lon="25.286938611111"><time>2015-10-31T10:31:12Z</time></trkpt><trkpt lat="60.315609444444" lon="25.286990833333"><time>2015-10-31T10:31:14Z</time></trkpt><trkpt lat="60.3156175" lon="25.287007222222"><time>2015-10-31T10:31:15Z</time></trkpt><trkpt lat="60.315619722222" lon="25.287047222222"><time>2015-10-31T10:31:16Z</time></trkpt><trkpt lat="60.315639166667" lon="25.287103888889"><time>2015-10-31T10:31:19Z</time></trkpt><trkpt lat="60.315642777778" lon="25.287163333333"><time>2015-10-31T10:31:21Z</time></trkpt><trkpt lat="60.315641666667" lon="25.287207777778"><time>2015-10-31T10:31:23Z</time></trkpt><trkpt lat="60.315651388889" lon="25.287266111111"><time>2015-10-31T10:31:25Z</time></trkpt><trkpt lat="60.315666666667" lon="25.287321388889"><time>2015-10-31T10:31:27Z</time></trkpt><trkpt lat="60.315670833333" lon="25.287347222222"><time>2015-10-31T10:31:29Z</time></trkpt><trkpt lat="60.315678888889" lon="25.287395555556"><time>2015-10-31T10:31:31Z</time></trkpt><trkpt lat="60.315694444444" lon="25.287480833333"><time>2015-10-31T10:31:35Z</time></trkpt><trkpt lat="60.315706111111" lon="25.287513611111"><time>2015-10-31T10:31:36Z</time></trkpt><trkpt lat="60.315716388889" lon="25.287615"><time>2015-10-31T10:31:41Z</time></trkpt><trkpt lat="60.315720555556" lon="25.287635833333"><time>2015-10-31T10:31:42Z</time></trkpt><trkpt lat="60.315721388889" lon="25.287686944444"><time>2015-10-31T10:31:45Z</time></trkpt><trkpt lat="60.315719722222" lon="25.287746111111"><time>2015-10-31T10:31:46Z</time></trkpt><trkpt lat="60.315723333333" lon="25.287829722222"><time>2015-10-31T10:31:48Z</time></trkpt><trkpt lat="60.315726111111" lon="25.287868333333"><time>2015-10-31T10:31:49Z</time></trkpt><trkpt lat="60.315744444444" lon="25.287955"><time>2015-10-31T10:31:52Z</time></trkpt><trkpt lat="60.315769722222" lon="25.287988888889"><time>2015-10-31T10:31:56Z</time></trkpt><trkpt lat="60.315769722222" lon="25.2880075"><time>2015-10-31T10:31:58Z</time></trkpt><trkpt lat="60.315793055556" lon="25.2880225"><time>2015-10-31T10:32:02Z</time></trkpt><trkpt lat="60.315808333333" lon="25.288018055556"><time>2015-10-31T10:32:04Z</time></trkpt><trkpt lat="60.315822222222" lon="25.288030555556"><time>2015-10-31T10:32:06Z</time></trkpt><trkpt lat="60.315881388889" lon="25.288027777778"><time>2015-10-31T10:32:13Z</time></trkpt><trkpt lat="60.315915555556" lon="25.287975"><time>2015-10-31T10:32:17Z</time></trkpt><trkpt lat="60.31592" lon="25.287942222222"><time>2015-10-31T10:32:19Z</time></trkpt><trkpt lat="60.315917222222" lon="25.287897222222"><time>2015-10-31T10:32:21Z</time></trkpt><trkpt lat="60.315914444444" lon="25.287816666667"><time>2015-10-31T10:32:24Z</time></trkpt><trkpt lat="60.315926388889" lon="25.287730277778"><time>2015-10-31T10:32:27Z</time></trkpt><trkpt lat="60.31589" lon="25.287710833333"><time>2015-10-31T10:32:29Z</time></trkpt><trkpt lat="60.315874444444" lon="25.287657222222"><time>2015-10-31T10:32:32Z</time></trkpt><trkpt lat="60.3158925" lon="25.287590277778"><time>2015-10-31T10:32:34Z</time></trkpt><trkpt lat="60.315899444444" lon="25.28753"><time>2015-10-31T10:32:36Z</time></trkpt><trkpt lat="60.315905833333" lon="25.287354166667"><time>2015-10-31T10:32:41Z</time></trkpt><trkpt lat="60.315933611111" lon="25.287231111111"><time>2015-10-31T10:32:45Z</time></trkpt><trkpt lat="60.315965277778" lon="25.287010833333"><time>2015-10-31T10:32:51Z</time></trkpt><trkpt lat="60.315960277778" lon="25.286928333333"><time>2015-10-31T10:32:54Z</time></trkpt><trkpt lat="60.3159475" lon="25.286873333333"><time>2015-10-31T10:32:56Z</time></trkpt><trkpt lat="60.3159475" lon="25.286873333333"><time>2015-10-31T10:32:56Z</time></trkpt><trkpt lat="60.315970833333" lon="25.286690277778"><time>2015-10-31T10:33:02Z</time></trkpt><trkpt lat="60.315990833333" lon="25.286584722222"><time>2015-10-31T10:33:06Z</time></trkpt><trkpt lat="60.316" lon="25.2865325"><time>2015-10-31T10:33:08Z</time></trkpt><trkpt lat="60.316011666667" lon="25.286331666667"><time>2015-10-31T10:33:14Z</time></trkpt><trkpt lat="60.316016111111" lon="25.286271388889"><time>2015-10-31T10:33:16Z</time></trkpt><trkpt lat="60.316026666667" lon="25.2862075"><time>2015-10-31T10:33:18Z</time></trkpt><trkpt lat="60.3160225" lon="25.286173611111"><time>2015-10-31T10:33:19Z</time></trkpt><trkpt lat="60.316038055556" lon="25.286061666667"><time>2015-10-31T10:33:23Z</time></trkpt><trkpt lat="60.316057777778" lon="25.286031388889"><time>2015-10-31T10:33:25Z</time></trkpt><trkpt lat="60.3160575" lon="25.285999166667"><time>2015-10-31T10:33:26Z</time></trkpt><trkpt lat="60.316065833333" lon="25.28593"><time>2015-10-31T10:33:28Z</time></trkpt><trkpt lat="60.316081666667" lon="25.285803055556"><time>2015-10-31T10:33:32Z</time></trkpt><trkpt lat="60.316096666667" lon="25.285620277778"><time>2015-10-31T10:33:38Z</time></trkpt><trkpt lat="60.316111666667" lon="25.285563888889"><time>2015-10-31T10:33:40Z</time></trkpt><trkpt lat="60.316112777778" lon="25.285451666667"><time>2015-10-31T10:33:43Z</time></trkpt><trkpt lat="60.316103611111" lon="25.285375555556"><time>2015-10-31T10:33:45Z</time></trkpt><trkpt lat="60.3161025" lon="25.285338888889"><time>2015-10-31T10:33:46Z</time></trkpt><trkpt lat="60.316108055556" lon="25.285272777778"><time>2015-10-31T10:33:48Z</time></trkpt><trkpt lat="60.316139166667" lon="25.285167777778"><time>2015-10-31T10:33:52Z</time></trkpt><trkpt lat="60.3161525" lon="25.285100833333"><time>2015-10-31T10:33:55Z</time></trkpt><trkpt lat="60.316181666667" lon="25.284998611111"><time>2015-10-31T10:33:59Z</time></trkpt><trkpt lat="60.316179166667" lon="25.284868611111"><time>2015-10-31T10:34:03Z</time></trkpt><trkpt lat="60.316191111111" lon="25.284793888889"><time>2015-10-31T10:34:05Z</time></trkpt><trkpt lat="60.316203888889" lon="25.284763888889"><time>2015-10-31T10:34:06Z</time></trkpt><trkpt lat="60.316218611111" lon="25.284695555556"><time>2015-10-31T10:34:09Z</time></trkpt><trkpt lat="60.316211944444" lon="25.284640833333"><time>2015-10-31T10:34:11Z</time></trkpt><trkpt lat="60.316202222222" lon="25.284509444444"><time>2015-10-31T10:34:15Z</time></trkpt><trkpt lat="60.316212777778" lon="25.284334166667"><time>2015-10-31T10:34:20Z</time></trkpt><trkpt lat="60.316214722222" lon="25.284246944444"><time>2015-10-31T10:34:23Z</time></trkpt><trkpt lat="60.316223333333" lon="25.284190277778"><time>2015-10-31T10:34:25Z</time></trkpt><trkpt lat="60.316218055556" lon="25.2841375"><time>2015-10-31T10:34:26Z</time></trkpt><trkpt lat="60.316225555556" lon="25.284030277778"><time>2015-10-31T10:34:29Z</time></trkpt><trkpt lat="60.316260277778" lon="25.283913333333"><time>2015-10-31T10:34:33Z</time></trkpt><trkpt lat="60.316283333333" lon="25.283789444444"><time>2015-10-31T10:34:36Z</time></trkpt><trkpt lat="60.316295555556" lon="25.283718333333"><time>2015-10-31T10:34:38Z</time></trkpt><trkpt lat="60.316313611111" lon="25.283644722222"><time>2015-10-31T10:34:40Z</time></trkpt><trkpt lat="60.316335" lon="25.283568888889"><time>2015-10-31T10:34:43Z</time></trkpt><trkpt lat="60.316335" lon="25.283521111111"><time>2015-10-31T10:34:44Z</time></trkpt><trkpt lat="60.316352777778" lon="25.2834175"><time>2015-10-31T10:34:47Z</time></trkpt><trkpt lat="60.316356944444" lon="25.283385"><time>2015-10-31T10:34:48Z</time></trkpt><trkpt lat="60.316361666667" lon="25.283267777778"><time>2015-10-31T10:34:52Z</time></trkpt><trkpt lat="60.316372222222" lon="25.283211944444"><time>2015-10-31T10:34:54Z</time></trkpt><trkpt lat="60.316386388889" lon="25.283176111111"><time>2015-10-31T10:34:56Z</time></trkpt><trkpt lat="60.316396388889" lon="25.283157777778"><time>2015-10-31T10:34:57Z</time></trkpt><trkpt lat="60.316441388889" lon="25.283034166667"><time>2015-10-31T10:35:01Z</time></trkpt><trkpt lat="60.316461666667" lon="25.282964166667"><time>2015-10-31T10:35:03Z</time></trkpt><trkpt lat="60.316497777778" lon="25.28289"><time>2015-10-31T10:35:06Z</time></trkpt><trkpt lat="60.316510833333" lon="25.282866666667"><time>2015-10-31T10:35:07Z</time></trkpt><trkpt lat="60.316519722222" lon="25.282767222222"><time>2015-10-31T10:35:11Z</time></trkpt><trkpt lat="60.316540833333" lon="25.2826975"><time>2015-10-31T10:35:15Z</time></trkpt><trkpt lat="60.316540833333" lon="25.282683055556"><time>2015-10-31T10:35:16Z</time></trkpt><trkpt lat="60.316533055556" lon="25.282674722222"><time>2015-10-31T10:35:17Z</time></trkpt><trkpt lat="60.316523333333" lon="25.282663888889"><time>2015-10-31T10:35:19Z</time></trkpt><trkpt lat="60.316507777778" lon="25.282651388889"><time>2015-10-31T10:35:22Z</time></trkpt><trkpt lat="60.316500833333" lon="25.282658055556"><time>2015-10-31T10:35:24Z</time></trkpt><trkpt lat="60.316459722222" lon="25.282674166667"><time>2015-10-31T10:35:31Z</time></trkpt><trkpt lat="60.316437222222" lon="25.28273"><time>2015-10-31T10:35:37Z</time></trkpt><trkpt lat="60.316422222222" lon="25.282791388889"><time>2015-10-31T10:35:41Z</time></trkpt><trkpt lat="60.316358611111" lon="25.282897222222"><time>2015-10-31T10:35:47Z</time></trkpt><trkpt lat="60.316345555556" lon="25.282980833333"><time>2015-10-31T10:35:50Z</time></trkpt><trkpt lat="60.316336111111" lon="25.283063611111"><time>2015-10-31T10:35:52Z</time></trkpt><trkpt lat="60.316324722222" lon="25.283152777778"><time>2015-10-31T10:35:55Z</time></trkpt><trkpt lat="60.316331111111" lon="25.283175277778"><time>2015-10-31T10:35:56Z</time></trkpt><trkpt lat="60.316296111111" lon="25.2833125"><time>2015-10-31T10:36:01Z</time></trkpt><trkpt lat="60.316276111111" lon="25.283355555556"><time>2015-10-31T10:36:03Z</time></trkpt><trkpt lat="60.316271666667" lon="25.283396388889"><time>2015-10-31T10:36:04Z</time></trkpt><trkpt lat="60.31625" lon="25.283456666667"><time>2015-10-31T10:36:06Z</time></trkpt><trkpt lat="60.316206111111" lon="25.283588611111"><time>2015-10-31T10:36:11Z</time></trkpt><trkpt lat="60.316198611111" lon="25.283698888889"><time>2015-10-31T10:36:16Z</time></trkpt><trkpt lat="60.316165277778" lon="25.28381"><time>2015-10-31T10:36:20Z</time></trkpt><trkpt lat="60.316134166667" lon="25.2838675"><time>2015-10-31T10:36:23Z</time></trkpt><trkpt lat="60.316103611111" lon="25.283922777778"><time>2015-10-31T10:36:26Z</time></trkpt><trkpt lat="60.316098333333" lon="25.283944722222"><time>2015-10-31T10:36:27Z</time></trkpt><trkpt lat="60.316040833333" lon="25.284046388889"><time>2015-10-31T10:36:31Z</time></trkpt><trkpt lat="60.316026388889" lon="25.284073611111"><time>2015-10-31T10:36:32Z</time></trkpt><trkpt lat="60.315973333333" lon="25.284194722222"><time>2015-10-31T10:36:37Z</time></trkpt><trkpt lat="60.315961388889" lon="25.284243888889"><time>2015-10-31T10:36:39Z</time></trkpt><trkpt lat="60.315946111111" lon="25.284299722222"><time>2015-10-31T10:36:41Z</time></trkpt><trkpt lat="60.315940277778" lon="25.284405555556"><time>2015-10-31T10:36:44Z</time></trkpt><trkpt lat="60.315940833333" lon="25.284433333333"><time>2015-10-31T10:36:45Z</time></trkpt><trkpt lat="60.315934444444" lon="25.284469722222"><time>2015-10-31T10:36:47Z</time></trkpt><trkpt lat="60.3159225" lon="25.284509722222"><time>2015-10-31T10:36:50Z</time></trkpt><trkpt lat="60.31592" lon="25.284536666667"><time>2015-10-31T10:36:51Z</time></trkpt><trkpt lat="60.315906666667" lon="25.284625"><time>2015-10-31T10:36:55Z</time></trkpt><trkpt lat="60.315891111111" lon="25.284685"><time>2015-10-31T10:36:57Z</time></trkpt><trkpt lat="60.315891388889" lon="25.284734722222"><time>2015-10-31T10:36:59Z</time></trkpt><trkpt lat="60.315885555556" lon="25.284845"><time>2015-10-31T10:37:03Z</time></trkpt><trkpt lat="60.315881388889" lon="25.284863333333"><time>2015-10-31T10:37:04Z</time></trkpt><trkpt lat="60.315849166667" lon="25.284946666667"><time>2015-10-31T10:37:08Z</time></trkpt><trkpt lat="60.315833888889" lon="25.284956388889"><time>2015-10-31T10:37:09Z</time></trkpt><trkpt lat="60.3158025" lon="25.284971666667"><time>2015-10-31T10:37:11Z</time></trkpt><trkpt lat="60.315771944444" lon="25.2850025"><time>2015-10-31T10:37:13Z</time></trkpt><trkpt lat="60.315718055556" lon="25.2850725"><time>2015-10-31T10:37:16Z</time></trkpt><trkpt lat="60.315708333333" lon="25.285093333333"><time>2015-10-31T10:37:17Z</time></trkpt><trkpt lat="60.315690277778" lon="25.285130277778"><time>2015-10-31T10:37:19Z</time></trkpt><trkpt lat="60.315676111111" lon="25.285150555556"><time>2015-10-31T10:37:20Z</time></trkpt><trkpt lat="60.3156575" lon="25.2852"><time>2015-10-31T10:37:22Z</time></trkpt><trkpt lat="60.315641944444" lon="25.285260833333"><time>2015-10-31T10:37:24Z</time></trkpt><trkpt lat="60.315614722222" lon="25.285355277778"><time>2015-10-31T10:37:28Z</time></trkpt><trkpt lat="60.315605277778" lon="25.285383888889"><time>2015-10-31T10:37:29Z</time></trkpt><trkpt lat="60.315582222222" lon="25.285456111111"><time>2015-10-31T10:37:32Z</time></trkpt><trkpt lat="60.315568611111" lon="25.285484166667"><time>2015-10-31T10:37:33Z</time></trkpt><trkpt lat="60.315525277778" lon="25.285548055556"><time>2015-10-31T10:37:36Z</time></trkpt><trkpt lat="60.315514166667" lon="25.285556111111"><time>2015-10-31T10:37:37Z</time></trkpt><trkpt lat="60.315436388889" lon="25.285604722222"><time>2015-10-31T10:37:42Z</time></trkpt><trkpt lat="60.315429166667" lon="25.285616388889"><time>2015-10-31T10:37:43Z</time></trkpt><trkpt lat="60.31541" lon="25.285650833333"><time>2015-10-31T10:37:46Z</time></trkpt><trkpt lat="60.315395833333" lon="25.285670277778"><time>2015-10-31T10:37:48Z</time></trkpt><trkpt lat="60.315340833333" lon="25.285777222222"><time>2015-10-31T10:37:53Z</time></trkpt><trkpt lat="60.315340555556" lon="25.285833055556"><time>2015-10-31T10:37:55Z</time></trkpt><trkpt lat="60.315331666667" lon="25.2858875"><time>2015-10-31T10:37:57Z</time></trkpt><trkpt lat="60.315318055556" lon="25.285935"><time>2015-10-31T10:37:59Z</time></trkpt><trkpt lat="60.315306666667" lon="25.285951388889"><time>2015-10-31T10:38:00Z</time></trkpt><trkpt lat="60.315264166667" lon="25.286036944444"><time>2015-10-31T10:38:04Z</time></trkpt><trkpt lat="60.315203888889" lon="25.28609"><time>2015-10-31T10:38:09Z</time></trkpt><trkpt lat="60.3151975" lon="25.2861025"><time>2015-10-31T10:38:10Z</time></trkpt><trkpt lat="60.315196111111" lon="25.2861175"><time>2015-10-31T10:38:11Z</time></trkpt><trkpt lat="60.315188611111" lon="25.28615"><time>2015-10-31T10:38:13Z</time></trkpt><trkpt lat="60.315159722222" lon="25.286149444444"><time>2015-10-31T10:38:20Z</time></trkpt><trkpt lat="60.315107222222" lon="25.286061666667"><time>2015-10-31T10:38:26Z</time></trkpt><trkpt lat="60.315093611111" lon="25.286043888889"><time>2015-10-31T10:38:27Z</time></trkpt><trkpt lat="60.31505" lon="25.285966666667"><time>2015-10-31T10:38:31Z</time></trkpt><trkpt lat="60.315018333333" lon="25.285938333333"><time>2015-10-31T10:38:33Z</time></trkpt><trkpt lat="60.314993333333" lon="25.285921666667"><time>2015-10-31T10:38:35Z</time></trkpt><trkpt lat="60.314988055556" lon="25.285909722222"><time>2015-10-31T10:38:36Z</time></trkpt><trkpt lat="60.314936111111" lon="25.285869444444"><time>2015-10-31T10:38:39Z</time></trkpt><trkpt lat="60.314878611111" lon="25.285866944444"><time>2015-10-31T10:38:42Z</time></trkpt><trkpt lat="60.314863055556" lon="25.285865"><time>2015-10-31T10:38:43Z</time></trkpt><trkpt lat="60.314789444444" lon="25.285861111111"><time>2015-10-31T10:38:48Z</time></trkpt><trkpt lat="60.3147225" lon="25.285853333333"><time>2015-10-31T10:38:52Z</time></trkpt><trkpt lat="60.314714166667" lon="25.2858525"><time>2015-10-31T10:38:53Z</time></trkpt><trkpt lat="60.314687777778" lon="25.285860277778"><time>2015-10-31T10:38:57Z</time></trkpt><trkpt lat="60.3146825" lon="25.285868611111"><time>2015-10-31T10:38:58Z</time></trkpt><trkpt lat="60.314643055556" lon="25.2858925"><time>2015-10-31T10:39:02Z</time></trkpt><trkpt lat="60.314639166667" lon="25.285896666667"><time>2015-10-31T10:39:03Z</time></trkpt><trkpt lat="60.314631388889" lon="25.285910555556"><time>2015-10-31T10:39:04Z</time></trkpt><trkpt lat="60.314613611111" lon="25.285946388889"><time>2015-10-31T10:39:09Z</time></trkpt><trkpt lat="60.314589444444" lon="25.285973888889"><time>2015-10-31T10:39:14Z</time></trkpt><trkpt lat="60.314546944444" lon="25.286007222222"><time>2015-10-31T10:39:20Z</time></trkpt><trkpt lat="60.314516111111" lon="25.286074166667"><time>2015-10-31T10:39:26Z</time></trkpt><trkpt lat="60.314506388889" lon="25.286118611111"><time>2015-10-31T10:39:30Z</time></trkpt><trkpt lat="60.314505" lon="25.286144444444"><time>2015-10-31T10:39:31Z</time></trkpt><trkpt lat="60.314501944444" lon="25.286215"><time>2015-10-31T10:39:34Z</time></trkpt><trkpt lat="60.314502777778" lon="25.286263611111"><time>2015-10-31T10:39:36Z</time></trkpt><trkpt lat="60.314503611111" lon="25.2863425"><time>2015-10-31T10:39:40Z</time></trkpt><trkpt lat="60.3144925" lon="25.286455"><time>2015-10-31T10:39:44Z</time></trkpt><trkpt lat="60.314490277778" lon="25.286565277778"><time>2015-10-31T10:39:48Z</time></trkpt><trkpt lat="60.314485277778" lon="25.286591388889"><time>2015-10-31T10:39:49Z</time></trkpt><trkpt lat="60.314485" lon="25.286616666667"><time>2015-10-31T10:39:50Z</time></trkpt><trkpt lat="60.314499444444" lon="25.286746388889"><time>2015-10-31T10:39:54Z</time></trkpt><trkpt lat="60.314498888889" lon="25.286781388889"><time>2015-10-31T10:39:55Z</time></trkpt><trkpt lat="60.314494444444" lon="25.286843888889"><time>2015-10-31T10:39:57Z</time></trkpt><trkpt lat="60.314485833333" lon="25.286907777778"><time>2015-10-31T10:39:59Z</time></trkpt><trkpt lat="60.314465277778" lon="25.287009722222"><time>2015-10-31T10:40:02Z</time></trkpt><trkpt lat="60.3144525" lon="25.2870625"><time>2015-10-31T10:40:04Z</time></trkpt><trkpt lat="60.314447777778" lon="25.287115833333"><time>2015-10-31T10:40:06Z</time></trkpt><trkpt lat="60.314465833333" lon="25.287192777778"><time>2015-10-31T10:40:09Z</time></trkpt><trkpt lat="60.314489722222" lon="25.287295555556"><time>2015-10-31T10:40:14Z</time></trkpt><trkpt lat="60.314491944444" lon="25.2873125"><time>2015-10-31T10:40:15Z</time></trkpt><trkpt lat="60.314491666667" lon="25.287335833333"><time>2015-10-31T10:40:17Z</time></trkpt><trkpt lat="60.314486388889" lon="25.287356111111"><time>2015-10-31T10:40:18Z</time></trkpt><trkpt lat="60.314481111111" lon="25.287475555556"><time>2015-10-31T10:40:23Z</time></trkpt><trkpt lat="60.314477222222" lon="25.287508333333"><time>2015-10-31T10:40:24Z</time></trkpt><trkpt lat="60.314471111111" lon="25.287605833333"><time>2015-10-31T10:40:27Z</time></trkpt><trkpt lat="60.314481666667" lon="25.287688055556"><time>2015-10-31T10:40:30Z</time></trkpt><trkpt lat="60.314496111111" lon="25.287714722222"><time>2015-10-31T10:40:31Z</time></trkpt><trkpt lat="60.314506666667" lon="25.287758055556"><time>2015-10-31T10:40:32Z</time></trkpt><trkpt lat="60.314496388889" lon="25.287821666667"><time>2015-10-31T10:40:34Z</time></trkpt><trkpt lat="60.314488888889" lon="25.287861111111"><time>2015-10-31T10:40:36Z</time></trkpt><trkpt lat="60.31447" lon="25.287874444444"><time>2015-10-31T10:40:37Z</time></trkpt><trkpt lat="60.314450555556" lon="25.287893888889"><time>2015-10-31T10:40:38Z</time></trkpt><trkpt lat="60.314440833333" lon="25.287926666667"><time>2015-10-31T10:40:40Z</time></trkpt><trkpt lat="60.314442222222" lon="25.287955555556"><time>2015-10-31T10:40:41Z</time></trkpt><trkpt lat="60.314419722222" lon="25.2880275"><time>2015-10-31T10:40:45Z</time></trkpt><trkpt lat="60.314400833333" lon="25.288049444444"><time>2015-10-31T10:40:47Z</time></trkpt><trkpt lat="60.314393611111" lon="25.288063611111"><time>2015-10-31T10:40:48Z</time></trkpt><trkpt lat="60.314376388889" lon="25.288145"><time>2015-10-31T10:40:51Z</time></trkpt><trkpt lat="60.314350277778" lon="25.2883025"><time>2015-10-31T10:40:55Z</time></trkpt><trkpt lat="60.314348333333" lon="25.288342222222"><time>2015-10-31T10:40:56Z</time></trkpt><trkpt lat="60.314373888889" lon="25.288443611111"><time>2015-10-31T10:40:59Z</time></trkpt><trkpt lat="60.314400833333" lon="25.288621111111"><time>2015-10-31T10:41:03Z</time></trkpt><trkpt lat="60.314408611111" lon="25.288657777778"><time>2015-10-31T10:41:04Z</time></trkpt><trkpt lat="60.314428611111" lon="25.288726111111"><time>2015-10-31T10:41:06Z</time></trkpt><trkpt lat="60.314436666667" lon="25.288758333333"><time>2015-10-31T10:41:07Z</time></trkpt><trkpt lat="60.314447777778" lon="25.288929166667"><time>2015-10-31T10:41:11Z</time></trkpt><trkpt lat="60.314436111111" lon="25.289075833333"><time>2015-10-31T10:41:15Z</time></trkpt><trkpt lat="60.314425833333" lon="25.289204444444"><time>2015-10-31T10:41:19Z</time></trkpt><trkpt lat="60.314410833333" lon="25.289240833333"><time>2015-10-31T10:41:20Z</time></trkpt><trkpt lat="60.314370833333" lon="25.289373611111"><time>2015-10-31T10:41:25Z</time></trkpt><trkpt lat="60.314366388889" lon="25.289424166667"><time>2015-10-31T10:41:26Z</time></trkpt><trkpt lat="60.314385" lon="25.289506111111"><time>2015-10-31T10:41:28Z</time></trkpt><trkpt lat="60.314392222222" lon="25.289615833333"><time>2015-10-31T10:41:32Z</time></trkpt><trkpt lat="60.314370555556" lon="25.289701666667"><time>2015-10-31T10:41:37Z</time></trkpt><trkpt lat="60.314337777778" lon="25.289729722222"><time>2015-10-31T10:41:39Z</time></trkpt><trkpt lat="60.314283888889" lon="25.28976"><time>2015-10-31T10:41:42Z</time></trkpt><trkpt lat="60.314121111111" lon="25.289813888889"><time>2015-10-31T10:41:49Z</time></trkpt><trkpt lat="60.3139525" lon="25.289795277778"><time>2015-10-31T10:41:56Z</time></trkpt><trkpt lat="60.313846666667" lon="25.289863055556"><time>2015-10-31T10:42:01Z</time></trkpt><trkpt lat="60.313725833333" lon="25.290003333333"><time>2015-10-31T10:42:07Z</time></trkpt><trkpt lat="60.313648888889" lon="25.290095833333"><time>2015-10-31T10:42:11Z</time></trkpt><trkpt lat="60.313511388889" lon="25.290274166667"><time>2015-10-31T10:42:18Z</time></trkpt><trkpt lat="60.313381666667" lon="25.290445555556"><time>2015-10-31T10:42:24Z</time></trkpt><trkpt lat="60.313215833333" lon="25.290616944444"><time>2015-10-31T10:42:31Z</time></trkpt><trkpt lat="60.313048333333" lon="25.290749166667"><time>2015-10-31T10:42:38Z</time></trkpt><trkpt lat="60.312906388889" lon="25.290867777778"><time>2015-10-31T10:42:44Z</time></trkpt><trkpt lat="60.312856666667" lon="25.290903333333"><time>2015-10-31T10:42:46Z</time></trkpt><trkpt lat="60.312758611111" lon="25.290995277778"><time>2015-10-31T10:42:50Z</time></trkpt><trkpt lat="60.312618611111" lon="25.291125555556"><time>2015-10-31T10:42:56Z</time></trkpt><trkpt lat="60.312539722222" lon="25.291163055556"><time>2015-10-31T10:43:00Z</time></trkpt><trkpt lat="60.312438611111" lon="25.2912275"><time>2015-10-31T10:43:04Z</time></trkpt><trkpt lat="60.312340833333" lon="25.291290833333"><time>2015-10-31T10:43:08Z</time></trkpt><trkpt lat="60.312316388889" lon="25.291295833333"><time>2015-10-31T10:43:09Z</time></trkpt><trkpt lat="60.312234722222" lon="25.2913225"><time>2015-10-31T10:43:12Z</time></trkpt><trkpt lat="60.312110833333" lon="25.291361388889"><time>2015-10-31T10:43:16Z</time></trkpt><trkpt lat="60.311948333333" lon="25.291396666667"><time>2015-10-31T10:43:22Z</time></trkpt><trkpt lat="60.311851944444" lon="25.291408888889"><time>2015-10-31T10:43:26Z</time></trkpt><trkpt lat="60.311824166667" lon="25.291401111111"><time>2015-10-31T10:43:27Z</time></trkpt><trkpt lat="60.311643611111" lon="25.291289722222"><time>2015-10-31T10:43:34Z</time></trkpt><trkpt lat="60.311509444444" lon="25.291187222222"><time>2015-10-31T10:43:40Z</time></trkpt><trkpt lat="60.3114625" lon="25.291178333333"><time>2015-10-31T10:43:42Z</time></trkpt><trkpt lat="60.311381944444" lon="25.291208888889"><time>2015-10-31T10:43:45Z</time></trkpt><trkpt lat="60.311279444444" lon="25.2912075"><time>2015-10-31T10:43:49Z</time></trkpt><trkpt lat="60.3111425" lon="25.291135"><time>2015-10-31T10:43:54Z</time></trkpt><trkpt lat="60.311033055556" lon="25.291045277778"><time>2015-10-31T10:43:59Z</time></trkpt><trkpt lat="60.310954166667" lon="25.290985"><time>2015-10-31T10:44:03Z</time></trkpt><trkpt lat="60.310822222222" lon="25.290887777778"><time>2015-10-31T10:44:09Z</time></trkpt><trkpt lat="60.310660277778" lon="25.2908375"><time>2015-10-31T10:44:15Z</time></trkpt><trkpt lat="60.310510277778" lon="25.290861388889"><time>2015-10-31T10:44:21Z</time></trkpt><trkpt lat="60.310372222222" lon="25.290909166667"><time>2015-10-31T10:44:27Z</time></trkpt><trkpt lat="60.310235833333" lon="25.290951666667"><time>2015-10-31T10:44:33Z</time></trkpt><trkpt lat="60.310166111111" lon="25.29098"><time>2015-10-31T10:44:36Z</time></trkpt><trkpt lat="60.310146666667" lon="25.29099"><time>2015-10-31T10:44:37Z</time></trkpt><trkpt lat="60.310051388889" lon="25.291095277778"><time>2015-10-31T10:44:42Z</time></trkpt><trkpt lat="60.309977222222" lon="25.291229444444"><time>2015-10-31T10:44:47Z</time></trkpt><trkpt lat="60.309906388889" lon="25.291411666667"><time>2015-10-31T10:44:52Z</time></trkpt><trkpt lat="60.309827222222" lon="25.291572777778"><time>2015-10-31T10:44:57Z</time></trkpt><trkpt lat="60.309713333333" lon="25.291731666667"><time>2015-10-31T10:45:03Z</time></trkpt><trkpt lat="60.309561111111" lon="25.291873611111"><time>2015-10-31T10:45:09Z</time></trkpt><trkpt lat="60.309462222222" lon="25.291976666667"><time>2015-10-31T10:45:13Z</time></trkpt><trkpt lat="60.309326666667" lon="25.292146111111"><time>2015-10-31T10:45:19Z</time></trkpt><trkpt lat="60.309224444444" lon="25.292357222222"><time>2015-10-31T10:45:24Z</time></trkpt><trkpt lat="60.309163888889" lon="25.29263"><time>2015-10-31T10:45:30Z</time></trkpt><trkpt lat="60.309118611111" lon="25.292929722222"><time>2015-10-31T10:45:36Z</time></trkpt><trkpt lat="60.3090675" lon="25.293189722222"><time>2015-10-31T10:45:42Z</time></trkpt><trkpt lat="60.309007777778" lon="25.293449722222"><time>2015-10-31T10:45:48Z</time></trkpt><trkpt lat="60.308989166667" lon="25.293706111111"><time>2015-10-31T10:45:53Z</time></trkpt><trkpt lat="60.308975833333" lon="25.293998611111"><time>2015-10-31T10:45:59Z</time></trkpt><trkpt lat="60.308955555556" lon="25.294057222222"><time>2015-10-31T10:46:01Z</time></trkpt><trkpt lat="60.3089475" lon="25.294078611111"><time>2015-10-31T10:46:03Z</time></trkpt><trkpt lat="60.308948888889" lon="25.294151388889"><time>2015-10-31T10:46:11Z</time></trkpt><trkpt lat="60.308937222222" lon="25.294219722222"><time>2015-10-31T10:46:16Z</time></trkpt><trkpt lat="60.308935833333" lon="25.294264722222"><time>2015-10-31T10:46:21Z</time></trkpt><trkpt lat="60.308906388889" lon="25.294318055556"><time>2015-10-31T10:46:26Z</time></trkpt><trkpt lat="60.308918333333" lon="25.294390833333"><time>2015-10-31T10:46:30Z</time></trkpt><trkpt lat="60.308955833333" lon="25.294478055556"><time>2015-10-31T10:46:33Z</time></trkpt><trkpt lat="60.308962777778" lon="25.294515"><time>2015-10-31T10:46:36Z</time></trkpt><trkpt lat="60.308974444444" lon="25.294522222222"><time>2015-10-31T10:46:38Z</time></trkpt><trkpt lat="60.308988888889" lon="25.294540833333"><time>2015-10-31T10:46:39Z</time></trkpt><trkpt lat="60.309007777778" lon="25.294635277778"><time>2015-10-31T10:46:42Z</time></trkpt><trkpt lat="60.3090075" lon="25.294766111111"><time>2015-10-31T10:46:47Z</time></trkpt><trkpt lat="60.3090075" lon="25.294878333333"><time>2015-10-31T10:46:52Z</time></trkpt><trkpt lat="60.309014166667" lon="25.294937777778"><time>2015-10-31T10:46:56Z</time></trkpt><trkpt lat="60.309020833333" lon="25.295029166667"><time>2015-10-31T10:46:59Z</time></trkpt><trkpt lat="60.309020833333" lon="25.295090833333"><time>2015-10-31T10:47:01Z</time></trkpt><trkpt lat="60.309039166667" lon="25.295266111111"><time>2015-10-31T10:47:07Z</time></trkpt><trkpt lat="60.309055277778" lon="25.295379722222"><time>2015-10-31T10:47:12Z</time></trkpt><trkpt lat="60.309088888889" lon="25.295430277778"><time>2015-10-31T10:47:14Z</time></trkpt><trkpt lat="60.309095277778" lon="25.29546"><time>2015-10-31T10:47:15Z</time></trkpt><trkpt lat="60.309086388889" lon="25.295591944444"><time>2015-10-31T10:47:20Z</time></trkpt><trkpt lat="60.309081944444" lon="25.2957225"><time>2015-10-31T10:47:26Z</time></trkpt><trkpt lat="60.309091666667" lon="25.295768611111"><time>2015-10-31T10:47:28Z</time></trkpt><trkpt lat="60.309109722222" lon="25.295845833333"><time>2015-10-31T10:47:31Z</time></trkpt><trkpt lat="60.309135833333" lon="25.295905833333"><time>2015-10-31T10:47:33Z</time></trkpt><trkpt lat="60.309142777778" lon="25.295940833333"><time>2015-10-31T10:47:34Z</time></trkpt><trkpt lat="60.309153611111" lon="25.296021666667"><time>2015-10-31T10:47:36Z</time></trkpt><trkpt lat="60.309159444444" lon="25.296161388889"><time>2015-10-31T10:47:40Z</time></trkpt><trkpt lat="60.309154722222" lon="25.296295277778"><time>2015-10-31T10:47:44Z</time></trkpt><trkpt lat="60.309158888889" lon="25.296321388889"><time>2015-10-31T10:47:45Z</time></trkpt><trkpt lat="60.309161111111" lon="25.296478611111"><time>2015-10-31T10:47:49Z</time></trkpt><trkpt lat="60.309176944444" lon="25.296553333333"><time>2015-10-31T10:47:51Z</time></trkpt><trkpt lat="60.309186111111" lon="25.296607777778"><time>2015-10-31T10:47:53Z</time></trkpt><trkpt lat="60.309189166667" lon="25.296655"><time>2015-10-31T10:47:54Z</time></trkpt><trkpt lat="60.309176666667" lon="25.296813333333"><time>2015-10-31T10:47:57Z</time></trkpt><trkpt lat="60.309163611111" lon="25.296893611111"><time>2015-10-31T10:47:59Z</time></trkpt><trkpt lat="60.309155277778" lon="25.296953333333"><time>2015-10-31T10:48:01Z</time></trkpt><trkpt lat="60.309133888889" lon="25.2971025"><time>2015-10-31T10:48:06Z</time></trkpt><trkpt lat="60.309150555556" lon="25.297211944444"><time>2015-10-31T10:48:11Z</time></trkpt><trkpt lat="60.309174444444" lon="25.297372777778"><time>2015-10-31T10:48:17Z</time></trkpt><trkpt lat="60.309172777778" lon="25.297447777778"><time>2015-10-31T10:48:19Z</time></trkpt><trkpt lat="60.309166388889" lon="25.297530833333"><time>2015-10-31T10:48:22Z</time></trkpt><trkpt lat="60.309125" lon="25.297593611111"><time>2015-10-31T10:48:27Z</time></trkpt><trkpt lat="60.309123888889" lon="25.297615"><time>2015-10-31T10:48:28Z</time></trkpt><trkpt lat="60.309135555556" lon="25.297648611111"><time>2015-10-31T10:48:31Z</time></trkpt><trkpt lat="60.309160277778" lon="25.297641388889"><time>2015-10-31T10:48:35Z</time></trkpt><trkpt lat="60.309160833333" lon="25.297640833333"><time>2015-10-31T10:48:37Z</time></trkpt><trkpt lat="60.309158611111" lon="25.297720555556"><time>2015-10-31T10:48:46Z</time></trkpt><trkpt lat="60.309169166667" lon="25.297794166667"><time>2015-10-31T10:48:51Z</time></trkpt><trkpt lat="60.309186111111" lon="25.297846666667"><time>2015-10-31T10:48:56Z</time></trkpt><trkpt lat="60.309215555556" lon="25.297931944444"><time>2015-10-31T10:49:03Z</time></trkpt><trkpt lat="60.3092425" lon="25.298060833333"><time>2015-10-31T10:49:07Z</time></trkpt><trkpt lat="60.309256666667" lon="25.298110555556"><time>2015-10-31T10:49:09Z</time></trkpt><trkpt lat="60.309265277778" lon="25.298131666667"><time>2015-10-31T10:49:10Z</time></trkpt><trkpt lat="60.309302222222" lon="25.2982325"><time>2015-10-31T10:49:15Z</time></trkpt><trkpt lat="60.309346666667" lon="25.298351944444"><time>2015-10-31T10:49:21Z</time></trkpt><trkpt lat="60.309374166667" lon="25.2985125"><time>2015-10-31T10:49:26Z</time></trkpt><trkpt lat="60.309385555556" lon="25.298569444444"><time>2015-10-31T10:49:29Z</time></trkpt><trkpt lat="60.309441388889" lon="25.2986575"><time>2015-10-31T10:49:34Z</time></trkpt><trkpt lat="60.309463333333" lon="25.298719166667"><time>2015-10-31T10:49:38Z</time></trkpt><trkpt lat="60.309503888889" lon="25.298814166667"><time>2015-10-31T10:49:41Z</time></trkpt><trkpt lat="60.309521388889" lon="25.298972222222"><time>2015-10-31T10:49:46Z</time></trkpt><trkpt lat="60.309501666667" lon="25.299131666667"><time>2015-10-31T10:49:50Z</time></trkpt><trkpt lat="60.309545277778" lon="25.299300833333"><time>2015-10-31T10:49:55Z</time></trkpt><trkpt lat="60.309554722222" lon="25.299399722222"><time>2015-10-31T10:49:59Z</time></trkpt><trkpt lat="60.309564166667" lon="25.299488611111"><time>2015-10-31T10:50:02Z</time></trkpt><trkpt lat="60.309562222222" lon="25.299557222222"><time>2015-10-31T10:50:04Z</time></trkpt><trkpt lat="60.309564166667" lon="25.299583611111"><time>2015-10-31T10:50:05Z</time></trkpt><trkpt lat="60.309581388889" lon="25.299704444444"><time>2015-10-31T10:50:09Z</time></trkpt><trkpt lat="60.309602777778" lon="25.299781111111"><time>2015-10-31T10:50:12Z</time></trkpt><trkpt lat="60.30963" lon="25.299790277778"><time>2015-10-31T10:50:13Z</time></trkpt><trkpt lat="60.30969" lon="25.299825"><time>2015-10-31T10:50:17Z</time></trkpt><trkpt lat="60.309741111111" lon="25.299827777778"><time>2015-10-31T10:50:21Z</time></trkpt><trkpt lat="60.309858611111" lon="25.299839722222"><time>2015-10-31T10:50:26Z</time></trkpt><trkpt lat="60.309912777778" lon="25.299813055556"><time>2015-10-31T10:50:29Z</time></trkpt><trkpt lat="60.3099425" lon="25.299778888889"><time>2015-10-31T10:50:31Z</time></trkpt><trkpt lat="60.310025" lon="25.2997125"><time>2015-10-31T10:50:35Z</time></trkpt><trkpt lat="60.310109722222" lon="25.2997225"><time>2015-10-31T10:50:39Z</time></trkpt><trkpt lat="60.310210555556" lon="25.299746944444"><time>2015-10-31T10:50:43Z</time></trkpt><trkpt lat="60.310291944444" lon="25.299747222222"><time>2015-10-31T10:50:47Z</time></trkpt><trkpt lat="60.310306388889" lon="25.299852777778"><time>2015-10-31T10:50:51Z</time></trkpt><trkpt lat="60.310323611111" lon="25.299951944444"><time>2015-10-31T10:50:57Z</time></trkpt><trkpt lat="60.31032" lon="25.299970555556"><time>2015-10-31T10:50:58Z</time></trkpt><trkpt lat="60.310304444444" lon="25.300038611111"><time>2015-10-31T10:51:02Z</time></trkpt><trkpt lat="60.310302777778" lon="25.300049444444"><time>2015-10-31T10:51:03Z</time></trkpt><trkpt lat="60.310266666667" lon="25.300109722222"><time>2015-10-31T10:51:08Z</time></trkpt><trkpt lat="60.310239722222" lon="25.300148611111"><time>2015-10-31T10:51:11Z</time></trkpt><trkpt lat="60.310212222222" lon="25.300183055556"><time>2015-10-31T10:51:13Z</time></trkpt><trkpt lat="60.310155555556" lon="25.300243333333"><time>2015-10-31T10:51:17Z</time></trkpt><trkpt lat="60.310119444444" lon="25.300282222222"><time>2015-10-31T10:51:19Z</time></trkpt><trkpt lat="60.310078333333" lon="25.300361666667"><time>2015-10-31T10:51:22Z</time></trkpt><trkpt lat="60.310050555556" lon="25.300410277778"><time>2015-10-31T10:51:24Z</time></trkpt><trkpt lat="60.310050555556" lon="25.300410277778"><time>2015-10-31T10:51:24Z</time></trkpt><trkpt lat="60.310000833333" lon="25.300550277778"><time>2015-10-31T10:51:29Z</time></trkpt><trkpt lat="60.309993888889" lon="25.300574166667"><time>2015-10-31T10:51:30Z</time></trkpt><trkpt lat="60.309975" lon="25.300626944444"><time>2015-10-31T10:51:32Z</time></trkpt><trkpt lat="60.309954166667" lon="25.300670833333"><time>2015-10-31T10:51:34Z</time></trkpt><trkpt lat="60.309886111111" lon="25.300837777778"><time>2015-10-31T10:51:40Z</time></trkpt><trkpt lat="60.309870833333" lon="25.300865277778"><time>2015-10-31T10:51:41Z</time></trkpt><trkpt lat="60.309860833333" lon="25.300896111111"><time>2015-10-31T10:51:42Z</time></trkpt><trkpt lat="60.309836111111" lon="25.300991388889"><time>2015-10-31T10:51:45Z</time></trkpt><trkpt lat="60.3098275" lon="25.301012222222"><time>2015-10-31T10:51:46Z</time></trkpt><trkpt lat="60.309795277778" lon="25.3011425"><time>2015-10-31T10:51:51Z</time></trkpt><trkpt lat="60.309752222222" lon="25.301331666667"><time>2015-10-31T10:51:57Z</time></trkpt><trkpt lat="60.309719166667" lon="25.3014775"><time>2015-10-31T10:52:01Z</time></trkpt><trkpt lat="60.309704722222" lon="25.301516111111"><time>2015-10-31T10:52:02Z</time></trkpt><trkpt lat="60.309673888889" lon="25.301625"><time>2015-10-31T10:52:05Z</time></trkpt><trkpt lat="60.309621666667" lon="25.301720277778"><time>2015-10-31T10:52:08Z</time></trkpt><trkpt lat="60.309545833333" lon="25.301881944444"><time>2015-10-31T10:52:13Z</time></trkpt><trkpt lat="60.309528888889" lon="25.3019625"><time>2015-10-31T10:52:15Z</time></trkpt><trkpt lat="60.309507777778" lon="25.302049166667"><time>2015-10-31T10:52:17Z</time></trkpt><trkpt lat="60.309483888889" lon="25.3021275"><time>2015-10-31T10:52:19Z</time></trkpt><trkpt lat="60.309446111111" lon="25.302218333333"><time>2015-10-31T10:52:22Z</time></trkpt><trkpt lat="60.309374166667" lon="25.302406666667"><time>2015-10-31T10:52:28Z</time></trkpt><trkpt lat="60.309308333333" lon="25.3024875"><time>2015-10-31T10:52:31Z</time></trkpt><trkpt lat="60.309273055556" lon="25.302536944444"><time>2015-10-31T10:52:33Z</time></trkpt><trkpt lat="60.309258055556" lon="25.3025725"><time>2015-10-31T10:52:34Z</time></trkpt><trkpt lat="60.309230833333" lon="25.3026925"><time>2015-10-31T10:52:37Z</time></trkpt><trkpt lat="60.309223888889" lon="25.302719722222"><time>2015-10-31T10:52:38Z</time></trkpt><trkpt lat="60.309205" lon="25.302756111111"><time>2015-10-31T10:52:40Z</time></trkpt><trkpt lat="60.309182222222" lon="25.302782222222"><time>2015-10-31T10:52:42Z</time></trkpt><trkpt lat="60.309103611111" lon="25.302838055556"><time>2015-10-31T10:52:47Z</time></trkpt><trkpt lat="60.309025277778" lon="25.3029475"><time>2015-10-31T10:52:53Z</time></trkpt><trkpt lat="60.308959722222" lon="25.303033888889"><time>2015-10-31T10:52:58Z</time></trkpt><trkpt lat="60.308898055556" lon="25.303065833333"><time>2015-10-31T10:53:02Z</time></trkpt><trkpt lat="60.3088825" lon="25.303078333333"><time>2015-10-31T10:53:03Z</time></trkpt><trkpt lat="60.308791944444" lon="25.303198055556"><time>2015-10-31T10:53:10Z</time></trkpt><trkpt lat="60.308738611111" lon="25.303285"><time>2015-10-31T10:53:15Z</time></trkpt><trkpt lat="60.3086975" lon="25.303341666667"><time>2015-10-31T10:53:18Z</time></trkpt><trkpt lat="60.308651111111" lon="25.303428611111"><time>2015-10-31T10:53:21Z</time></trkpt><trkpt lat="60.308581666667" lon="25.303581666667"><time>2015-10-31T10:53:26Z</time></trkpt><trkpt lat="60.308506666667" lon="25.303719166667"><time>2015-10-31T10:53:31Z</time></trkpt><trkpt lat="60.308431388889" lon="25.303811666667"><time>2015-10-31T10:53:35Z</time></trkpt><trkpt lat="60.308388888889" lon="25.303863055556"><time>2015-10-31T10:53:37Z</time></trkpt><trkpt lat="60.308291388889" lon="25.304024444444"><time>2015-10-31T10:53:43Z</time></trkpt><trkpt lat="60.308283055556" lon="25.304254166667"><time>2015-10-31T10:53:48Z</time></trkpt><trkpt lat="60.308315277778" lon="25.304578055556"><time>2015-10-31T10:53:56Z</time></trkpt><trkpt lat="60.308328333333" lon="25.304705"><time>2015-10-31T10:53:59Z</time></trkpt><trkpt lat="60.308318611111" lon="25.304785277778"><time>2015-10-31T10:54:01Z</time></trkpt><trkpt lat="60.308341666667" lon="25.304926666667"><time>2015-10-31T10:54:05Z</time></trkpt><trkpt lat="60.308371944444" lon="25.305077222222"><time>2015-10-31T10:54:09Z</time></trkpt><trkpt lat="60.30838" lon="25.305264444444"><time>2015-10-31T10:54:13Z</time></trkpt><trkpt lat="60.308393888889" lon="25.305388888889"><time>2015-10-31T10:54:17Z</time></trkpt><trkpt lat="60.308384444444" lon="25.305428333333"><time>2015-10-31T10:54:18Z</time></trkpt><trkpt lat="60.30837" lon="25.305536111111"><time>2015-10-31T10:54:21Z</time></trkpt><trkpt lat="60.308370277778" lon="25.305589444444"><time>2015-10-31T10:54:23Z</time></trkpt><trkpt lat="60.3083725" lon="25.305719722222"><time>2015-10-31T10:54:27Z</time></trkpt><trkpt lat="60.308366111111" lon="25.305753333333"><time>2015-10-31T10:54:28Z</time></trkpt><trkpt lat="60.308346111111" lon="25.305835833333"><time>2015-10-31T10:54:31Z</time></trkpt><trkpt lat="60.308314722222" lon="25.305921388889"><time>2015-10-31T10:54:34Z</time></trkpt><trkpt lat="60.308305555556" lon="25.305952222222"><time>2015-10-31T10:54:35Z</time></trkpt><trkpt lat="60.308295833333" lon="25.305986666667"><time>2015-10-31T10:54:36Z</time></trkpt><trkpt lat="60.308236666667" lon="25.306187777778"><time>2015-10-31T10:54:42Z</time></trkpt><trkpt lat="60.308235" lon="25.306321111111"><time>2015-10-31T10:54:46Z</time></trkpt><trkpt lat="60.308249166667" lon="25.306382222222"><time>2015-10-31T10:54:48Z</time></trkpt><trkpt lat="60.308248888889" lon="25.306426111111"><time>2015-10-31T10:54:49Z</time></trkpt><trkpt lat="60.3082475" lon="25.306456388889"><time>2015-10-31T10:54:50Z</time></trkpt><trkpt lat="60.308241388889" lon="25.306486388889"><time>2015-10-31T10:54:51Z</time></trkpt><trkpt lat="60.308221388889" lon="25.306582777778"><time>2015-10-31T10:54:55Z</time></trkpt><trkpt lat="60.308214166667" lon="25.306603055556"><time>2015-10-31T10:54:56Z</time></trkpt><trkpt lat="60.308193611111" lon="25.306660277778"><time>2015-10-31T10:54:58Z</time></trkpt><trkpt lat="60.308187777778" lon="25.306720555556"><time>2015-10-31T10:55:00Z</time></trkpt><trkpt lat="60.308171388889" lon="25.306890277778"><time>2015-10-31T10:55:05Z</time></trkpt><trkpt lat="60.308170833333" lon="25.307079166667"><time>2015-10-31T10:55:09Z</time></trkpt><trkpt lat="60.308165555556" lon="25.307128888889"><time>2015-10-31T10:55:10Z</time></trkpt><trkpt lat="60.308165277778" lon="25.307160555556"><time>2015-10-31T10:55:11Z</time></trkpt><trkpt lat="60.3081725" lon="25.307219722222"><time>2015-10-31T10:55:13Z</time></trkpt><trkpt lat="60.308177777778" lon="25.307286111111"><time>2015-10-31T10:55:15Z</time></trkpt><trkpt lat="60.308173055556" lon="25.307373888889"><time>2015-10-31T10:55:17Z</time></trkpt><trkpt lat="60.308158333333" lon="25.307397222222"><time>2015-10-31T10:55:18Z</time></trkpt><trkpt lat="60.308103055556" lon="25.307536666667"><time>2015-10-31T10:55:22Z</time></trkpt><trkpt lat="60.308062222222" lon="25.307654444444"><time>2015-10-31T10:55:25Z</time></trkpt><trkpt lat="60.308053333333" lon="25.307687222222"><time>2015-10-31T10:55:26Z</time></trkpt><trkpt lat="60.3080325" lon="25.307768611111"><time>2015-10-31T10:55:29Z</time></trkpt><trkpt lat="60.308028333333" lon="25.307798333333"><time>2015-10-31T10:55:30Z</time></trkpt><trkpt lat="60.307984722222" lon="25.307973333333"><time>2015-10-31T10:55:35Z</time></trkpt><trkpt lat="60.307973055556" lon="25.30801"><time>2015-10-31T10:55:36Z</time></trkpt><trkpt lat="60.30796" lon="25.308084722222"><time>2015-10-31T10:55:38Z</time></trkpt><trkpt lat="60.307943333333" lon="25.308198611111"><time>2015-10-31T10:55:41Z</time></trkpt><trkpt lat="60.307926388889" lon="25.308317222222"><time>2015-10-31T10:55:44Z</time></trkpt><trkpt lat="60.307912222222" lon="25.308396666667"><time>2015-10-31T10:55:47Z</time></trkpt><trkpt lat="60.307913888889" lon="25.308419166667"><time>2015-10-31T10:55:48Z</time></trkpt><trkpt lat="60.307923333333" lon="25.3084825"><time>2015-10-31T10:55:51Z</time></trkpt><trkpt lat="60.307933611111" lon="25.308592777778"><time>2015-10-31T10:55:56Z</time></trkpt><trkpt lat="60.307959444444" lon="25.308703055556"><time>2015-10-31T10:56:00Z</time></trkpt><trkpt lat="60.308007777778" lon="25.308780555556"><time>2015-10-31T10:56:03Z</time></trkpt><trkpt lat="60.308023888889" lon="25.308803888889"><time>2015-10-31T10:56:04Z</time></trkpt><trkpt lat="60.308038888889" lon="25.308851944444"><time>2015-10-31T10:56:07Z</time></trkpt><trkpt lat="60.308035" lon="25.308866111111"><time>2015-10-31T10:56:08Z</time></trkpt><trkpt lat="60.308038333333" lon="25.308953333333"><time>2015-10-31T10:56:11Z</time></trkpt><trkpt lat="60.308035" lon="25.308985"><time>2015-10-31T10:56:12Z</time></trkpt><trkpt lat="60.308036111111" lon="25.30902"><time>2015-10-31T10:56:13Z</time></trkpt><trkpt lat="60.308031111111" lon="25.309128611111"><time>2015-10-31T10:56:16Z</time></trkpt><trkpt lat="60.307994722222" lon="25.309296388889"><time>2015-10-31T10:56:20Z</time></trkpt><trkpt lat="60.307976111111" lon="25.309339722222"><time>2015-10-31T10:56:21Z</time></trkpt><trkpt lat="60.307938888889" lon="25.309441388889"><time>2015-10-31T10:56:23Z</time></trkpt><trkpt lat="60.307877777778" lon="25.309605277778"><time>2015-10-31T10:56:28Z</time></trkpt><trkpt lat="60.307831944444" lon="25.309688888889"><time>2015-10-31T10:56:31Z</time></trkpt><trkpt lat="60.307776388889" lon="25.309780833333"><time>2015-10-31T10:56:34Z</time></trkpt><trkpt lat="60.307693611111" lon="25.309918333333"><time>2015-10-31T10:56:39Z</time></trkpt><trkpt lat="60.307678333333" lon="25.309998888889"><time>2015-10-31T10:56:42Z</time></trkpt><trkpt lat="60.307664444444" lon="25.310079166667"><time>2015-10-31T10:56:44Z</time></trkpt><trkpt lat="60.3076175" lon="25.310293888889"><time>2015-10-31T10:56:49Z</time></trkpt><trkpt lat="60.307612222222" lon="25.310438611111"><time>2015-10-31T10:56:52Z</time></trkpt><trkpt lat="60.307595833333" lon="25.310531666667"><time>2015-10-31T10:56:54Z</time></trkpt><trkpt lat="60.307539722222" lon="25.310832777778"><time>2015-10-31T10:57:01Z</time></trkpt><trkpt lat="60.307501111111" lon="25.311114166667"><time>2015-10-31T10:57:07Z</time></trkpt><trkpt lat="60.307454166667" lon="25.311344444444"><time>2015-10-31T10:57:12Z</time></trkpt><trkpt lat="60.3074" lon="25.311578888889"><time>2015-10-31T10:57:18Z</time></trkpt><trkpt lat="60.307295" lon="25.311762777778"><time>2015-10-31T10:57:24Z</time></trkpt><trkpt lat="60.307173888889" lon="25.311918888889"><time>2015-10-31T10:57:30Z</time></trkpt><trkpt lat="60.307036666667" lon="25.312071111111"><time>2015-10-31T10:57:37Z</time></trkpt><trkpt lat="60.306895833333" lon="25.312156388889"><time>2015-10-31T10:57:43Z</time></trkpt><trkpt lat="60.306756111111" lon="25.312189444444"><time>2015-10-31T10:57:49Z</time></trkpt><trkpt lat="60.306595833333" lon="25.312251111111"><time>2015-10-31T10:57:56Z</time></trkpt><trkpt lat="60.306513611111" lon="25.312306111111"><time>2015-10-31T10:58:02Z</time></trkpt><trkpt lat="60.306463888889" lon="25.312373333333"><time>2015-10-31T10:58:08Z</time></trkpt><trkpt lat="60.306453611111" lon="25.312375"><time>2015-10-31T10:58:09Z</time></trkpt><trkpt lat="60.306427777778" lon="25.312396111111"><time>2015-10-31T10:58:12Z</time></trkpt><trkpt lat="60.30641" lon="25.312412777778"><time>2015-10-31T10:58:14Z</time></trkpt><trkpt lat="60.306387222222" lon="25.312444722222"><time>2015-10-31T10:58:17Z</time></trkpt><trkpt lat="60.306356388889" lon="25.312458888889"><time>2015-10-31T10:58:20Z</time></trkpt><trkpt lat="60.306335833333" lon="25.312473611111"><time>2015-10-31T10:58:22Z</time></trkpt><trkpt lat="60.306293333333" lon="25.312537222222"><time>2015-10-31T10:58:26Z</time></trkpt><trkpt lat="60.306225833333" lon="25.312658611111"><time>2015-10-31T10:58:33Z</time></trkpt><trkpt lat="60.306167222222" lon="25.312773333333"><time>2015-10-31T10:58:39Z</time></trkpt><trkpt lat="60.306103333333" lon="25.312908055556"><time>2015-10-31T10:58:46Z</time></trkpt><trkpt lat="60.306052222222" lon="25.313083333333"><time>2015-10-31T10:58:51Z</time></trkpt><trkpt lat="60.305984166667" lon="25.313280277778"><time>2015-10-31T10:58:56Z</time></trkpt><trkpt lat="60.305922222222" lon="25.313438888889"><time>2015-10-31T10:59:01Z</time></trkpt><trkpt lat="60.305868611111" lon="25.313559166667"><time>2015-10-31T10:59:06Z</time></trkpt><trkpt lat="60.305850833333" lon="25.313634722222"><time>2015-10-31T10:59:09Z</time></trkpt><trkpt lat="60.305841666667" lon="25.313688333333"><time>2015-10-31T10:59:11Z</time></trkpt><trkpt lat="60.305791111111" lon="25.313751111111"><time>2015-10-31T10:59:15Z</time></trkpt><trkpt lat="60.305758055556" lon="25.313826388889"><time>2015-10-31T10:59:18Z</time></trkpt><trkpt lat="60.305734722222" lon="25.313864166667"><time>2015-10-31T10:59:20Z</time></trkpt><trkpt lat="60.305687222222" lon="25.313923055556"><time>2015-10-31T10:59:24Z</time></trkpt><trkpt lat="60.305663055556" lon="25.313937777778"><time>2015-10-31T10:59:26Z</time></trkpt><trkpt lat="60.305644722222" lon="25.313983333333"><time>2015-10-31T10:59:28Z</time></trkpt><trkpt lat="60.305620833333" lon="25.314018888889"><time>2015-10-31T10:59:30Z</time></trkpt><trkpt lat="60.305610555556" lon="25.314028888889"><time>2015-10-31T10:59:31Z</time></trkpt><trkpt lat="60.305601666667" lon="25.314044722222"><time>2015-10-31T10:59:37Z</time></trkpt><trkpt lat="60.305626388889" lon="25.314082777778"><time>2015-10-31T10:59:41Z</time></trkpt><trkpt lat="60.305672222222" lon="25.314081111111"><time>2015-10-31T10:59:46Z</time></trkpt><trkpt lat="60.305698611111" lon="25.314055277778"><time>2015-10-31T10:59:49Z</time></trkpt><trkpt lat="60.305719722222" lon="25.314027777778"><time>2015-10-31T10:59:51Z</time></trkpt><trkpt lat="60.305789166667" lon="25.314057222222"><time>2015-10-31T10:59:55Z</time></trkpt><trkpt lat="60.3058075" lon="25.314066111111"><time>2015-10-31T10:59:56Z</time></trkpt><trkpt lat="60.305906666667" lon="25.314218888889"><time>2015-10-31T11:00:01Z</time></trkpt><trkpt lat="60.305979166667" lon="25.314471388889"><time>2015-10-31T11:00:06Z</time></trkpt><trkpt lat="60.306013055556" lon="25.314723333333"><time>2015-10-31T11:00:12Z</time></trkpt><trkpt lat="60.306023333333" lon="25.314756388889"><time>2015-10-31T11:00:13Z</time></trkpt><trkpt lat="60.306040555556" lon="25.314851111111"><time>2015-10-31T11:00:16Z</time></trkpt><trkpt lat="60.306075833333" lon="25.314968611111"><time>2015-10-31T11:00:19Z</time></trkpt><trkpt lat="60.306121666667" lon="25.315108333333"><time>2015-10-31T11:00:23Z</time></trkpt><trkpt lat="60.306173888889" lon="25.315272777778"><time>2015-10-31T11:00:28Z</time></trkpt><trkpt lat="60.306191666667" lon="25.315294444444"><time>2015-10-31T11:00:29Z</time></trkpt><trkpt lat="60.306245555556" lon="25.315478333333"><time>2015-10-31T11:00:34Z</time></trkpt><trkpt lat="60.306253055556" lon="25.315646944444"><time>2015-10-31T11:00:39Z</time></trkpt><trkpt lat="60.306205833333" lon="25.315756666667"><time>2015-10-31T11:00:44Z</time></trkpt><trkpt lat="60.3061475" lon="25.315796111111"><time>2015-10-31T11:00:49Z</time></trkpt><trkpt lat="60.306085833333" lon="25.315821111111"><time>2015-10-31T11:00:55Z</time></trkpt><trkpt lat="60.306010277778" lon="25.315796666667"><time>2015-10-31T11:01:01Z</time></trkpt><trkpt lat="60.305983611111" lon="25.315801388889"><time>2015-10-31T11:01:03Z</time></trkpt><trkpt lat="60.305932777778" lon="25.315795277778"><time>2015-10-31T11:01:07Z</time></trkpt><trkpt lat="60.305876111111" lon="25.315811111111"><time>2015-10-31T11:01:11Z</time></trkpt><trkpt lat="60.305838888889" lon="25.315838611111"><time>2015-10-31T11:01:13Z</time></trkpt><trkpt lat="60.305790277778" lon="25.315972777778"><time>2015-10-31T11:01:18Z</time></trkpt><trkpt lat="60.305769444444" lon="25.316101944444"><time>2015-10-31T11:01:24Z</time></trkpt><trkpt lat="60.305769722222" lon="25.316128888889"><time>2015-10-31T11:01:25Z</time></trkpt><trkpt lat="60.305724166667" lon="25.3162925"><time>2015-10-31T11:01:30Z</time></trkpt><trkpt lat="60.305701111111" lon="25.316344444444"><time>2015-10-31T11:01:32Z</time></trkpt><trkpt lat="60.305686111111" lon="25.316403611111"><time>2015-10-31T11:01:34Z</time></trkpt><trkpt lat="60.305680555556" lon="25.316439722222"><time>2015-10-31T11:01:35Z</time></trkpt><trkpt lat="60.305648055556" lon="25.316614444444"><time>2015-10-31T11:01:40Z</time></trkpt><trkpt lat="60.305578611111" lon="25.316747777778"><time>2015-10-31T11:01:45Z</time></trkpt><trkpt lat="60.305507777778" lon="25.316768611111"><time>2015-10-31T11:01:49Z</time></trkpt><trkpt lat="60.305411111111" lon="25.316845833333"><time>2015-10-31T11:01:54Z</time></trkpt><trkpt lat="60.305392222222" lon="25.316839722222"><time>2015-10-31T11:01:55Z</time></trkpt><trkpt lat="60.305363055556" lon="25.316864166667"><time>2015-10-31T11:01:57Z</time></trkpt><trkpt lat="60.305333055556" lon="25.316926666667"><time>2015-10-31T11:01:59Z</time></trkpt><trkpt lat="60.3053" lon="25.316976666667"><time>2015-10-31T11:02:01Z</time></trkpt><trkpt lat="60.305251666667" lon="25.31699"><time>2015-10-31T11:02:03Z</time></trkpt><trkpt lat="60.3052125" lon="25.316995833333"><time>2015-10-31T11:02:05Z</time></trkpt><trkpt lat="60.305141111111" lon="25.317102777778"><time>2015-10-31T11:02:10Z</time></trkpt><trkpt lat="60.305091111111" lon="25.317153611111"><time>2015-10-31T11:02:13Z</time></trkpt><trkpt lat="60.305075277778" lon="25.317158888889"><time>2015-10-31T11:02:14Z</time></trkpt><trkpt lat="60.305033611111" lon="25.317207777778"><time>2015-10-31T11:02:17Z</time></trkpt><trkpt lat="60.305007777778" lon="25.317260833333"><time>2015-10-31T11:02:20Z</time></trkpt><trkpt lat="60.304956666667" lon="25.317422777778"><time>2015-10-31T11:02:28Z</time></trkpt><trkpt lat="60.304895277778" lon="25.317549722222"><time>2015-10-31T11:02:33Z</time></trkpt><trkpt lat="60.304859722222" lon="25.317695555556"><time>2015-10-31T11:02:38Z</time></trkpt><trkpt lat="60.304806944444" lon="25.317829444444"><time>2015-10-31T11:02:43Z</time></trkpt><trkpt lat="60.3047775" lon="25.317948333333"><time>2015-10-31T11:02:47Z</time></trkpt><trkpt lat="60.304731666667" lon="25.318034722222"><time>2015-10-31T11:02:51Z</time></trkpt><trkpt lat="60.304721944444" lon="25.318056944444"><time>2015-10-31T11:02:52Z</time></trkpt><trkpt lat="60.304698333333" lon="25.318113055556"><time>2015-10-31T11:02:54Z</time></trkpt><trkpt lat="60.304642222222" lon="25.318194722222"><time>2015-10-31T11:02:57Z</time></trkpt><trkpt lat="60.304628888889" lon="25.318216388889"><time>2015-10-31T11:02:58Z</time></trkpt><trkpt lat="60.304583055556" lon="25.318286944444"><time>2015-10-31T11:03:02Z</time></trkpt><trkpt lat="60.304490555556" lon="25.318395277778"><time>2015-10-31T11:03:09Z</time></trkpt><trkpt lat="60.304398888889" lon="25.318475555556"><time>2015-10-31T11:03:14Z</time></trkpt><trkpt lat="60.304345277778" lon="25.318608888889"><time>2015-10-31T11:03:20Z</time></trkpt><trkpt lat="60.304300555556" lon="25.318726666667"><time>2015-10-31T11:03:24Z</time></trkpt><trkpt lat="60.304288333333" lon="25.318758333333"><time>2015-10-31T11:03:25Z</time></trkpt><trkpt lat="60.304224166667" lon="25.318936666667"><time>2015-10-31T11:03:30Z</time></trkpt><trkpt lat="60.304185277778" lon="25.319050277778"><time>2015-10-31T11:03:33Z</time></trkpt><trkpt lat="60.304156666667" lon="25.319119166667"><time>2015-10-31T11:03:35Z</time></trkpt><trkpt lat="60.304055277778" lon="25.319286388889"><time>2015-10-31T11:03:42Z</time></trkpt><trkpt lat="60.304035277778" lon="25.319339166667"><time>2015-10-31T11:03:45Z</time></trkpt><trkpt lat="60.304038888889" lon="25.319374722222"><time>2015-10-31T11:03:47Z</time></trkpt><trkpt lat="60.304063333333" lon="25.319428055556"><time>2015-10-31T11:03:52Z</time></trkpt><trkpt lat="60.304046666667" lon="25.319453888889"><time>2015-10-31T11:03:54Z</time></trkpt><trkpt lat="60.304020555556" lon="25.319462222222"><time>2015-10-31T11:03:56Z</time></trkpt><trkpt lat="60.304008611111" lon="25.319457777778"><time>2015-10-31T11:03:58Z</time></trkpt><trkpt lat="60.304001666667" lon="25.319480555556"><time>2015-10-31T11:04:01Z</time></trkpt><trkpt lat="60.303979444444" lon="25.319546388889"><time>2015-10-31T11:04:05Z</time></trkpt><trkpt lat="60.303972222222" lon="25.319552222222"><time>2015-10-31T11:04:06Z</time></trkpt><trkpt lat="60.303938055556" lon="25.319585"><time>2015-10-31T11:04:10Z</time></trkpt><trkpt lat="60.303896111111" lon="25.319630277778"><time>2015-10-31T11:04:13Z</time></trkpt><trkpt lat="60.303883611111" lon="25.3196275"><time>2015-10-31T11:04:14Z</time></trkpt><trkpt lat="60.303857222222" lon="25.319703333333"><time>2015-10-31T11:04:18Z</time></trkpt><trkpt lat="60.303819166667" lon="25.319791388889"><time>2015-10-31T11:04:22Z</time></trkpt><trkpt lat="60.303821111111" lon="25.319958611111"><time>2015-10-31T11:04:27Z</time></trkpt><trkpt lat="60.303825555556" lon="25.320091944444"><time>2015-10-31T11:04:31Z</time></trkpt><trkpt lat="60.303808888889" lon="25.320221388889"><time>2015-10-31T11:04:35Z</time></trkpt><trkpt lat="60.303765277778" lon="25.320289722222"><time>2015-10-31T11:04:38Z</time></trkpt><trkpt lat="60.303754166667" lon="25.32031"><time>2015-10-31T11:04:39Z</time></trkpt><trkpt lat="60.3037125" lon="25.320446666667"><time>2015-10-31T11:04:44Z</time></trkpt><trkpt lat="60.303695277778" lon="25.320579166667"><time>2015-10-31T11:04:48Z</time></trkpt><trkpt lat="60.303681944444" lon="25.320678888889"><time>2015-10-31T11:04:52Z</time></trkpt><trkpt lat="60.3037" lon="25.320763333333"><time>2015-10-31T11:04:56Z</time></trkpt><trkpt lat="60.3036925" lon="25.320872777778"><time>2015-10-31T11:05:00Z</time></trkpt><trkpt lat="60.303667777778" lon="25.320925833333"><time>2015-10-31T11:05:02Z</time></trkpt><trkpt lat="60.303660555556" lon="25.320949444444"><time>2015-10-31T11:05:03Z</time></trkpt><trkpt lat="60.303662777778" lon="25.32098"><time>2015-10-31T11:05:04Z</time></trkpt><trkpt lat="60.303698333333" lon="25.321120833333"><time>2015-10-31T11:05:07Z</time></trkpt><trkpt lat="60.303668611111" lon="25.321234166667"><time>2015-10-31T11:05:11Z</time></trkpt><trkpt lat="60.303556944444" lon="25.3212525"><time>2015-10-31T11:05:16Z</time></trkpt><trkpt lat="60.3034725" lon="25.321218611111"><time>2015-10-31T11:05:20Z</time></trkpt><trkpt lat="60.303445" lon="25.321213333333"><time>2015-10-31T11:05:21Z</time></trkpt><trkpt lat="60.303398611111" lon="25.321196111111"><time>2015-10-31T11:05:23Z</time></trkpt><trkpt lat="60.303379166667" lon="25.321192222222"><time>2015-10-31T11:05:24Z</time></trkpt><trkpt lat="60.303278611111" lon="25.321176388889"><time>2015-10-31T11:05:29Z</time></trkpt><trkpt lat="60.303228611111" lon="25.321157222222"><time>2015-10-31T11:05:32Z</time></trkpt><trkpt lat="60.303199722222" lon="25.321138055556"><time>2015-10-31T11:05:34Z</time></trkpt><trkpt lat="60.303163611111" lon="25.321132777778"><time>2015-10-31T11:05:36Z</time></trkpt><trkpt lat="60.303105555556" lon="25.321136944444"><time>2015-10-31T11:05:39Z</time></trkpt><trkpt lat="60.303086388889" lon="25.321128611111"><time>2015-10-31T11:05:40Z</time></trkpt><trkpt lat="60.303032777778" lon="25.321114722222"><time>2015-10-31T11:05:43Z</time></trkpt><trkpt lat="60.302964444444" lon="25.321070833333"><time>2015-10-31T11:05:47Z</time></trkpt><trkpt lat="60.302892777778" lon="25.321086944444"><time>2015-10-31T11:05:51Z</time></trkpt><trkpt lat="60.302809166667" lon="25.321171666667"><time>2015-10-31T11:05:55Z</time></trkpt><trkpt lat="60.302789166667" lon="25.321196666667"><time>2015-10-31T11:05:56Z</time></trkpt><trkpt lat="60.302688333333" lon="25.321289722222"><time>2015-10-31T11:06:01Z</time></trkpt><trkpt lat="60.3026725" lon="25.321288333333"><time>2015-10-31T11:06:02Z</time></trkpt><trkpt lat="60.302617777778" lon="25.32132"><time>2015-10-31T11:06:05Z</time></trkpt><trkpt lat="60.302548333333" lon="25.321374166667"><time>2015-10-31T11:06:10Z</time></trkpt><trkpt lat="60.302521388889" lon="25.321383888889"><time>2015-10-31T11:06:12Z</time></trkpt><trkpt lat="60.302494722222" lon="25.321423888889"><time>2015-10-31T11:06:14Z</time></trkpt><trkpt lat="60.30243" lon="25.321495"><time>2015-10-31T11:06:18Z</time></trkpt><trkpt lat="60.302371666667" lon="25.321625277778"><time>2015-10-31T11:06:23Z</time></trkpt><trkpt lat="60.302315277778" lon="25.321553333333"><time>2015-10-31T11:06:26Z</time></trkpt><trkpt lat="60.302186111111" lon="25.321326666667"><time>2015-10-31T11:06:31Z</time></trkpt><trkpt lat="60.3020525" lon="25.321080555556"><time>2015-10-31T11:06:36Z</time></trkpt><trkpt lat="60.3020025" lon="25.320979722222"><time>2015-10-31T11:06:38Z</time></trkpt><trkpt lat="60.301928888889" lon="25.320728333333"><time>2015-10-31T11:06:43Z</time></trkpt><trkpt lat="60.301859444444" lon="25.32049"><time>2015-10-31T11:06:48Z</time></trkpt><trkpt lat="60.301778333333" lon="25.320124166667"><time>2015-10-31T11:06:54Z</time></trkpt><trkpt lat="60.301689444444" lon="25.3198925"><time>2015-10-31T11:06:59Z</time></trkpt><trkpt lat="60.301634722222" lon="25.319650833333"><time>2015-10-31T11:07:04Z</time></trkpt><trkpt lat="60.301617777778" lon="25.319627222222"><time>2015-10-31T11:07:05Z</time></trkpt><trkpt lat="60.301551111111" lon="25.319586666667"><time>2015-10-31T11:07:08Z</time></trkpt><trkpt lat="60.301521944444" lon="25.319609166667"><time>2015-10-31T11:07:10Z</time></trkpt><trkpt lat="60.301508611111" lon="25.319664722222"><time>2015-10-31T11:07:11Z</time></trkpt><trkpt lat="60.301497777778" lon="25.319935833333"><time>2015-10-31T11:07:15Z</time></trkpt><trkpt lat="60.301495555556" lon="25.320068888889"><time>2015-10-31T11:07:17Z</time></trkpt><trkpt lat="60.301463333333" lon="25.320251111111"><time>2015-10-31T11:07:20Z</time></trkpt><trkpt lat="60.301425277778" lon="25.320648888889"><time>2015-10-31T11:07:25Z</time></trkpt><trkpt lat="60.301419166667" lon="25.320726944444"><time>2015-10-31T11:07:26Z</time></trkpt><trkpt lat="60.301397777778" lon="25.3209725"><time>2015-10-31T11:07:29Z</time></trkpt><trkpt lat="60.301385" lon="25.321138888889"><time>2015-10-31T11:07:31Z</time></trkpt><trkpt lat="60.301378611111" lon="25.321219722222"><time>2015-10-31T11:07:32Z</time></trkpt><trkpt lat="60.301355833333" lon="25.321546111111"><time>2015-10-31T11:07:36Z</time></trkpt><trkpt lat="60.301347222222" lon="25.321692777778"><time>2015-10-31T11:07:38Z</time></trkpt><trkpt lat="60.301338333333" lon="25.321777222222"><time>2015-10-31T11:07:39Z</time></trkpt><trkpt lat="60.301308333333" lon="25.322076388889"><time>2015-10-31T11:07:43Z</time></trkpt><trkpt lat="60.301278611111" lon="25.322445"><time>2015-10-31T11:07:48Z</time></trkpt><trkpt lat="60.301270833333" lon="25.32252"><time>2015-10-31T11:07:49Z</time></trkpt><trkpt lat="60.301221666667" lon="25.322868888889"><time>2015-10-31T11:07:54Z</time></trkpt><trkpt lat="60.301209166667" lon="25.322924722222"><time>2015-10-31T11:07:55Z</time></trkpt><trkpt lat="60.301115" lon="25.323208888889"><time>2015-10-31T11:08:00Z</time></trkpt><trkpt lat="60.301026388889" lon="25.323595"><time>2015-10-31T11:08:06Z</time></trkpt><trkpt lat="60.300998333333" lon="25.323853055556"><time>2015-10-31T11:08:11Z</time></trkpt><trkpt lat="60.301001666667" lon="25.323869444444"><time>2015-10-31T11:08:12Z</time></trkpt><trkpt lat="60.300991666667" lon="25.323958611111"><time>2015-10-31T11:08:16Z</time></trkpt><trkpt lat="60.300982777778" lon="25.324001944444"><time>2015-10-31T11:08:18Z</time></trkpt></trkseg>
</trk>
</gpx>